[[{"header":{"parameterUnit":"m.s-1","parameterCategory":1,"la1":31.0,"la2":29.5877,"lo1":-88.7671,"lo2":-86.6584,"dy":0.0162,"dx":0.0185,"nx":115,"ny":88,"refTime":"2023-04-06T00:00:00:Z","depth":0,"parameterNumber":2,"parameterNumberName":"U-component_of_WINDS"},"data":[0.0,0.0,0.0,0.0,0.0,0.0,0.0,0.0,0.0,0.0,0.0,0.0,0.0,0.0,0.0,0.0,0.0,0.0,0.0,0.0,0.0,0.0,0.0,0.0,0.0,0.0,0.0,0.0,0.0,0.0,0.0,0.0,0.0,0.0,0.0,0.0,0.0,0.0,0.0,0.0,0.0,0.0,0.0,0.0,0.0,0.0,0.0,0.0,0.0,0.0,0.0,0.0,0.0,0.0,0.0,0.0,0.0,0.0,0.0,0.0,0.0,0.0,0.0,0.0,0.0,0.0,0.0,0.0,0.0,0.0,0.0,0.0,0.0,0.0,0.0,0.0,0.0,0.0,0.0,0.0,0.0,0.0,0.0,0.0,0.0,0.0,0.0,0.0,0.0,0.0,0.0,0.0,0.0,0.0,0.0,0.0,0.0,0.0,0.0,0.0,0.0,0.0,0.0,0.0,0.0,0.0,0.0,0.0,0.0,0.0,0.0,0.0,0.0,0.0,0.0,0.0,0.0,0.0,0.0,0.0,0.0,0.0,0.0,0.0,0.0,0.0,0.0,0.0,0.0,0.0,0.0,0.0,0.0,0.0,0.0,0.0,0.0,0.0,0.0,0.0,0.0,0.0,0.0,0.0,0.0,0.0,0.0,0.0,0.0,0.0,0.0,0.0,0.0,0.0,0.0,0.0,0.0,0.0,0.0,0.0,0.0,0.0,0.0,0.0,0.0,0.0,0.0,0.0,0.0,0.0,0.0,0.0,0.0,0.0,0.0,0.0,0.0,0.0,0.0,0.0,0.0,0.0,0.0,0.0,0.0,0.0,0.0,0.0,0.0,0.0,0.0,0.0,0.0,0.0,0.0,0.0,0.0,0.0,0.0,0.0,0.0,0.0,0.0,0.0,0.0,0.0,0.0,0.0,0.0,0.0,0.0,0.0,0.0,0.0,0.0,0.0,0.0,0.0,0.0,0.0,0.0,0.0,0.0,0.0,0.0,0.0,0.0,0.0,0.0,0.0,0.0,0.0,0.0,0.0,0.0,0.0,0.0,0.0,0.0,0.0,0.0,0.0,0.0,0.0,0.0,0.0,0.0,0.0,0.0,0.0,0.0,0.0,0.0,0.0,0.0,0.0,0.0,0.0,0.0,0.0,0.0,0.0,0.0,0.0,0.0,0.0,0.0,0.0,0.0,0.0,0.0,0.0,0.0,0.0,0.0,0.0,0.0,0.0,0.0,0.0,0.0,0.0,0.0,0.0,0.0,0.0,0.0,0.0,0.0,0.0,0.0,0.0,0.0,0.0,0.0,0.0,0.0,0.0,0.0,0.0,0.0,0.0,0.0,0.0,0.0,0.0,0.0,0.0,0.0,0.0,0.0,0.0,0.0,0.0,0.0,0.0,0.0,0.0,0.0,0.0,0.0,0.0,0.0,0.0,0.0,0.0,0.0,0.0,0.0,0.0,0.0,0.0,0.0,0.0,0.0,0.0,0.0,0.0,0.0,0.0,0.0,0.0,0.0,0.0,0.0,0.0,0.0,0.0,0.0,0.0,0.0,0.0,0.0,0.0,0.0,0.0,0.0,0.0,0.0,0.0,0.0,0.0,0.0,0.0,0.0,0.0,0.0,0.0,0.0,0.0,0.0,0.0,0.0,0.0,0.0,0.0,0.0,0.0,0.0,0.0,0.0,0.0,0.0,0.0,0.0,0.0,0.0,0.0,0.0,0.0,0.0,0.0,0.0,0.0,0.0,0.0,0.0,0.0,0.0,0.0,0.0,0.0,0.0,0.0,0.0,0.0,0.0,0.0,0.0,0.0,0.0,0.0,0.0,0.0,0.0,0.0,0.0,0.0,0.0,0.0,0.0,0.0,0.0,0.0,0.0,0.0,0.0,0.0,0.0,0.0,0.0,0.0,0.0,0.0,0.0,0.0,0.0,0.0,0.0,0.0,0.0,0.0,0.0,0.0,0.0,0.0,0.0,0.0,0.0,0.0,0.0,0.0,0.0,0.0,0.0,0.0,0.0,0.0,0.0,0.0,0.0,0.0,0.0,0.0,0.0,0.0,0.0,0.0,0.0,0.0,0.0,0.0,0.0,0.0,0.0,0.0,0.0,0.0,0.0,0.0,0.0,0.0,0.0,0.0,0.0,0.0,0.0,0.0,0.0,0.0,0.0,0.0,0.0,0.0,0.0,0.0,0.0,0.0,0.0,0.0,0.0,0.0,0.0,0.0,0.0,0.0,0.0,0.0,0.0,0.0,0.0,0.0,0.0,0.0,0.0,0.0,0.0,0.0,0.0,0.0,0.0,0.0,0.0,0.0,0.0,0.0,0.0,0.0,0.0,0.0,0.0,0.0,0.0,0.0,0.0,0.0,0.0,0.0,0.0,0.0,0.0,0.0,0.0,0.0,0.0,0.0,0.0,0.0,0.0,0.0,0.0,0.0,0.0,0.0,0.0,0.0,0.0,0.0,0.0,0.0,0.0,0.0,0.0,0.0,0.0,0.0,0.0,0.0,0.0,0.0,0.0,0.0,0.0,0.0,0.0,0.0,0.0,0.0,0.0,0.0,0.0,0.0,0.0,0.0,0.0,0.0,0.0,0.0,0.0,0.0,0.0,0.0,0.0,0.0,0.0,0.0,0.0,0.0,0.0,0.0,0.0,0.0,0.0,0.0,0.0,0.0,0.0,0.0,0.0,0.0,0.0,0.0,0.0,0.0,0.0,0.0,0.0,0.0,0.0,0.0,0.0,0.0,0.0,0.0,0.0,0.0,0.0,0.0,0.0,0.0,0.0,0.0,0.0,0.0,0.0,0.0,0.0,0.0,0.0,0.0,0.0,0.0,0.0,0.0,0.0,0.0,0.0,0.0,0.0,0.0,0.0,0.0,0.0,0.0,0.0,0.0,0.0,0.0,0.0,0.0,0.0,0.0,0.0,0.0,0.0,0.0,0.0,0.0,0.0,0.0,0.0,0.0,0.0,0.0,0.0,0.0,0.0,0.0,0.0,0.0,0.0,0.0,0.0,0.0,0.0,0.0,0.0,0.0,0.0,0.0,0.0,0.0,0.0,0.0,0.0,0.0,0.0,0.0,0.0,0.0,0.0,0.0,0.0,0.0,0.0,0.0,0.0,0.0,0.0,0.0,0.0,0.0,0.0,0.0,0.0,0.0,0.0,0.0,0.0,0.0,0.0,0.0,0.0,0.0,0.0,0.0,0.0,0.0,0.0,0.0,0.0,0.0,0.0,0.0,0.0,0.0,0.0,0.0,0.0,0.0,0.0,0.0,0.0,0.0,0.0,0.0,0.0,0.0,0.0,0.0,0.0,0.0,0.0,0.0,0.0,0.0,0.0,0.0,0.0,0.0,0.0,0.0,0.0,0.0,0.0,0.0,0.0,0.0,0.0,0.0,0.0,0.0,0.0,0.0,0.0,0.0,0.0,0.0,0.0,0.0,0.0,0.0,0.0,0.0,0.0,0.0,0.0,0.0,0.0,0.0,0.0,0.0,0.0,0.0,0.0,0.0,0.0,0.0,0.0,0.0,0.0,0.0,0.0,0.0,0.0,0.0,0.0,0.0,0.0,0.0,0.0,0.0,0.0,0.0,0.0,0.0,0.0,0.0,0.0,0.0,0.0,0.0,0.0,0.0,0.0,0.0,0.0,0.0,0.0,0.0,0.0,0.0,0.0,0.0,0.0,0.0,0.0,0.0,0.0,0.0,0.0,0.0,0.0,0.0,0.0,0.0,0.0,0.0,0.0,0.0,0.0,0.0,0.0,0.0,0.0,0.0,0.0,0.0,0.0,0.0,0.0,0.0,0.0,0.0,0.0,0.0,0.0,0.0,0.0,0.0,0.0,0.0,0.0,0.0,0.0,0.0,0.0,0.0,0.0,0.0,0.0,0.0,0.0,0.0,0.0,0.0,0.0,0.0,0.0,0.0,0.0,0.0,0.0,0.0,0.0,0.0,0.0,0.0,0.0,0.0,0.0,0.0,0.0,0.0,0.0,0.0,0.0,0.0,0.0,0.0,0.0,0.0,0.0,0.0,0.0,0.0,0.0,0.0,0.0,0.0,0.0,0.0,0.0,0.0,0.0,0.0,0.0,0.0,0.0,0.0,0.0,0.0,0.0,0.0,0.0,0.0,0.0,0.0,0.0,0.0,0.0,0.0,0.0,0.0,0.0,0.0,0.0,0.0,0.0,0.0,0.0,0.0,0.0,0.0,0.0,0.0,0.0,0.0,0.0,0.0,0.0,0.0,0.0,0.0,0.0,0.0,3.8125,0.0,0.0,0.0,0.0,0.0,0.0,0.0,0.0,0.0,0.0,0.0,0.0,0.0,0.0,0.0,0.0,0.0,0.0,0.0,0.0,0.0,0.0,0.0,0.0,0.0,0.0,0.0,0.0,0.0,0.0,0.0,0.0,0.0,0.0,0.0,0.0,0.0,0.0,0.0,0.0,0.0,0.0,0.0,0.0,0.0,0.0,0.0,0.0,0.0,0.0,0.0,0.0,0.0,0.0,0.0,0.0,0.0,0.0,0.0,0.0,0.0,0.0,0.0,0.0,0.0,0.0,0.0,0.0,0.0,0.0,0.0,0.0,0.0,0.0,0.0,0.0,0.0,0.0,0.0,0.0,0.0,0.0,0.0,0.0,0.0,0.0,0.0,0.0,0.0,0.0,0.0,0.0,0.0,0.0,0.0,0.0,0.0,0.0,0.0,0.0,0.0,0.0,0.0,0.0,0.0,0.0,0.0,0.0,0.0,0.0,3.7815,3.8446,3.8497,3.8452,3.8383,0.0,0.0,0.0,0.0,0.0,0.0,0.0,0.0,0.0,0.0,0.0,0.0,0.0,0.0,0.0,0.0,0.0,0.0,0.0,0.0,0.0,0.0,0.0,0.0,0.0,0.0,0.0,0.0,0.0,0.0,0.0,0.0,0.0,0.0,0.0,0.0,0.0,0.0,0.0,0.0,0.0,0.0,0.0,0.0,0.0,0.0,0.0,0.0,0.0,0.0,0.0,0.0,0.0,0.0,0.0,0.0,0.0,0.0,0.0,0.0,0.0,0.0,0.0,0.0,0.0,0.0,0.0,0.0,0.0,0.0,0.0,0.0,0.0,0.0,0.0,0.0,0.0,0.0,0.0,0.0,0.0,0.0,0.0,0.0,0.0,0.0,0.0,0.0,0.0,0.0,0.0,0.0,0.0,0.0,0.0,0.0,0.0,0.0,0.0,0.0,0.0,0.0,0.0,0.0,0.0,0.0,0.0,0.0,0.0,0.0,0.0,0.0,3.8998,3.8841,3.8513,0.0,0.0,0.0,0.0,0.0,0.0,0.0,0.0,0.0,0.0,0.0,0.0,0.0,0.0,0.0,0.0,0.0,0.0,0.0,0.0,0.0,0.0,0.0,0.0,0.0,0.0,0.0,0.0,0.0,0.0,0.0,0.0,0.0,0.0,0.0,0.0,0.0,0.0,0.0,0.0,0.0,0.0,0.0,0.0,0.0,0.0,0.0,0.0,0.0,0.0,0.0,0.0,0.0,0.0,0.0,0.0,0.0,0.0,0.0,0.0,0.0,0.0,0.0,0.0,0.0,0.0,0.0,0.0,0.0,0.0,0.0,0.0,0.0,0.0,0.0,0.0,0.0,0.0,0.0,0.0,0.0,0.0,0.0,0.0,0.0,0.0,0.0,0.0,0.0,0.0,0.0,0.0,0.0,0.0,0.0,0.0,0.0,0.0,0.0,0.0,0.0,0.0,0.0,0.0,0.0,0.0,0.0,0.0,0.0,0.0,3.9337,3.962,3.962,0.0,3.8788,0.0,0.0,0.0,0.0,0.0,0.0,0.0,0.0,0.0,0.0,0.0,0.0,0.0,0.0,0.0,0.0,0.0,0.0,0.0,0.0,0.0,0.0,0.0,0.0,0.0,0.0,0.0,0.0,0.0,0.0,0.0,0.0,0.0,0.0,0.0,0.0,0.0,0.0,0.0,0.0,0.0,0.0,0.0,0.0,0.0,0.0,0.0,0.0,0.0,0.0,0.0,0.0,0.0,0.0,0.0,0.0,0.0,0.0,0.0,0.0,0.0,0.0,0.0,0.0,0.0,0.0,0.0,0.0,0.0,0.0,0.0,0.0,0.0,0.0,0.0,0.0,0.0,0.0,0.0,0.0,0.0,0.0,0.0,0.0,0.0,0.0,0.0,0.0,0.0,0.0,0.0,0.0,0.0,0.0,0.0,0.0,0.0,0.0,0.0,0.0,0.0,0.0,0.0,0.0,0.0,0.0,0.0,0.0,0.0,0.0,3.9607,3.9697,3.9543,3.927,0.0,0.0,0.0,0.0,0.0,0.0,0.0,0.0,0.0,0.0,0.0,0.0,0.0,0.0,0.0,0.0,0.0,0.0,0.0,0.0,0.0,0.0,0.0,0.0,0.0,0.0,0.0,0.0,0.0,0.0,0.0,0.0,0.0,0.0,0.0,0.0,0.0,0.0,0.0,0.0,0.0,0.0,0.0,0.0,0.0,0.0,0.0,0.0,0.0,0.0,0.0,0.0,0.0,0.0,0.0,0.0,0.0,0.0,0.0,0.0,0.0,0.0,0.0,0.0,0.0,0.0,0.0,0.0,0.0,0.0,0.0,0.0,0.0,0.0,0.0,0.0,0.0,0.0,0.0,0.0,0.0,0.0,0.0,0.0,0.0,0.0,0.0,0.0,0.0,0.0,0.0,0.0,0.0,0.0,0.0,0.0,0.0,0.0,0.0,0.0,0.0,0.0,0.0,0.0,0.0,0.0,0.0,0.0,0.0,0.0,3.971,3.971,3.9684,3.9374,3.905,3.8802,0.0,0.0,0.0,0.0,0.0,0.0,0.0,0.0,0.0,0.0,0.0,0.0,0.0,0.0,0.0,0.0,0.0,0.0,0.0,0.0,0.0,0.0,0.0,0.0,0.0,0.0,0.0,0.0,0.0,0.0,0.0,0.0,0.0,0.0,0.0,0.0,0.0,0.0,0.0,0.0,0.0,0.0,0.0,0.0,0.0,0.0,0.0,0.0,0.0,0.0,0.0,0.0,0.0,0.0,0.0,0.0,0.0,0.0,0.0,0.0,0.0,0.0,0.0,0.0,0.0,0.0,0.0,0.0,0.0,0.0,0.0,0.0,0.0,0.0,0.0,0.0,0.0,0.0,0.0,0.0,0.0,0.0,0.0,0.0,0.0,0.0,0.0,0.0,0.0,0.0,0.0,0.0,0.0,0.0,0.0,0.0,0.0,0.0,0.0,0.0,0.0,0.0,0.0,0.0,0.0,0.0,0.0,0.0,3.971,3.971,3.971,3.9697,3.914,3.8815,0.0,0.0,0.0,0.0,0.0,0.0,0.0,0.0,0.0,0.0,0.0,0.0,0.0,0.0,0.0,0.0,0.0,0.0,0.0,0.0,0.0,0.0,0.0,0.0,0.0,0.0,0.0,0.0,0.0,0.0,0.0,0.0,0.0,0.0,0.0,0.0,0.0,0.0,0.0,0.0,0.0,0.0,0.0,0.0,0.0,0.0,0.0,0.0,0.0,0.0,0.0,0.0,0.0,0.0,0.0,0.0,0.0,0.0,0.0,0.0,0.0,0.0,0.0,0.0,0.0,0.0,0.0,0.0,0.0,0.0,0.0,0.0,0.0,0.0,0.0,0.0,0.0,0.0,0.0,0.0,0.0,0.0,0.0,0.0,0.0,0.0,0.0,0.0,0.0,0.0,0.0,0.0,0.0,0.0,0.0,0.0,0.0,0.0,0.0,0.0,0.0,0.0,0.0,0.0,0.0,0.0,0.0,0.0,0.0,3.971,3.971,3.971,3.9697,3.9335,3.9024,0.0,0.0,0.0,0.0,0.0,0.0,0.0,0.0,0.0,0.0,0.0,0.0,0.0,0.0,0.0,0.0,0.0,0.0,0.0,0.0,0.0,0.0,0.0,0.0,0.0,0.0,0.0,0.0,0.0,0.0,0.0,0.0,0.0,0.0,0.0,0.0,0.0,0.0,0.0,0.0,0.0,0.0,0.0,0.0,0.0,0.0,0.0,0.0,0.0,0.0,0.0,0.0,0.0,0.0,0.0,0.0,0.0,0.0,0.0,0.0,0.0,0.0,0.0,0.0,0.0,0.0,0.0,0.0,0.0,0.0,0.0,0.0,0.0,0.0,0.0,0.0,0.0,0.0,0.0,0.0,0.0,0.0,0.0,0.0,0.0,0.0,0.0,0.0,0.0,0.0,0.0,0.0,0.0,0.0,0.0,0.0,0.0,0.0,0.0,0.0,0.0,0.0,0.0,0.0,0.0,0.0,0.0,0.0,0.0,3.971,0.0,3.971,3.9697,3.9323,3.9024,0.0,0.0,0.0,0.0,0.0,0.0,0.0,0.0,0.0,0.0,0.0,0.0,0.0,0.0,0.0,0.0,0.0,0.0,0.0,0.0,0.0,0.0,0.0,0.0,0.0,0.0,0.0,0.0,0.0,0.0,0.0,0.0,0.0,0.0,0.0,0.0,0.0,0.0,0.0,0.0,0.0,0.0,0.0,0.0,0.0,0.0,0.0,0.0,0.0,0.0,0.0,0.0,0.0,0.0,0.0,0.0,0.0,0.0,0.0,0.0,0.0,0.0,0.0,0.0,0.0,0.0,0.0,0.0,0.0,0.0,0.0,0.0,0.0,0.0,0.0,0.0,0.0,0.0,0.0,0.0,0.0,0.0,0.0,0.0,0.0,0.0,0.0,0.0,0.0,0.0,0.0,0.0,0.0,0.0,0.0,0.0,0.0,0.0,0.0,0.0,0.0,0.0,0.0,0.0,0.0,0.0,0.0,0.0,3.9722,3.9722,3.976,3.9772,3.9722,3.9202,3.8864,0.0,0.0,0.0,0.0,0.0,0.0,0.0,0.0,0.0,0.0,0.0,0.0,0.0,0.0,0.0,0.0,0.0,0.0,0.0,0.0,0.0,0.0,0.0,0.0,0.0,0.0,0.0,0.0,0.0,0.0,0.0,0.0,0.0,0.0,0.0,0.0,0.0,0.0,0.0,0.0,0.0,0.0,0.0,0.0,0.0,0.0,0.0,0.0,0.0,0.0,0.0,0.0,0.0,0.0,0.0,0.0,0.0,0.0,0.0,0.0,0.0,0.0,0.0,0.0,0.0,0.0,0.0,0.0,0.0,0.0,0.0,0.0,0.0,0.0,0.0,0.0,0.0,0.0,0.0,0.0,0.0,0.0,0.0,0.0,0.0,0.0,0.0,0.0,0.0,0.0,0.0,0.0,0.0,0.0,0.0,0.0,0.0,0.0,0.0,0.0,0.0,0.0,0.0,0.0,0.0,0.0,0.0,0.0,0.0,4.0261,4.0613,4.08,4.0787,4.0254,3.98,0.0,0.0,0.0,0.0,0.0,0.0,0.0,0.0,0.0,0.0,0.0,0.0,0.0,0.0,0.0,0.0,0.0,0.0,0.0,0.0,0.0,0.0,0.0,0.0,0.0,0.0,0.0,0.0,0.0,0.0,0.0,0.0,0.0,0.0,0.0,0.0,0.0,0.0,0.0,0.0,0.0,0.0,0.0,0.0,0.0,0.0,0.0,0.0,0.0,0.0,0.0,0.0,0.0,0.0,0.0,0.0,0.0,0.0,0.0,0.0,0.0,0.0,0.0,0.0,0.0,0.0,0.0,0.0,0.0,0.0,0.0,0.0,0.0,0.0,0.0,0.0,0.0,0.0,0.0,0.0,0.0,0.0,0.0,0.0,0.0,0.0,0.0,0.0,0.0,0.0,0.0,0.0,0.0,0.0,0.0,0.0,0.0,0.0,0.0,0.0,0.0,0.0,0.0,0.0,0.0,0.0,0.0,0.0,0.0,4.0787,4.0833,4.0854,4.0854,4.0317,3.9957,3.981,0.0,0.0,0.0,0.0,0.0,0.0,0.0,0.0,0.0,0.0,0.0,0.0,0.0,0.0,0.0,0.0,0.0,0.0,0.0,0.0,0.0,0.0,0.0,0.0,0.0,0.0,0.0,0.0,0.0,0.0,0.0,0.0,0.0,0.0,0.0,0.0,0.0,0.0,0.0,0.0,0.0,0.0,0.0,0.0,0.0,0.0,0.0,0.0,0.0,0.0,0.0,0.0,0.0,0.0,0.0,0.0,0.0,0.0,0.0,0.0,0.0,0.0,0.0,0.0,0.0,0.0,0.0,0.0,0.0,0.0,0.0,0.0,0.0,0.0,0.0,0.0,0.0,0.0,0.0,0.0,0.0,0.0,0.0,0.0,0.0,0.0,0.0,0.0,0.0,0.0,0.0,0.0,0.0,0.0,0.0,0.0,0.0,0.0,0.0,0.0,0.0,0.0,0.0,0.0,0.0,0.0,0.0,0.0,4.1274,4.0483,4.0103,4.0192,3.9619,3.9515,0.0,0.0,0.0,0.0,0.0,0.0,0.0,0.0,0.0,0.0,0.0,0.0,0.0,0.0,0.0,0.0,0.0,0.0,0.0,0.0,0.0,0.0,0.0,0.0,0.0,0.0,0.0,0.0,0.0,0.0,0.0,0.0,0.0,0.0,0.0,0.0,0.0,0.0,0.0,0.0,0.0,0.0,0.0,0.0,0.0,0.0,0.0,0.0,0.0,0.0,0.0,0.0,0.0,0.0,0.0,0.0,0.0,0.0,0.0,0.0,0.0,0.0,0.0,0.0,0.0,0.0,0.0,0.0,0.0,0.0,0.0,0.0,0.0,0.0,0.0,0.0,0.0,0.0,0.0,0.0,0.0,0.0,0.0,0.0,0.0,0.0,0.0,0.0,0.0,0.0,0.0,0.0,0.0,0.0,0.0,0.0,0.0,0.0,0.0,0.0,0.0,0.0,0.0,0.0,0.0,0.0,0.0,0.0,0.0,4.0681,3.992,3.9969,4.0916,4.0594,4.0379,0.0,0.0,0.0,0.0,0.0,0.0,0.0,0.0,0.0,0.0,0.0,0.0,0.0,0.0,0.0,0.0,0.0,0.0,0.0,0.0,0.0,0.0,0.0,0.0,0.0,0.0,0.0,0.0,0.0,0.0,0.0,0.0,0.0,0.0,0.0,0.0,0.0,0.0,0.0,0.0,0.0,0.0,0.0,0.0,0.0,0.0,0.0,0.0,0.0,0.0,0.0,0.0,0.0,0.0,0.0,0.0,0.0,0.0,0.0,0.0,0.0,0.0,0.0,0.0,0.0,0.0,0.0,0.0,0.0,0.0,0.0,0.0,0.0,0.0,0.0,0.0,0.0,0.0,0.0,0.0,0.0,0.0,0.0,0.0,0.0,0.0,0.0,0.0,0.0,0.0,0.0,0.0,0.0,0.0,0.0,0.0,0.0,0.0,0.0,0.0,0.0,0.0,0.0,0.0,0.0,0.0,0.0,0.0,4.0504,4.0501,3.9363,3.9216,4.0229,4.0266,4.0352,0.0,0.0,0.0,0.0,0.0,0.0,0.0,0.0,0.0,0.0,0.0,0.0,0.0,0.0,0.0,0.0,0.0,0.0,0.0,0.0,0.0,0.0,0.0,0.0,0.0,0.0,0.0,0.0,0.0,0.0,0.0,0.0,0.0,0.0,0.0,0.0,0.0,0.0,0.0,0.0,0.0,0.0,0.0,0.0,0.0,0.0,0.0,0.0,0.0,0.0,0.0,0.0,0.0,0.0,0.0,0.0,0.0,0.0,0.0,0.0,0.0,0.0,0.0,0.0,0.0,0.0,0.0,0.0,0.0,0.0,0.0,0.0,0.0,0.0,0.0,0.0,0.0,0.0,0.0,0.0,0.0,0.0,0.0,0.0,0.0,0.0,0.0,0.0,0.0,0.0,0.0,0.0,0.0,0.0,0.0,0.0,0.0,0.0,0.0,0.0,0.0,0.0,0.0,0.0,0.0,0.0,0.0,0.0,4.0138,4.0294,3.8835,3.8262,3.8708,3.9277,3.9839,0.0,0.0,0.0,0.0,0.0,0.0,0.0,0.0,0.0,0.0,0.0,0.0,0.0,0.0,0.0,0.0,0.0,0.0,0.0,0.0,0.0,0.0,0.0,0.0,0.0,0.0,0.0,0.0,0.0,0.0,0.0,0.0,0.0,0.0,0.0,0.0,0.0,0.0,0.0,0.0,0.0,0.0,0.0,0.0,0.0,0.0,0.0,0.0,0.0,0.0,0.0,0.0,0.0,0.0,0.0,0.0,0.0,0.0,0.0,0.0,0.0,0.0,0.0,0.0,0.0,0.0,0.0,0.0,0.0,0.0,0.0,0.0,0.0,0.0,0.0,0.0,0.0,0.0,0.0,0.0,0.0,0.0,0.0,0.0,0.0,0.0,0.0,0.0,0.0,0.0,0.0,0.0,0.0,0.0,0.0,0.0,0.0,0.0,0.0,0.0,0.0,0.0,0.0,0.0,0.0,0.0,0.0,0.0,3.9981,3.9188,3.8602,3.8251,3.8183,3.9086,3.9744,0.0,0.0,0.0,0.0,0.0,0.0,0.0,0.0,0.0,0.0,0.0,0.0,0.0,0.0,0.0,0.0,0.0,0.0,0.0,0.0,0.0,0.0,0.0,0.0,0.0,0.0,0.0,0.0,0.0,0.0,0.0,0.0,0.0,0.0,0.0,0.0,0.0,0.0,0.0,0.0,0.0,0.0,0.0,0.0,0.0,0.0,0.0,0.0,4.1827,0.0,0.0,0.0,0.0,0.0,0.0,0.0,0.0,0.0,0.0,0.0,0.0,0.0,0.0,0.0,0.0,0.0,0.0,0.0,0.0,0.0,0.0,0.0,0.0,0.0,0.0,0.0,0.0,0.0,0.0,0.0,0.0,0.0,0.0,0.0,0.0,0.0,0.0,0.0,0.0,0.0,0.0,0.0,0.0,0.0,0.0,0.0,0.0,0.0,0.0,0.0,0.0,0.0,0.0,0.0,0.0,0.0,0.0,0.0,3.966,3.8839,3.8396,3.8133,3.8024,3.8791,3.9413,0.0,0.0,0.0,0.0,0.0,0.0,0.0,0.0,0.0,0.0,0.0,0.0,0.0,0.0,0.0,0.0,0.0,0.0,0.0,0.0,0.0,0.0,0.0,0.0,0.0,0.0,0.0,0.0,0.0,0.0,0.0,0.0,0.0,0.0,0.0,0.0,0.0,0.0,0.0,0.0,0.0,0.0,0.0,0.0,0.0,0.0,0.0,0.0,0.0,0.0,0.0,0.0,0.0,0.0,0.0,0.0,0.0,0.0,0.0,0.0,0.0,0.0,0.0,0.0,0.0,0.0,0.0,0.0,0.0,0.0,0.0,0.0,0.0,0.0,0.0,0.0,0.0,0.0,0.0,0.0,0.0,0.0,0.0,0.0,0.0,0.0,0.0,0.0,0.0,0.0,0.0,0.0,0.0,0.0,0.0,0.0,0.0,0.0,0.0,0.0,0.0,0.0,0.0,0.0,0.0,0.0,0.0,4.0065,3.9434,3.8682,3.8292,3.8027,3.8011,3.8599,3.9152,3.9571,0.0,0.0,0.0,0.0,0.0,0.0,0.0,0.0,0.0,0.0,0.0,0.0,0.0,0.0,0.0,0.0,0.0,0.0,0.0,0.0,0.0,0.0,0.0,0.0,0.0,0.0,0.0,0.0,0.0,0.0,0.0,0.0,0.0,0.0,0.0,0.0,0.0,0.0,4.054,4.0999,0.0,0.0,0.0,0.0,0.0,0.0,0.0,0.0,4.3054,0.0,0.0,0.0,0.0,0.0,0.0,0.0,0.0,0.0,0.0,0.0,0.0,0.0,0.0,0.0,0.0,0.0,0.0,0.0,0.0,0.0,0.0,0.0,0.0,0.0,0.0,0.0,0.0,0.0,0.0,0.0,0.0,0.0,0.0,0.0,0.0,0.0,0.0,0.0,0.0,0.0,0.0,0.0,0.0,0.0,0.0,0.0,0.0,0.0,0.0,0.0,0.0,0.0,0.0,0.0,0.0,3.9823,4.0331,3.9799,3.8179,3.8271,3.8212,3.8024,3.896,3.9513,3.9595,0.0,0.0,0.0,0.0,0.0,0.0,0.0,0.0,0.0,0.0,0.0,0.0,0.0,0.0,0.0,0.0,0.0,0.0,0.0,0.0,0.0,0.0,0.0,0.0,0.0,0.0,0.0,0.0,0.0,0.0,0.0,0.0,0.0,0.0,0.0,0.0,0.0,0.0,0.0,4.1658,4.1899,0.0,0.0,0.0,0.0,0.0,0.0,0.0,0.0,4.4379,0.0,0.0,0.0,0.0,0.0,0.0,0.0,0.0,0.0,0.0,0.0,0.0,0.0,0.0,0.0,0.0,0.0,0.0,0.0,0.0,0.0,0.0,0.0,0.0,0.0,0.0,0.0,0.0,0.0,0.0,0.0,0.0,0.0,0.0,0.0,0.0,0.0,0.0,0.0,0.0,0.0,0.0,0.0,0.0,0.0,0.0,0.0,0.0,0.0,0.0,0.0,0.0,0.0,0.0,0.0,3.9647,3.9685,3.9192,3.8048,3.8143,3.8119,3.8011,3.9046,3.9609,0.0,0.0,0.0,0.0,0.0,0.0,0.0,0.0,0.0,0.0,0.0,0.0,0.0,0.0,0.0,0.0,0.0,0.0,0.0,0.0,0.0,0.0,0.0,0.0,0.0,0.0,0.0,0.0,0.0,0.0,0.0,0.0,0.0,0.0,0.0,0.0,0.0,0.0,0.0,0.0,4.2161,4.2306,4.241,0.0,0.0,0.0,0.0,0.0,0.0,4.4956,4.5037,0.0,0.0,0.0,0.0,0.0,0.0,0.0,0.0,0.0,0.0,0.0,0.0,0.0,0.0,0.0,0.0,0.0,0.0,0.0,0.0,0.0,0.0,0.0,0.0,0.0,0.0,0.0,0.0,0.0,0.0,0.0,0.0,0.0,0.0,0.0,0.0,0.0,0.0,0.0,0.0,0.0,0.0,0.0,0.0,0.0,0.0,0.0,0.0,0.0,0.0,0.0,0.0,0.0,0.0,0.0,3.9753,3.9235,3.8647,3.8035,3.8,3.8,3.8024,3.9248,3.9826,0.0,0.0,0.0,0.0,0.0,0.0,0.0,0.0,0.0,0.0,0.0,0.0,0.0,0.0,0.0,0.0,0.0,0.0,0.0,0.0,0.0,0.0,0.0,0.0,0.0,0.0,0.0,0.0,0.0,0.0,0.0,0.0,0.0,0.0,0.0,0.0,0.0,0.0,0.0,0.0,0.0,4.2821,4.293,4.3433,0.0,0.0,0.0,0.0,4.5686,4.5357,0.0,0.0,0.0,0.0,0.0,0.0,0.0,0.0,0.0,0.0,0.0,0.0,0.0,0.0,0.0,0.0,0.0,0.0,0.0,0.0,0.0,0.0,0.0,0.0,0.0,0.0,0.0,0.0,0.0,0.0,0.0,0.0,0.0,0.0,0.0,0.0,0.0,0.0,0.0,0.0,0.0,0.0,0.0,0.0,0.0,0.0,0.0,0.0,0.0,0.0,0.0,0.0,0.0,0.0,0.0,0.0,4.0306,3.9777,3.9032,3.8035,3.8,3.8,3.8024,3.996,4.0571,0.0,0.0,0.0,0.0,0.0,0.0,0.0,0.0,0.0,0.0,0.0,0.0,0.0,0.0,0.0,0.0,0.0,0.0,0.0,0.0,0.0,0.0,0.0,0.0,0.0,0.0,0.0,0.0,0.0,0.0,0.0,0.0,0.0,0.0,0.0,0.0,0.0,0.0,0.0,0.0,0.0,4.3738,4.3454,4.4268,4.4925,0.0,0.0,4.5133,4.5181,4.5133,0.0,0.0,0.0,0.0,0.0,0.0,0.0,0.0,0.0,0.0,0.0,0.0,0.0,0.0,0.0,0.0,0.0,0.0,0.0,0.0,0.0,0.0,0.0,0.0,0.0,0.0,0.0,0.0,0.0,0.0,0.0,0.0,0.0,0.0,0.0,0.0,0.0,0.0,0.0,0.0,0.0,0.0,0.0,0.0,0.0,0.0,0.0,0.0,0.0,0.0,0.0,0.0,0.0,0.0,0.0,4.0331,4.0355,3.9286,3.8599,3.8455,3.8441,3.8599,3.8912,4.0667,4.1283,0.0,0.0,0.0,0.0,0.0,0.0,0.0,0.0,0.0,0.0,0.0,0.0,0.0,0.0,0.0,0.0,0.0,0.0,0.0,0.0,0.0,0.0,0.0,0.0,0.0,0.0,0.0,0.0,0.0,0.0,0.0,0.0,0.0,0.0,0.0,0.0,0.0,0.0,0.0,0.0,0.0,0.0,4.3984,4.4869,0.0,0.0,0.0,4.6118,4.6423,0.0,0.0,0.0,0.0,0.0,0.0,0.0,0.0,0.0,0.0,0.0,0.0,0.0,0.0,0.0,0.0,0.0,0.0,0.0,0.0,0.0,0.0,0.0,0.0,0.0,0.0,0.0,0.0,0.0,0.0,0.0,0.0,0.0,0.0,0.0,0.0,0.0,0.0,0.0,0.0,0.0,0.0,0.0,0.0,0.0,0.0,0.0,0.0,0.0,0.0,0.0,0.0,0.0,0.0,0.0,0.0,0.0,4.0754,3.9238,3.8599,3.8994,3.8994,3.92,3.9609,4.1018,0.0,0.0,0.0,0.0,0.0,0.0,0.0,0.0,0.0,0.0,0.0,0.0,0.0,0.0,0.0,0.0,0.0,0.0,0.0,0.0,0.0,0.0,0.0,0.0,0.0,0.0,0.0,4.2299,0.0,0.0,0.0,0.0,0.0,0.0,0.0,0.0,0.0,0.0,0.0,0.0,0.0,0.0,4.4701,4.4538,4.5421,4.6014,0.0,0.0,4.6752,4.6896,4.5798,4.5301,0.0,0.0,0.0,0.0,0.0,0.0,0.0,0.0,0.0,0.0,0.0,0.0,0.0,0.0,0.0,0.0,0.0,0.0,0.0,0.0,0.0,0.0,0.0,0.0,0.0,0.0,0.0,0.0,0.0,0.0,0.0,0.0,0.0,0.0,0.0,0.0,0.0,0.0,0.0,0.0,0.0,0.0,0.0,0.0,0.0,0.0,0.0,0.0,0.0,0.0,0.0,0.0,0.0,0.0,0.0,4.1803,4.0306,3.9499,3.9547,3.9523,3.9561,3.9619,4.0667,4.1259,0.0,0.0,0.0,0.0,0.0,0.0,0.0,0.0,0.0,0.0,0.0,0.0,0.0,0.0,0.0,0.0,0.0,0.0,0.0,0.0,0.0,0.0,0.0,0.0,0.0,0.0,0.0,0.0,0.0,0.0,0.0,0.0,0.0,0.0,0.0,0.0,0.0,0.0,0.0,0.0,0.0,4.5421,4.5068,4.595,4.6303,0.0,0.0,4.6375,4.5421,4.4772,4.4917,4.6447,0.0,0.0,0.0,0.0,0.0,0.0,0.0,0.0,0.0,0.0,0.0,0.0,0.0,0.0,0.0,0.0,0.0,0.0,0.0,0.0,0.0,0.0,0.0,0.0,0.0,0.0,0.0,0.0,0.0,0.0,0.0,0.0,0.0,0.0,0.0,0.0,0.0,0.0,0.0,0.0,0.0,0.0,0.0,0.0,0.0,0.0,0.0,0.0,0.0,0.0,0.0,0.0,0.0,4.1259,4.1971,4.0427,3.9777,4.0066,4.009,4.0234,4.0571,4.1307,4.1981,0.0,0.0,0.0,0.0,0.0,0.0,0.0,0.0,0.0,0.0,0.0,0.0,0.0,0.0,0.0,0.0,0.0,0.0,0.0,0.0,0.0,0.0,0.0,0.0,0.0,0.0,0.0,0.0,4.3515,4.3643,4.3993,0.0,0.0,0.0,0.0,0.0,0.0,0.0,0.0,0.0,0.0,4.5486,4.5156,4.5734,0.0,0.0,4.6231,4.6663,4.6591,4.6134,4.6206,4.7497,4.7521,0.0,0.0,0.0,0.0,0.0,0.0,0.0,0.0,0.0,0.0,0.0,0.0,0.0,0.0,0.0,0.0,0.0,0.0,0.0,0.0,0.0,0.0,0.0,0.0,0.0,0.0,0.0,0.0,0.0,0.0,0.0,0.0,0.0,0.0,0.0,0.0,0.0,0.0,0.0,0.0,0.0,0.0,0.0,0.0,0.0,0.0,0.0,0.0,0.0,0.0,0.0,0.0,4.1764,4.2438,4.0884,4.0272,4.0633,4.0633,4.0826,4.1187,4.1562,4.2173,0.0,0.0,0.0,0.0,0.0,0.0,0.0,0.0,0.0,0.0,0.0,0.0,0.0,0.0,0.0,0.0,0.0,0.0,0.0,0.0,0.0,0.0,0.0,0.0,0.0,0.0,0.0,0.0,4.3873,4.4091,4.4244,0.0,0.0,0.0,0.0,0.0,0.0,0.0,0.0,0.0,0.0,4.5473,4.5549,4.6022,4.6359,4.6375,4.6968,4.7449,4.7497,4.7185,4.7305,4.8363,0.0,0.0,0.0,0.0,0.0,0.0,0.0,0.0,0.0,0.0,0.0,0.0,0.0,0.0,0.0,0.0,0.0,0.0,0.0,0.0,0.0,0.0,0.0,0.0,0.0,0.0,0.0,0.0,0.0,0.0,0.0,0.0,0.0,0.0,0.0,0.0,0.0,0.0,0.0,0.0,0.0,0.0,0.0,0.0,0.0,0.0,0.0,0.0,0.0,0.0,0.0,0.0,0.0,4.2462,4.3418,4.1908,4.1163,4.1187,4.1187,4.1187,4.1211,4.1211,4.149,4.2043,0.0,0.0,0.0,0.0,0.0,0.0,0.0,0.0,0.0,0.0,0.0,0.0,0.0,0.0,0.0,0.0,0.0,0.0,0.0,0.0,0.0,0.0,0.0,0.0,0.0,0.0,4.4432,4.448,4.4455,0.0,0.0,0.0,0.0,0.0,0.0,0.0,0.0,0.0,0.0,4.5651,4.5509,4.6519,4.7136,4.7449,4.7449,4.8332,4.8693,4.7714,4.7562,4.7858,0.0,0.0,0.0,0.0,0.0,0.0,0.0,0.0,0.0,0.0,0.0,0.0,0.0,0.0,0.0,0.0,0.0,0.0,0.0,0.0,0.0,0.0,0.0,0.0,0.0,0.0,0.0,4.2096,4.2409,0.0,0.0,0.0,0.0,0.0,0.0,0.0,0.0,0.0,0.0,0.0,4.2603,4.2806,0.0,0.0,0.0,0.0,0.0,0.0,0.0,0.0,0.0,0.0,0.0,0.0,4.2847,4.337,4.1966,4.1211,4.1211,4.1211,4.1211,4.1211,4.1211,4.1466,4.1981,0.0,0.0,0.0,0.0,0.0,0.0,0.0,0.0,0.0,0.0,0.0,0.0,0.0,0.0,0.0,0.0,0.0,0.0,0.0,0.0,0.0,0.0,0.0,0.0,0.0,4.4798,0.0,0.0,0.0,0.0,0.0,0.0,0.0,0.0,0.0,0.0,0.0,4.6585,4.6601,4.6961,4.7233,4.7216,4.7706,4.7906,0.0,0.0,0.0,0.0,0.0,0.0,0.0,0.0,0.0,0.0,0.0,0.0,0.0,0.0,5.0738,5.0033,5.0057,5.016,5.0184,0.0,0.0,0.0,0.0,0.0,0.0,0.0,0.0,0.0,0.0,0.0,0.0,0.0,0.0,0.0,0.0,4.3115,0.0,0.0,0.0,0.0,0.0,0.0,0.0,0.0,4.2891,4.2588,4.2273,4.2638,4.2693,0.0,4.2886,4.2997,0.0,0.0,0.0,0.0,0.0,0.0,0.0,0.0,4.3649,4.4235,4.263,4.1755,4.174,4.174,4.1755,4.1755,4.174,4.1908,4.226,4.3241,4.3802,0.0,0.0,0.0,0.0,0.0,0.0,0.0,0.0,0.0,0.0,0.0,0.0,0.0,0.0,0.0,0.0,0.0,0.0,0.0,0.0,0.0,0.0,0.0,4.5134,0.0,0.0,0.0,0.0,0.0,0.0,0.0,0.0,0.0,4.6254,4.6665,4.692,4.6711,4.7617,4.8291,4.8332,0.0,0.0,0.0,0.0,0.0,0.0,0.0,5.1345,5.17,5.1435,5.1129,5.1026,5.0689,5.0641,5.1171,0.0,0.0,5.0858,5.1026,5.1267,5.1243,5.1826,5.2307,5.2283,5.2572,5.2812,0.0,0.0,0.0,0.0,0.0,0.0,0.0,0.0,4.2021,4.2299,0.0,4.3402,0.0,0.0,0.0,0.0,0.0,0.0,0.0,0.0,4.1304,4.1018,4.1971,4.2491,4.2477,4.2091,4.3045,4.3262,4.2789,4.2284,0.0,0.0,0.0,0.0,0.0,0.0,4.4829,4.5702,4.3785,4.2789,4.2765,4.2765,4.278,4.2765,4.2765,4.2765,4.2813,4.3706,4.3826,4.2934,4.4732,0.0,0.0,0.0,0.0,0.0,0.0,0.0,0.0,0.0,0.0,0.0,0.0,0.0,0.0,0.0,0.0,0.0,0.0,0.0,0.0,4.5322,0.0,0.0,0.0,0.0,0.0,0.0,0.0,0.0,0.0,0.0,4.6295,4.6976,4.7409,4.6928,0.0,0.0,0.0,0.0,5.049,5.194,5.2229,5.2205,5.2157,5.1369,5.0768,5.0792,0.0,0.0,5.1267,5.2325,5.3023,5.3587,5.2836,5.2301,5.2301,5.2908,5.3515,5.3539,5.3558,5.3731,5.3755,5.3635,5.3731,4.1756,0.0,0.0,0.0,0.0,4.2838,4.3025,4.3098,4.3263,4.3553,4.394,4.4213,0.0,0.0,0.0,0.0,0.0,0.0,4.3286,4.2603,4.2258,4.1875,4.1427,4.1586,4.1779,4.2019,4.2308,4.2573,4.278,4.2645,4.3265,4.4644,0.0,0.0,0.0,0.0,4.4845,4.47,4.3472,4.2789,4.2789,4.2789,4.2789,4.2789,4.2789,4.2789,4.2804,4.3063,4.3433,4.385,4.4051,0.0,0.0,0.0,0.0,0.0,0.0,0.0,0.0,0.0,0.0,0.0,0.0,0.0,0.0,0.0,0.0,0.0,0.0,0.0,4.6874,4.6183,4.6094,0.0,0.0,0.0,0.0,0.0,0.0,0.0,0.0,0.0,4.826,4.9109,4.9734,0.0,0.0,5.1267,5.1555,5.1291,5.1074,5.1153,0.0,0.0,0.0,5.0978,5.1411,5.1772,5.158,5.1531,5.1989,5.1682,5.1562,5.2091,5.2253,5.2397,5.2758,5.2446,5.2211,5.2211,5.2758,5.3288,5.3312,5.3534,5.3803,4.1517,4.1895,4.2311,4.2512,4.2551,4.285,4.2936,4.2822,4.3076,4.3352,4.3664,4.4102,4.4102,4.3826,4.4473,0.0,0.0,0.0,4.3143,4.2146,4.2398,4.214,4.1548,4.173,4.1995,4.2308,4.2323,4.2491,4.2828,4.3424,4.4178,4.5085,0.0,0.0,4.6663,4.5654,4.5061,4.4893,4.3899,4.3409,4.3385,4.3385,4.3385,4.3409,4.34,4.3385,4.34,4.3385,4.3562,4.394,4.4075,4.4403,0.0,0.0,0.0,0.0,0.0,0.0,0.0,0.0,0.0,0.0,0.0,4.3649,4.4268,0.0,0.0,0.0,4.599,4.6952,4.8043,4.7738,0.0,0.0,0.0,0.0,0.0,0.0,0.0,4.9383,4.9793,5.004,5.0081,5.06,5.0792,5.0143,5.1153,5.1916,5.1682,0.0,5.1387,5.1056,5.1201,5.1291,5.1188,5.1363,5.1537,5.1652,5.1844,5.2085,5.2253,5.1916,5.1826,5.2307,5.2668,5.298,5.3336,5.271,5.2205,5.2379,5.2908,5.3293,5.3143,5.3336,5.3461,4.1414,4.1528,4.2559,4.2964,4.2939,4.2989,4.2409,4.149,4.2046,4.2274,4.235,4.3274,4.3697,4.369,4.4489,0.0,0.0,4.3272,4.2701,4.1709,4.1958,4.2067,4.2091,4.2549,4.2828,4.2837,4.2876,4.2886,4.2982,4.4331,4.5109,4.5213,4.4733,4.5253,4.6615,4.583,4.5541,4.5894,4.4973,4.442,4.43,4.4316,4.4316,4.4316,4.4316,4.43,4.4316,4.43,4.4075,4.3634,4.4508,4.4604,4.373,0.0,0.0,0.0,0.0,0.0,0.0,0.0,0.0,0.0,0.0,0.0,0.0,0.0,0.0,0.0,4.6687,0.0,4.8813,4.9432,0.0,0.0,0.0,4.9576,4.8579,4.9366,4.9985,5.0009,0.0,0.0,0.0,0.0,5.0882,4.9414,5.0545,5.1321,5.0888,5.1267,5.1507,5.1483,5.1868,5.2301,5.2422,5.2037,5.1531,5.1201,5.1321,5.1946,5.2397,5.2734,5.324,5.3515,5.3683,5.3635,5.3659,5.3215,5.3167,5.3467,5.3611,5.3491,5.3095,5.2999,5.2903,4.2585,4.261,4.2875,4.2763,4.2439,4.2838,4.285,4.2624,4.2738,4.2813,4.2811,4.2809,4.2683,4.2531,4.314,4.3128,4.2636,4.2845,4.2803,4.2532,4.2593,4.2612,4.2636,4.2756,4.2982,4.3328,4.3337,4.3553,4.3931,4.4316,4.5109,4.6255,4.6206,4.6519,4.7281,4.7473,4.7,4.5902,4.6062,4.5517,4.4364,4.4316,4.4316,4.4316,4.4316,4.4316,4.4316,4.4316,4.4228,4.4132,4.4348,4.4565,4.4724,4.5061,0.0,0.0,0.0,0.0,0.0,0.0,0.0,0.0,0.0,4.6303,4.6728,0.0,4.8428,0.0,4.7762,4.7449,4.7281,4.8139,0.0,0.0,5.0112,5.0407,5.0167,5.0359,5.0672,5.1074,5.0984,5.1032,5.1459,5.1171,5.0768,5.0401,5.1002,5.1586,5.1844,5.1676,5.1507,5.1507,5.1297,5.1129,5.1345,5.1796,5.2181,5.247,5.2927,5.3299,5.3413,5.3221,5.3162,5.3215,5.2927,5.271,5.2686,5.2542,5.2518,5.2638,5.2662,5.2638,5.2518,5.2494,5.2446,4.3,4.3025,4.3097,4.3226,4.339,4.3106,4.3,4.3,4.3,4.3042,4.3137,4.3073,4.2943,4.2819,4.2968,4.293,4.2768,4.2779,4.2789,4.2828,4.303,4.3111,4.3111,4.3361,4.361,4.3859,4.3875,4.4003,4.43,4.4541,4.5133,4.599,4.6231,4.6735,4.7497,4.8267,4.8211,4.7336,4.7161,4.6383,4.5085,4.5013,4.5253,4.571,4.5734,4.595,4.6423,4.6447,4.6447,4.6447,4.6423,4.6447,4.6519,4.6776,4.68,0.0,0.0,0.0,0.0,0.0,0.0,0.0,0.0,0.0,0.0,0.0,4.9294,0.0,4.8837,0.0,4.9133,4.9751,5.0136,5.0256,5.0738,5.0864,5.0401,5.0551,5.0816,5.1105,5.0888,5.0816,5.1122,5.0888,5.0792,5.1032,5.1315,5.1513,5.1604,5.17,5.1754,5.1513,5.1441,5.1417,5.1435,5.1916,5.2416,5.2686,5.2975,5.3125,5.3125,5.2927,5.2753,5.2729,5.2494,5.2301,5.2301,5.2085,5.1964,5.1916,5.1748,5.17,5.1874,5.1922,5.1892,4.3215,4.3237,4.3358,4.396,4.4705,4.3576,4.325,4.3501,4.3501,4.3476,4.3492,4.3634,4.3649,4.3585,4.3407,4.3273,4.3253,4.3063,4.3006,4.303,4.3409,4.361,4.3649,4.4148,4.4396,4.4396,4.4468,4.4501,4.4517,4.4989,4.5301,4.5517,4.599,4.6759,4.7906,4.8837,4.927,4.9215,4.8163,4.7161,4.6231,4.6351,4.6872,4.7738,4.7738,4.8122,4.9053,4.9102,4.9102,4.9102,4.9102,4.8813,4.826,4.8717,4.8524,0.0,4.7923,0.0,0.0,0.0,0.0,0.0,0.0,0.0,0.0,4.8098,4.9638,5.0527,4.9823,5.0009,5.1652,5.1916,5.158,5.0648,5.1032,5.1002,5.004,5.0359,5.072,5.0792,5.0744,5.0702,5.0936,5.0864,5.0984,5.1387,5.158,5.1465,5.1032,5.17,5.2109,5.1652,5.1989,5.2181,5.2205,5.2253,5.2301,5.2301,5.2373,5.2301,5.2349,5.2271,5.2205,5.2181,5.2109,5.2061,5.2181,5.1802,5.158,5.1652,5.1345,5.1153,5.1345,5.1507,5.1321,4.4303,4.4274,4.4095,4.4153,4.4287,4.3785,4.4531,4.6087,4.6087,4.55,4.4482,4.3948,4.3428,4.3007,4.3593,4.3702,4.3469,4.3842,4.4003,4.4027,4.4124,4.4132,4.4196,4.4685,4.4949,4.4973,4.5397,4.559,4.559,4.5686,4.6423,4.7666,4.7802,4.8603,5.0005,0.0,0.0,0.0,4.8693,4.8067,4.7882,4.8693,4.9222,4.9414,4.9029,0.0,4.9078,4.9102,4.9102,4.9102,4.9102,0.0,0.0,0.0,0.0,0.0,0.0,0.0,0.0,0.0,0.0,0.0,4.9325,4.9565,4.805,4.9438,5.0287,5.0064,5.0239,5.004,4.9174,4.9865,5.0105,4.9535,5.0263,5.0617,5.0009,5.0401,5.0864,5.1297,5.0984,5.1032,5.1772,5.1628,5.1369,5.1489,5.1892,5.1916,5.1435,5.1892,5.2229,5.2199,5.2205,5.2277,5.2301,5.2277,5.2205,5.2301,5.2301,5.2277,5.2253,5.194,5.1676,5.17,5.1297,5.1201,5.1604,5.1537,5.1652,5.2061,5.2037,5.1754,5.1032,5.1201,5.1465,4.4589,0.0,4.4417,4.4645,0.0,4.4878,4.5684,4.707,4.5817,4.4955,4.4397,4.4114,4.3826,4.3601,4.4791,4.5258,4.5149,4.6447,4.6639,4.5902,4.6142,4.587,4.5093,4.5373,4.5493,4.5493,4.5758,4.5902,4.5902,4.6158,4.6711,4.7497,4.7762,4.8315,4.9084,4.9109,4.9229,4.9504,4.8957,4.8435,4.7954,4.8428,4.8957,4.948,0.0,0.0,0.0,0.0,0.0,0.0,0.0,0.0,0.0,0.0,0.0,4.7954,4.8139,4.805,4.7569,4.8002,4.8171,4.7954,4.9133,4.9782,4.9493,4.9517,4.9631,4.9871,4.992,4.9782,4.9541,4.9727,4.9895,4.992,5.0383,5.0672,5.0713,5.093,5.1297,5.1772,5.1652,5.1652,5.1868,5.194,5.1772,5.1562,5.1964,5.2181,5.1989,5.2133,5.2301,5.2277,5.2037,5.1898,5.1874,5.1652,5.1513,5.1531,5.1724,5.1892,5.1916,5.1916,5.1892,5.1892,5.1676,5.1586,5.182,5.1892,5.1989,5.2229,5.2301,5.2157,5.1586,5.17,5.1892,4.4861,4.4809,4.4793,4.523,4.5995,4.5932,4.6399,4.7073,0.0,0.0,0.0,4.4424,4.4444,4.4556,4.5926,4.6567,4.6663,4.838,4.8476,4.7257,4.7666,4.7185,4.5926,4.5998,4.6022,4.6022,4.6134,4.6182,4.6206,4.6615,4.6832,4.688,4.7305,4.7497,4.7497,4.7497,4.793,4.8789,4.9102,4.8813,4.7971,4.8098,4.862,4.9511,4.9438,4.9799,5.0672,5.0678,5.0678,5.0678,5.0678,5.0407,4.9817,4.9769,4.9511,4.9005,4.8957,4.8596,4.7851,4.8187,4.8308,4.793,4.8644,4.9493,5.0479,4.9342,4.8981,4.9944,4.9631,4.9751,5.0582,5.0329,5.0208,5.0672,5.0792,5.1008,5.1435,5.1507,5.17,5.2181,5.2157,5.2061,5.1748,5.2037,5.2109,5.1682,5.1868,5.2157,5.2157,5.2109,5.2061,5.1916,5.1658,5.1531,5.1483,5.1345,5.0984,5.1177,5.1441,5.1628,5.17,5.2013,5.2277,5.2271,5.2301,5.2325,5.2397,5.2446,5.247,5.2542,5.2548,5.2548,5.2548,5.2566,5.2566,4.5895,4.5643,4.5798,4.5793,4.5667,4.5821,4.5974,4.6086,4.5749,4.5605,4.5621,4.5173,4.4973,4.5021,4.571,4.5998,4.6022,4.6327,4.6327,0.0,4.619,4.611,4.5926,4.6375,4.6591,4.6615,4.7048,4.7264,4.7281,4.7336,4.7401,4.7401,4.7473,4.7497,4.7497,4.7497,4.7569,4.7762,4.9078,4.972,4.96,5.0449,5.0984,5.1129,5.0672,5.0527,5.0696,5.0654,5.0678,5.0678,5.0678,5.0239,4.9311,4.9222,4.8957,4.8476,4.8428,4.8548,4.8861,4.8957,4.915,4.9504,4.927,4.9366,4.992,4.9817,4.992,5.0521,5.0455,5.0527,5.0696,5.06,5.0551,5.0744,5.1087,5.1417,5.1489,5.1507,5.1706,5.2229,5.1892,5.182,5.2061,5.2205,5.2061,5.1634,5.1586,5.1652,5.1724,5.161,5.1417,5.1105,5.1273,5.1483,5.158,5.185,5.194,5.2085,5.2109,5.2181,5.2181,5.2325,5.2422,5.2325,5.2422,5.2542,5.2879,5.2975,5.3119,5.3389,5.3491,5.3539,5.3534,5.3582,5.3467,4.6557,4.6396,4.6289,4.6191,4.6017,4.5942,4.5902,4.5902,4.5902,4.5902,4.5878,4.5638,4.5541,4.5638,4.6687,4.7209,4.724,4.8394,4.8466,4.769,4.7947,4.7617,4.6848,4.7024,4.712,4.7144,4.7377,4.7497,4.7521,4.7786,4.7947,4.7971,4.8211,4.838,4.838,4.838,4.838,4.838,4.8524,4.8596,4.862,4.9078,4.9325,4.9325,4.9084,4.8964,4.8964,4.8964,4.9109,4.9397,4.9397,4.9318,4.9126,4.9102,4.8981,4.8741,4.8741,4.8837,4.9078,4.9383,4.9751,5.028,5.0112,5.0088,5.0329,5.0329,5.0431,5.0672,5.0431,5.0521,5.1032,5.06,5.0497,5.1081,5.1129,5.1177,5.1459,5.1507,5.1706,5.2181,5.2109,5.194,5.1868,5.1868,5.1676,5.1201,5.1273,5.1586,5.1892,5.194,5.1868,5.1652,5.1778,5.1916,5.1964,5.2133,5.2277,5.2301,5.2542,5.2686,5.2758,5.2903,5.3077,5.3101,5.3101,5.3197,5.3461,5.3485,5.3606,5.3707,5.4068,5.4188,5.4236,5.4447,5.4471,4.6849,4.6754,4.6647,4.6608,4.6625,4.6368,4.6238,4.6279,4.6262,4.6255,4.6255,4.6158,4.6086,4.6231,4.7521,4.8098,4.8339,4.983,4.9902,4.8861,4.915,4.8693,4.7593,4.7497,4.7569,4.7649,4.769,4.7754,4.7882,4.8284,4.8476,4.8507,4.8885,4.9102,4.9102,4.9102,4.9102,4.9053,4.8284,4.7858,4.7875,4.7858,4.7882,4.7858,4.7882,4.7875,4.7858,4.7858,4.805,4.8452,4.8476,4.8652,4.9053,4.9102,4.915,4.9246,4.927,4.9342,4.9462,4.972,5.0136,5.0648,5.0678,5.0678,5.072,5.0816,5.0816,5.0672,5.0335,5.0449,5.1008,5.0617,5.0473,5.1345,5.1129,5.1135,5.1562,5.1604,5.1652,5.2037,5.2013,5.1754,5.1604,5.1507,5.1435,5.1297,5.1417,5.185,5.2349,5.247,5.2475,5.2572,5.2566,5.2494,5.2512,5.2614,5.2686,5.262,5.2975,5.3215,5.3312,5.3582,5.3755,5.3731,5.3755,5.3803,5.3924,5.3972,5.4044,5.4212,5.4568,5.4784,5.4808,5.5049,5.5241,4.6731,4.6526,4.6948,4.7231,4.7371,4.7345,4.7288,4.7329,4.7353,4.7336,4.724,4.6832,4.6615,4.6711,4.7329,4.7593,4.7617,4.7786,4.7834,4.7738,4.769,4.7642,4.7545,4.7521,4.7762,4.8187,4.8219,4.8452,4.8861,4.8981,4.9029,4.9029,4.9078,4.915,4.9126,4.9126,4.9126,4.9102,4.9005,4.8957,4.8957,4.8974,4.8933,4.8933,4.8933,4.8957,4.8885,4.8957,4.8981,4.9022,4.9029,4.9071,4.9102,4.9126,4.9318,4.9793,4.9817,5.0016,5.0455,5.0154,5.016,5.0624,5.0702,5.0702,5.072,5.1129,5.1201,5.0816,5.0648,5.0672,5.0768,5.0672,5.0834,5.1387,5.1393,5.1652,5.1989,5.1796,5.1531,5.158,5.1345,5.0991,5.1507,5.158,5.1706,5.2037,5.2133,5.2422,5.2903,5.3023,5.3125,5.3413,5.3317,5.3066,5.3066,5.3389,5.3467,5.3563,5.3659,5.3702,5.3683,5.3707,5.3827,5.3948,5.3875,5.402,5.4399,5.4544,5.4688,5.4928,5.5169,5.5337,5.5313,5.5458,5.5458,4.7174,4.7084,4.7302,4.7437,4.7473,4.7497,4.7497,4.7497,4.7497,4.7497,4.7457,4.7281,4.7168,4.7168,4.7425,4.7497,4.7497,4.7497,4.7497,4.7545,4.7827,4.7954,4.8002,4.8308,4.8572,4.8782,4.8748,4.8885,4.9126,4.9432,4.9727,4.9998,5.0046,5.0046,5.0046,5.0046,5.0046,5.0046,5.0046,5.0046,4.9968,4.9414,4.9102,4.9102,4.9102,4.9102,4.9102,4.9102,4.9246,4.9552,4.9559,4.9703,5.0022,5.0022,5.016,5.0335,5.0377,5.0617,5.1129,5.0954,5.0954,5.1153,5.1177,5.1032,5.0744,5.0912,5.0936,5.075,5.0702,5.0816,5.1081,5.0888,5.0912,5.1345,5.1225,5.1249,5.1748,5.1652,5.1604,5.1892,5.1796,5.17,5.1916,5.1989,5.2205,5.2656,5.2782,5.2975,5.3413,5.351,5.3606,5.3707,5.363,5.3534,5.351,5.3635,5.3779,5.3803,5.3803,5.3803,5.3827,5.3803,5.3875,5.4188,5.426,5.4477,5.4977,5.5049,5.5169,5.5482,5.5794,5.5943,5.6256,5.6328,5.6328,4.7497,4.7497,4.7497,4.7497,4.7497,4.7497,4.7497,4.7497,4.7497,4.7497,4.7497,4.7497,4.7593,4.769,4.7569,4.7497,4.7521,4.7666,4.7714,4.7786,4.8284,4.8524,4.8572,4.8909,4.9191,4.9311,4.9335,4.939,4.9559,4.992,5.0329,5.063,5.0678,5.0678,5.0678,5.0678,5.0678,5.0678,5.0678,5.0678,5.06,4.9944,4.9535,4.9535,4.9535,4.9535,4.9535,4.9535,4.9703,5.0105,5.0112,5.0304,5.0672,5.0678,5.0678,5.072,5.084,5.1008,5.1291,5.1291,5.1291,5.1273,5.1393,5.1273,5.0864,5.084,5.0912,5.0936,5.0912,5.1081,5.1153,5.1056,5.1105,5.1417,5.1225,5.1321,5.1682,5.1724,5.1874,5.2229,5.2229,5.2373,5.2494,5.2662,5.2903,5.3215,5.3288,5.3384,5.3707,5.3779,5.3803,5.3803,5.3803,5.3803,5.3803,5.3803,5.3803,5.3851,5.3875,5.4068,5.4044,5.4116,5.4284,5.4784,5.4808,5.5005,5.5462,5.5606,5.5703,5.5847,5.6135,5.652,5.6784,5.6953,5.6977,4.7497,4.7497,4.7497,4.7497,4.7497,4.7497,4.7481,4.7545,4.7521,4.7521,4.7569,4.7569,4.7827,4.8236,4.7786,4.7545,4.7593,4.805,4.826,4.8332,4.8813,4.9053,4.9078,4.9102,4.939,4.9823,4.9865,5.0088,5.0527,5.0624,5.0672,5.0678,5.0678,5.0678,5.0678,5.0678,5.0678,5.0678,5.0678,5.0678,5.0678,5.0624,5.0551,5.0527,5.0582,5.0534,5.0576,5.0624,5.0624,5.0665,5.0648,5.0696,5.0678,5.0678,5.0678,5.0726,5.1153,5.1225,5.0864,5.084,5.0798,5.0864,5.1297,5.1297,5.0888,5.1201,5.1459,5.1441,5.1441,5.1321,5.1008,5.1297,5.1483,5.1562,5.194,5.2133,5.2253,5.2253,5.2277,5.2373,5.2446,5.2638,5.3017,5.3461,5.3587,5.3707,5.3731,5.3755,5.3755,5.3803,5.3803,5.3827,5.3827,5.3803,5.3827,5.3924,5.39,5.3996,5.4284,5.4549,5.4717,5.4928,5.5145,5.5337,5.5361,5.5558,5.5991,5.6256,5.638,5.6544,5.6664,5.6977,5.7169,5.7049,5.7145,4.7497,4.7497,4.7497,4.7497,4.7497,4.7497,4.769,4.7978,4.8002,4.8211,4.85,4.8524,4.8644,4.8789,4.862,4.8524,4.8548,4.8741,4.8796,4.8861,4.9359,4.9607,4.9631,4.9944,5.0191,5.0383,5.0407,5.0521,5.0672,5.0678,5.0678,5.0678,5.0678,5.0678,5.0678,5.0678,5.0678,5.0678,5.0678,5.0678,5.0678,5.0678,5.0678,5.0678,5.0678,5.0678,5.0678,5.1008,5.1056,5.0702,5.1008,5.1056,5.0744,5.0678,5.0678,5.072,5.0888,5.1056,5.1177,5.1201,5.1201,5.1249,5.1724,5.1754,5.1417,5.17,5.2013,5.2013,5.2013,5.1892,5.1802,5.1916,5.2013,5.2037,5.2181,5.247,5.271,5.2806,5.2927,5.3173,5.3269,5.3365,5.3461,5.3683,5.3803,5.3803,5.3803,5.3803,5.3803,5.3803,5.3827,5.3875,5.4068,5.4327,5.4308,5.4327,5.4351,5.4496,5.4712,5.5001,5.5217,5.5313,5.5482,5.5866,5.5919,5.6063,5.6472,5.6712,5.6881,5.6929,5.7073,5.7361,5.7458,5.7482,5.7674,4.8002,4.8019,4.8026,4.8002,4.8043,4.8043,4.8219,4.8548,4.8572,4.8765,4.9053,4.9102,4.9174,4.9335,4.9383,4.948,4.9583,4.9438,4.9359,4.939,4.9937,5.016,5.0208,5.0527,5.0678,5.0678,5.0678,5.0678,5.0678,5.0678,5.0678,5.0678,5.0678,5.0678,5.0678,5.0678,5.0678,5.0678,5.0678,5.0678,5.0678,5.0678,5.0678,5.0678,5.0678,5.0678,5.0702,5.1056,5.1081,5.0816,5.1056,5.1081,5.0744,5.0864,5.0882,5.0744,5.0888,5.1105,5.1435,5.1507,5.158,5.173,5.2061,5.2133,5.182,5.2085,5.2349,5.2494,5.2542,5.259,5.2758,5.2806,5.2716,5.2638,5.2686,5.2908,5.3264,5.3336,5.3461,5.3659,5.3731,5.3779,5.3803,5.3803,5.3803,5.3803,5.3803,5.3803,5.3803,5.3972,5.4044,5.4092,5.4544,5.4784,5.4952,5.5049,5.4977,5.5073,5.5294,5.5554,5.5698,5.577,5.5938,5.6304,5.652,5.6664,5.6857,5.7141,5.7217,5.7241,5.7578,5.7935,5.8007,5.8055,5.8223,4.9053,4.9005,4.9078,4.8981,4.8957,4.8957,4.9053,4.9102,4.9102,4.9174,4.9318,4.9198,4.9511,4.9841,4.9913,5.016,5.0407,5.0088,4.9895,4.9961,5.0407,5.0648,5.063,5.0672,5.0678,5.0678,5.0678,5.0678,5.0678,5.0678,5.0678,5.0678,5.0678,5.0678,5.0678,5.0678,5.0678,5.0678,5.0678,5.0702,5.0702,5.075,5.0798,5.0816,5.084,5.084,5.0774,5.0792,5.0816,5.0744,5.0768,5.0702,5.0792,5.1153,5.1249,5.0936,5.1201,5.1489,5.1537,5.158,5.182,5.2133,5.2301,5.2373,5.2349,5.2397,5.2638,5.2999,5.3095,5.324,5.3587,5.3659,5.351,5.3215,5.3389,5.3635,5.3707,5.3779,5.3803,5.3803,5.3803,5.3803,5.3803,5.3803,5.3827,5.39,5.39,5.3972,5.4068,5.438,5.4568,5.4688,5.5025,5.5385,5.5602,5.5794,5.5698,5.5674,5.5943,5.6207,5.628,5.6352,5.6492,5.676,5.676,5.6905,5.7169,5.7409,5.765,5.7794,5.8175,5.844,5.8536,5.8608,5.8701,4.9102,4.9102,4.9102,4.9102,4.9102,4.9102,4.9311,4.9631,4.9648,4.9847,5.0143,5.0191,5.0304,5.0425,5.0455,5.0551,5.0672,5.0503,5.0449,5.0455,5.0624,5.0678,5.0678,5.0678,5.0678,5.0678,5.0678,5.0678,5.0678,5.0678,5.0678,5.0678,5.0678,5.0678,5.0678,5.0678,5.0678,5.0678,5.0678,5.0864,5.1219,5.1249,5.1417,5.1772,5.1796,5.1796,5.1778,5.1441,5.1081,5.075,5.1056,5.1081,5.0888,5.1219,5.1411,5.1363,5.1748,5.2043,5.2037,5.2061,5.2091,5.2325,5.2656,5.2825,5.2879,5.3125,5.3365,5.3558,5.3582,5.3659,5.3755,5.3803,5.3731,5.3606,5.3726,5.3827,5.3851,5.3827,5.3803,5.3803,5.3803,5.3803,5.3827,5.3827,5.402,5.4284,5.4351,5.4428,5.4808,5.4977,5.5145,5.5193,5.5626,5.5963,5.6087,5.6256,5.6347,5.6251,5.6448,5.6592,5.6688,5.6765,5.6929,5.7097,5.7073,5.7217,5.7482,5.777,5.8079,5.8295,5.8536,5.88,5.9041,5.9182,5.9254,4.9703,4.9703,4.9703,4.9703,4.9703,4.9703,4.9871,5.016,5.0184,5.0401,5.063,5.0678,5.0678,5.0678,5.0678,5.0678,5.0678,5.0678,5.0678,5.0678,5.0678,5.0678,5.0678,5.0678,5.0678,5.0678,5.0678,5.0678,5.0678,5.0678,5.0678,5.0678,5.0678,5.0678,5.0726,5.0912,5.1008,5.1032,5.1201,5.1441,5.1724,5.1796,5.1964,5.2253,5.2301,5.2301,5.2277,5.1964,5.1652,5.1393,5.161,5.1586,5.1363,5.1628,5.1796,5.1868,5.2085,5.2373,5.256,5.259,5.2686,5.2879,5.3149,5.336,5.3432,5.3683,5.3803,5.3803,5.3803,5.3803,5.3803,5.3803,5.3875,5.4111,5.39,5.3924,5.402,5.4092,5.4236,5.4356,5.4428,5.438,5.4399,5.4423,5.452,5.4832,5.4904,5.4952,5.5361,5.5554,5.565,5.5799,5.6183,5.64,5.652,5.6712,5.6929,5.6905,5.6881,5.6881,5.6905,5.6929,5.7025,5.7313,5.7409,5.7674,5.7938,5.8367,5.8701,5.8845,5.8993,5.9398,5.9687,5.9687,5.9759,5.0678,5.0678,5.0678,5.0624,5.0624,5.0624,5.06,5.0672,5.0672,5.0672,5.0678,5.0678,5.0678,5.0678,5.0678,5.0678,5.0678,5.0678,5.0678,5.0678,5.0702,5.0726,5.084,5.0936,5.0936,5.0798,5.0816,5.0768,5.0702,5.0678,5.0678,5.0678,5.075,5.075,5.0912,5.1273,5.1537,5.161,5.1989,5.2229,5.2325,5.2349,5.2379,5.247,5.2494,5.2518,5.2542,5.2494,5.2373,5.2277,5.2205,5.2181,5.2253,5.2301,5.2349,5.2349,5.2373,5.2729,5.3041,5.3119,5.3288,5.3587,5.3683,5.3803,5.3755,5.3755,5.3803,5.3803,5.3803,5.3803,5.3803,5.39,5.4135,5.4496,5.4308,5.426,5.4573,5.4645,5.4808,5.5169,5.5361,5.5361,5.5241,5.5241,5.5313,5.5433,5.5458,5.5506,5.5722,5.6035,5.6207,5.6424,5.6664,5.6712,5.6784,5.6808,5.7001,5.7001,5.7001,5.7001,5.7073,5.7121,5.7217,5.7506,5.7866,5.8131,5.8464,5.8848,5.9206,5.9398,5.9687,6.0072,6.0165,6.0069,6.0069,5.0678,5.0678,5.0678,5.0678,5.0678,5.0678,5.0678,5.0678,5.0678,5.0678,5.0678,5.0678,5.0678,5.0678,5.0678,5.0678,5.0678,5.0678,5.0678,5.0678,5.0678,5.0936,5.1321,5.1658,5.161,5.1273,5.1195,5.1081,5.0702,5.0726,5.0726,5.0702,5.1105,5.1297,5.1369,5.1802,5.2085,5.2067,5.2223,5.2518,5.2849,5.2897,5.3071,5.3389,5.3389,5.3347,5.3413,5.3413,5.3004,5.2368,5.2301,5.2301,5.2397,5.2686,5.2879,5.2927,5.3197,5.3419,5.3558,5.3606,5.3678,5.3779,5.3803,5.3803,5.3803,5.3803,5.3803,5.3803,5.3803,5.3827,5.3875,5.4188,5.464,5.5073,5.5049,5.5025,5.5145,5.5193,5.5265,5.5361,5.5433,5.5482,5.5506,5.5506,5.5606,5.5895,5.6015,5.6087,5.6328,5.6472,5.6664,5.676,5.6905,5.6953,5.6977,5.6977,5.7001,5.7001,5.7001,5.7025,5.7169,5.7361,5.755,5.7766,5.8247,5.8584,5.8921,5.9278,5.9591,5.9855,6.0,6.0213,6.0213,6.0165,6.0165,5.0678,5.0678,5.0678,5.0678,5.0678,5.0678,5.0678,5.0678,5.0678,5.0678,5.0678,5.0678,5.0678,5.0678,5.0678,5.0678,5.0678,5.0678,5.0678,5.0744,5.0936,5.1081,5.1225,5.1513,5.1465,5.1201,5.1159,5.0984,5.0792,5.0912,5.1032,5.1153,5.1562,5.1844,5.185,5.2349,5.2656,5.2686,5.2806,5.3077,5.3384,5.3389,5.351,5.3755,5.3803,5.3803,5.3803,5.3803,5.3491,5.3053,5.2932,5.2932,5.2956,5.3197,5.3389,5.3413,5.3659,5.3803,5.3803,5.3803,5.3803,5.3803,5.3803,5.3803,5.3803,5.3803,5.3803,5.3803,5.3803,5.3924,5.4236,5.4813,5.5342,5.5703,5.5938,5.5963,5.5775,5.5727,5.5847,5.5987,5.6083,5.6083,5.6083,5.6059,5.6207,5.6448,5.6544,5.6688,5.6857,5.6977,5.7001,5.7001,5.7001,5.7001,5.7001,5.7001,5.7001,5.7001,5.7121,5.7097,5.7409,5.7694,5.8007,5.8295,5.868,5.9041,5.9398,5.9687,5.9855,6.0072,6.0189,6.0213,6.0213,6.0213,6.0213,5.0678,5.0678,5.0678,5.0678,5.0678,5.0678,5.0678,5.0678,5.0678,5.0678,5.0678,5.0678,5.0678,5.0678,5.0678,5.0678,5.0678,5.0678,5.0678,5.0816,5.1032,5.1129,5.0822,5.1153,5.1129,5.096,5.0816,5.084,5.096,5.1273,5.1513,5.17,5.2133,5.2349,5.247,5.2921,5.3143,5.324,5.3461,5.3611,5.3571,5.3401,5.3336,5.3779,5.3803,5.3578,5.3422,5.3384,5.3355,5.3454,5.3535,5.3289,5.3331,5.3379,5.3285,5.3299,5.3285,5.3403,5.3766,5.3803,5.3803,5.3803,5.3803,5.3803,5.3803,5.3803,5.3803,5.3803,5.3851,5.4236,5.4837,5.5655,5.6068,5.6284,5.6688,5.6712,5.6428,5.626,5.6472,5.6905,5.6997,5.7001,5.7001,5.7001,5.6977,5.6736,5.6833,5.6881,5.6953,5.6977,5.7001,5.7001,5.7001,5.7001,5.7001,5.7001,5.7001,5.7025,5.7217,5.7361,5.7794,5.8127,5.8536,5.8872,5.9209,5.9543,5.9903,6.012,6.0168,6.0168,6.0213,6.0213,6.0213,6.0213,6.0213,5.0678,5.0678,5.0678,5.0678,5.0678,5.0678,5.0678,5.0678,5.0678,5.0678,5.0678,5.0678,5.0678,5.0678,5.0678,5.0678,5.0678,5.0678,5.0678,5.0702,5.0792,5.0822,5.087,5.1417,5.1652,5.1411,5.1321,5.1321,5.1393,5.1513,5.1748,5.2157,5.2614,5.2927,5.3017,5.3341,5.3635,5.3678,5.3755,5.3747,5.3403,5.2698,5.2698,5.3634,5.3728,5.3044,5.2084,5.1831,5.1812,5.1812,5.1777,5.1682,5.1797,5.0811,5.083,5.1777,5.2007,5.2469,5.3478,5.3803,5.3803,5.3803,5.3803,5.3803,5.3803,5.3803,5.3803,5.3875,5.4188,5.4741,5.5606,5.6015,5.638,5.6692,5.6881,5.6953,5.6857,5.6808,5.6857,5.6953,5.7001,5.7001,5.7001,5.7001,5.7001,5.7001,5.7001,5.7001,5.7001,5.7001,5.7001,5.7001,5.7001,5.7001,5.7001,5.7001,5.7001,5.7097,5.7289,5.767,5.8103,5.8512,5.8872,5.9281,5.9711,6.0024,6.0213,6.0213,6.0213,6.0213,6.0213,6.0213,6.0213,6.0213,6.0213,5.0678,5.0678,5.0678,5.0678,5.0678,5.0678,5.0678,5.0678,5.0678,5.0678,5.0678,5.0678,5.0678,5.0678,5.0678,5.0678,5.0678,5.0678,5.0678,5.0678,5.0702,5.0702,5.084,5.1441,5.1748,5.1531,5.1507,5.1628,5.1844,5.2091,5.2422,5.2686,5.313,5.3408,5.3432,5.3659,5.3779,5.3779,5.3785,5.3478,5.2584,5.2679,5.2736,5.3346,5.3101,5.2103,5.1428,5.0501,5.0229,4.9953,4.9445,4.9797,5.0791,4.9777,4.9719,5.0946,5.1313,5.2122,5.3327,5.3803,5.3803,5.3803,5.3803,5.3803,5.3803,5.3803,5.3948,5.414,5.4501,5.5029,5.6063,5.6496,5.6736,5.6905,5.7001,5.7001,5.7001,5.7001,5.7001,5.7001,5.7001,5.7001,5.7001,5.7001,5.7001,5.7001,5.7001,5.7001,5.7001,5.7001,5.7001,5.7001,5.7001,5.7001,5.7001,5.7001,5.7001,5.7169,5.7409,5.7842,5.8367,5.8776,5.9185,5.9615,6.0,6.0072,6.0213,6.0213,6.0213,6.0213,6.0213,6.0213,6.0213,6.0213,6.0213,5.0678,5.0678,5.0678,5.0678,5.0678,5.0678,5.0678,5.0678,5.0678,5.0678,5.0678,5.0678,5.0678,5.0678,5.0678,5.0678,5.0678,5.0678,5.0678,5.0678,5.0846,5.0894,5.1056,5.1441,5.1844,5.1706,5.1724,5.194,5.2367,5.2572,5.2265,5.2726,5.3103,5.3062,5.3261,5.3704,5.3554,5.3233,5.3138,5.2412,5.112,5.1643,5.1892,5.1739,5.2026,5.0888,5.007,4.9072,4.8421,4.8322,4.6807,4.7746,4.919,4.9131,4.9032,5.0575,5.0691,5.1735,5.3327,5.3803,5.3803,5.3803,5.3803,5.3803,5.3803,5.3851,5.4068,5.4452,5.4837,5.5366,5.6231,5.6664,5.6929,5.7001,5.7001,5.7001,5.7001,5.7001,5.7001,5.7001,5.7001,5.7001,5.7001,5.7001,5.7001,5.7001,5.7001,5.7001,5.7001,5.7001,5.7001,5.7001,5.7001,5.7001,5.7001,5.7001,5.7001,5.7169,5.7434,5.7938,5.8488,5.8945,5.9374,5.9855,6.0189,6.0213,6.0213,6.0213,6.0213,6.0213,6.0213,6.0213,6.0213,6.0213,6.0213,5.0678,5.0678,5.0678,5.0678,5.0678,5.0678,5.0678,5.0678,5.0678,5.0678,5.0678,5.0678,5.0678,5.0678,5.0678,5.0678,5.0678,5.075,5.075,5.0864,5.1129,5.1369,5.1465,5.1916,5.2313,5.2614,5.2341,5.2298,5.2313,5.1733,5.1438,5.1569,5.1804,5.1892,5.2141,5.2869,5.2869,5.1854,5.1658,5.0869,4.9523,4.8618,4.846,4.8697,4.9953,4.9601,4.7766,4.7008,4.6707,4.6546,4.5046,4.5495,4.6506,4.5738,4.6566,4.8697,4.9484,5.0711,5.3233,5.3803,5.3803,5.3803,5.3803,5.3803,5.3803,5.3875,5.4212,5.4765,5.5486,5.6183,5.6784,5.6953,5.6977,5.7001,5.7001,5.7001,5.7001,5.7001,5.7001,5.7001,5.7001,5.7001,5.7001,5.7001,5.7001,5.7001,5.7001,5.7001,5.7001,5.7001,5.7001,5.7001,5.7001,5.7001,5.7001,5.7001,5.7025,5.7121,5.7409,5.789,5.844,5.9017,5.9519,5.9711,6.0024,6.0213,6.0213,6.0213,6.0213,6.0213,6.0213,6.0213,6.0213,6.0213,6.0213,5.0678,5.0678,5.0678,5.0678,5.0678,5.0678,5.0678,5.0678,5.0678,5.0678,5.0678,5.0678,5.0678,5.0678,5.0678,5.0678,5.075,5.1032,5.1105,5.1243,5.1634,5.1916,5.1916,5.2433,5.2149,5.1934,5.1714,5.1869,5.2071,5.1407,5.0503,5.0255,5.0772,5.0908,5.0556,5.1562,5.1432,5.0362,4.9914,4.919,4.7666,4.6607,4.6667,4.7746,4.8024,4.7728,4.6707,4.525,4.4985,4.4801,4.4165,4.4288,4.4453,4.4679,4.523,4.8044,4.8836,5.0265,5.3077,5.3803,5.3803,5.3803,5.3803,5.3803,5.39,5.4111,5.4573,5.5366,5.6039,5.6712,5.6953,5.7001,5.7001,5.7001,5.7001,5.7001,5.7001,5.7001,5.7001,5.7001,5.7001,5.7001,5.7001,5.7001,5.7001,5.7001,5.7001,5.7001,5.7001,5.7001,5.7001,5.7001,5.7001,5.7001,5.7001,5.7001,5.7001,5.7121,5.7313,5.7794,5.8199,5.8656,5.8945,5.9158,5.9519,5.9976,6.0213,6.0192,6.0213,6.0213,6.0213,6.0213,6.0213,6.0213,6.0213,5.0678,5.0678,5.0678,5.0678,5.0678,5.0678,5.0678,5.0678,5.0678,5.0678,5.0678,5.0678,5.0678,5.0678,5.072,5.0744,5.0888,5.1345,5.1507,5.1754,5.2169,5.2396,5.2088,5.2236,5.185,5.0429,5.0496,5.0811,5.0607,5.0042,4.9364,4.8875,4.9719,4.9738,4.8895,4.9973,4.9484,4.8816,4.8262,4.7448,4.6203,4.6184,4.6606,4.7726,4.6767,4.6285,4.5495,4.4576,4.398,4.3898,4.3753,4.3733,4.3712,4.3691,4.5312,4.8064,4.8757,5.0675,5.2812,5.3803,5.3803,5.3803,5.3803,5.3851,5.4164,5.4645,5.5294,5.6092,5.6664,5.6953,5.7001,5.7001,5.7001,5.7001,5.7001,5.7001,5.7001,5.7001,5.7001,5.7001,5.7001,5.7001,5.7001,5.7001,5.7001,5.7001,5.7001,5.7001,5.7001,5.7001,5.7001,5.7001,5.7001,5.7001,5.7001,5.7001,5.7001,5.7049,5.7217,5.7554,5.7862,5.8199,5.8416,5.868,5.9134,5.9543,5.9855,6.0144,6.0213,6.0213,6.0213,6.0213,6.0213,6.0213,6.0213,5.0678,5.0678,5.0678,5.0678,5.0678,5.0678,5.0678,5.0678,5.0678,5.0678,5.0678,5.0678,5.0678,5.0702,5.0744,5.0984,5.1297,5.1586,5.1741,5.1955,5.2397,5.1924,5.0952,5.1301,5.0413,4.915,4.9025,4.9069,4.8717,4.7666,4.7008,4.6807,4.7008,4.6767,4.6868,4.8243,4.8163,4.6908,4.6607,4.5799,4.4658,4.5454,4.5454,4.5149,4.5393,4.5535,4.4494,4.3856,4.3712,4.3691,4.3691,4.3691,4.3691,4.3691,4.5596,4.7666,4.9131,5.0226,5.3082,5.3803,5.3803,5.3827,5.3851,5.4068,5.4621,5.5342,5.5923,5.6116,5.6688,5.6977,5.7001,5.7001,5.7001,5.7001,5.7001,5.7001,5.7001,5.7001,5.7001,5.7001,5.7001,5.7001,5.7001,5.7001,5.7001,5.7001,5.7001,5.7001,5.7001,5.7001,5.7001,5.7001,5.7001,5.7001,5.7001,5.7001,5.7001,5.7001,5.7145,5.7313,5.753,5.7814,5.8055,5.8367,5.8728,5.9013,5.923,5.9567,6.0,6.0189,6.0117,6.0165,6.0213,6.0213,6.0213,5.0678,5.0678,5.0678,5.0678,5.0678,5.0678,5.0678,5.0678,5.0678,5.0678,5.0678,5.0678,5.0678,5.0768,5.0984,5.1291,5.1604,5.2012,5.184,5.1451,5.1648,5.1121,4.9936,4.9666,4.8993,4.7746,4.7227,4.6606,4.6264,4.6244,4.5941,4.5087,4.5698,4.5779,4.5251,4.6566,4.6163,4.5312,4.4781,4.4453,4.4083,4.435,4.4494,4.3774,4.4494,4.435,4.3959,4.3691,4.3691,4.3691,4.3691,4.3691,4.4,4.4679,4.6365,4.8342,4.8796,5.0401,5.3195,5.3672,5.3709,5.3905,5.4097,5.4621,5.5342,5.5895,5.638,5.6644,5.6857,5.7001,5.7001,5.7001,5.7001,5.7001,5.7001,5.7001,5.7001,5.7001,5.7001,5.7001,5.7001,5.7001,5.7001,5.7001,5.7001,5.7001,5.7001,5.7001,5.7001,5.7001,5.7001,5.7001,5.7001,5.7001,5.7001,5.7001,5.7001,5.7001,5.7001,5.7145,5.7217,5.7434,5.767,5.7814,5.8007,5.8271,5.8556,5.9085,5.9615,5.9831,6.0021,6.0045,6.0072,6.0192,6.0192,5.0678,5.0678,5.0678,5.0678,5.0678,5.0678,5.0678,5.0678,5.0678,5.0678,5.0744,5.084,5.0912,5.1008,5.1387,5.1525,5.1273,5.212,5.1399,5.07,5.0233,4.9635,4.8595,4.8064,4.7308,4.5677,4.5637,4.5108,4.472,4.472,4.4822,4.3773,4.4863,4.4863,4.4432,4.4842,4.4985,4.4124,4.3898,4.3815,4.3733,4.3733,4.3794,4.3691,4.3712,4.3691,4.3691,4.3691,4.3691,4.3691,4.3691,4.3691,4.3898,4.5189,4.6827,4.8381,4.8796,4.9992,5.2045,5.2944,5.3176,5.3499,5.44,5.515,5.5943,5.6284,5.6476,5.6929,5.6977,5.7001,5.7001,5.7001,5.7001,5.7001,5.7001,5.7001,5.7001,5.7001,5.7001,5.7001,5.7001,5.7001,5.7001,5.7001,5.7001,5.7001,5.7001,5.7001,5.7001,5.7001,5.7001,5.7001,5.7001,5.7001,5.7001,5.7001,5.7001,5.7001,5.7001,5.7025,5.7097,5.7097,5.7217,5.7333,5.743,5.755,5.7814,5.8536,5.9209,5.9326,5.9494,5.9807,5.9952,6.0096,6.0192,5.0678,5.0678,5.0678,5.0678,5.0678,5.0678,5.0678,5.0678,5.0678,5.0702,5.084,5.1177,5.1333,5.1417,5.1528,5.1391,5.053,5.0626,4.9888,4.9245,4.8794,4.7945,4.6968,4.6223,4.5698,4.4351,4.4268,4.4103,4.3774,4.398,4.4,4.3794,4.4186,4.3939,4.3815,4.4062,4.4227,4.3691,4.3691,4.3691,4.3691,4.3691,4.3691,4.3691,4.3691,4.3691,4.3691,4.3691,4.3691,4.3691,4.3691,4.4021,4.4412,4.5495,4.7088,4.8361,4.8441,4.9406,5.0594,5.1562,5.1705,5.2267,5.3709,5.5606,5.626,5.6712,5.6929,5.6977,5.7001,5.7001,5.7001,5.7001,5.7001,5.7001,5.7001,5.7001,5.7001,5.7001,5.7001,5.7001,5.7001,5.7001,5.7001,5.7001,5.7001,5.7001,5.7001,5.7001,5.7001,5.7001,5.7001,5.7001,5.7001,5.7001,5.7001,5.7001,5.7001,5.7001,5.7001,5.7001,5.7025,5.7001,5.7001,5.7049,5.7193,5.7121,5.7169,5.7866,5.844,5.8704,5.8969,5.9374,5.9759,5.9976,6.0096,5.0678,5.0678,5.0678,5.0678,5.0678,5.0678,5.0678,5.0678,5.0702,5.0912,5.1177,5.1357,5.1073,5.0746,5.0816,5.0352,4.9163,4.934,4.8484,4.7682,4.7068,4.6203,4.5251,4.472,4.4329,4.3794,4.3691,4.3691,4.3712,4.3691,4.3691,4.3691,4.3691,4.3712,4.3691,4.3691,4.3691,4.3691,4.3691,4.3691,4.3691,4.3691,4.3691,4.3691,4.3691,4.3691,4.3691,4.3691,4.3691,4.3691,4.3691,4.4186,4.4863,4.584,4.7028,4.8243,4.7905,4.7945,4.8855,5.0254,5.1974,5.3847,5.5152,5.6087,5.6568,5.6905,5.6977,5.7001,5.7001,5.7001,5.7001,5.7001,5.7001,5.7001,5.7001,5.7001,5.7001,5.7001,5.7001,5.7001,5.7001,5.7001,5.7001,5.7001,5.7001,5.7001,5.7001,5.7001,5.7001,5.7001,5.7001,5.7001,5.7001,5.7001,5.7001,5.7001,5.7001,5.7001,5.7001,5.7001,5.7001,5.7001,5.7001,5.7001,5.7001,5.7025,5.7145,5.7361,5.7698,5.8079,5.8512,5.8969,5.9398,5.9783,5.9879,5.0678,5.0678,5.0678,5.0678,5.0678,5.0678,5.0678,5.0678,5.0678,5.1008,5.1477,5.1283,5.0767,5.0156,4.9828,4.9071,4.7991,4.7714,4.6865,4.6103,4.5352,4.476,4.4083,4.3753,4.3877,4.3691,4.3691,4.3691,4.3691,4.3691,4.3691,4.3691,4.3691,4.3691,4.3691,4.3691,4.3691,4.3691,4.3691,4.3691,4.3691,4.3691,4.3691,4.3691,4.3691,4.3691,4.3691,4.3691,4.3691,4.3691,4.3815,4.4329,4.5169,4.6082,4.6887,4.7207,4.7168,4.6506,4.7628,4.9212,5.2294,5.4812,5.573,5.6424,5.6833,5.7001,5.7001,5.7001,5.7001,5.7001,5.7001,5.7001,5.7001,5.7001,5.7001,5.7001,5.7001,5.7001,5.7001,5.7001,5.7001,5.7001,5.7001,5.7001,5.7001,5.7001,5.7001,5.7001,5.7001,5.7001,5.7001,5.7001,5.7001,5.7001,5.7001,5.7001,5.7001,5.7001,5.7001,5.7001,5.7001,5.7001,5.7001,5.7001,5.7001,5.7001,5.7073,5.7217,5.7337,5.7482,5.8007,5.8536,5.8897,5.9233,5.9378,5.0678,5.0678,5.0678,5.0678,5.0678,5.0678,5.0678,5.072,5.0768,5.1105,5.1585,5.11,5.0727,5.0281,4.9604,4.817,4.6802,4.6384,4.5556,4.4473,4.4288,4.3856,4.3774,4.3691,4.3691,4.3691,4.3691,4.3691,4.3691,4.3691,4.3691,4.3691,4.3691,4.3691,4.3691,4.3691,4.3691,4.3691,4.3691,4.3691,4.3691,4.3691,4.3691,4.3691,4.3691,4.3691,4.3691,4.3691,4.3691,4.3691,4.3691,4.4062,4.4556,4.5474,4.6122,4.6465,4.6445,4.7089,4.8684,4.9436,5.2161,5.5366,5.6212,5.6568,5.6881,5.7001,5.7001,5.7001,5.7001,5.7001,5.7001,5.7001,5.7001,5.7001,5.7001,5.7001,5.7001,5.7001,5.7001,5.7001,5.7001,5.7001,5.7001,5.7001,5.7001,5.7001,5.7001,5.7001,5.7001,5.7001,5.7001,5.7001,5.7001,5.7001,5.7001,5.7001,5.7001,5.7001,5.7001,5.7001,5.7001,5.7001,5.7001,5.7001,5.7001,5.7001,5.7001,5.7025,5.7145,5.7289,5.7622,5.8079,5.8416,5.8728,5.8945,5.0678,5.0678,5.0678,5.0678,5.0678,5.0678,5.0702,5.075,5.1105,5.1724,5.2396,5.2265,5.1703,5.0826,4.9334,4.7766,4.6304,4.4801,4.3898,4.3815,4.3691,4.3712,4.3691,4.3691,4.3691,4.3691,4.3691,4.3691,4.3691,4.3691,4.3691,4.3691,4.3691,4.3691,4.3691,4.3691,4.3691,4.3691,4.3691,4.3691,4.3691,4.3691,4.3691,4.3691,4.3691,4.3691,4.3691,4.3691,4.3691,4.3691,4.3691,4.4103,4.4576,4.5434,4.5148,4.59,4.6386,4.8068,5.0445,5.2227,5.3455,5.5455,5.65,5.676,5.7001,5.7001,5.7001,5.7001,5.7001,5.7001,5.7001,5.7001,5.7001,5.7001,5.7001,5.7001,5.7001,5.7001,5.7001,5.7001,5.7001,5.7001,5.7001,5.7001,5.7001,5.7001,5.7001,5.7001,5.7001,5.7001,5.7001,5.7001,5.7001,5.7001,5.7001,5.7001,5.7001,5.7001,5.7001,5.7001,5.7001,5.7001,5.7001,5.7001,5.7001,5.7001,5.7001,5.7001,5.7001,5.7145,5.7454,5.767,5.7959,5.8319,5.868,5.0678,5.0678,5.0678,5.0678,5.0678,5.0678,5.0792,5.1081,5.1724,5.247,5.2888,5.2657,5.1643,5.0216,4.8678,4.7008,4.5393,4.435,4.3731,4.3691,4.3691,4.3691,4.3691,4.3691,4.3691,4.3691,4.3691,4.3691,4.3691,4.3691,4.3691,4.3691,4.3691,4.3691,4.3691,4.3691,4.3691,4.3691,4.3691,4.3691,4.3691,4.3691,4.3691,4.3691,4.3691,4.3691,4.3691,4.3691,4.3691,4.3691,4.3898,4.4207,4.4699,4.4679,4.4309,4.5148,4.7179,4.9217,5.2118,5.4088,5.5134,5.6342,5.6813,5.6977,5.7001,5.7001,5.7001,5.7001,5.7001,5.7001,5.7001,5.7001,5.7001,5.7001,5.7001,5.7001,5.7001,5.7001,5.7001,5.7001,5.7001,5.7001,5.7001,5.7001,5.7001,5.7001,5.7001,5.7001,5.7001,5.7001,5.7001,5.7001,5.7001,5.7001,5.7001,5.7001,5.7001,5.7001,5.7001,5.7001,5.7001,5.7001,5.7001,5.7001,5.7001,5.7001,5.7001,5.7001,5.7001,5.7049,5.7217,5.7385,5.7506,5.7814,5.8175,5.0678,5.0678,5.0678,5.0702,5.0744,5.0912,5.1177,5.1652,5.2632,5.3071,5.3112,5.1973,5.0823,4.903,4.7268,4.5718,4.4453,4.3959,4.3712,4.3691,4.3691,4.3691,4.3691,4.3691,4.3691,4.3691,4.3691,4.3691,4.3691,4.3691,4.3691,4.3691,4.3691,4.3691,4.3691,4.3691,4.3691,4.3691,4.3691,4.3691,4.3691,4.3691,4.3691,4.3691,4.3691,4.3691,4.3691,4.3691,4.3691,4.3691,4.3733,4.3733,4.3753,4.3712,4.3731,4.5044,4.7936,5.0994,5.3531,5.5312,5.6037,5.6765,5.6929,5.7001,5.7001,5.7001,5.7001,5.7001,5.7001,5.7001,5.7001,5.7001,5.7001,5.7001,5.7001,5.7001,5.7001,5.7001,5.7001,5.7001,5.7001,5.7001,5.7001,5.7001,5.7001,5.7001,5.7001,5.7001,5.7001,5.7001,5.7001,5.7001,5.7001,5.7001,5.7001,5.7001,5.7001,5.7001,5.7001,5.7001,5.7001,5.7001,5.7001,5.7001,5.7001,5.7001,5.7001,5.7001,5.7001,5.7073,5.7121,5.7145,5.7265,5.7217,5.743,5.0678,5.0678,5.0678,5.0912,5.1363,5.2085,5.2512,5.2686,5.3017,5.3264,5.3512,5.1976,5.0811,5.0342,4.7648,4.6163,4.5189,4.4412,4.3856,4.3691,4.3691,4.3691,4.3691,4.3691,4.3691,4.3691,4.3691,4.3691,4.3691,4.3691,4.3691,4.3691,4.3691,4.3691,4.3691,4.3691,4.3691,4.3691,4.3691,4.3691,4.3691,4.3691,4.3691,4.3691,4.3691,4.3691,4.3691,4.3691,4.3691,4.3691,4.3691,4.3691,4.3691,4.3835,4.4327,4.796,5.0783,5.3437,5.5197,5.6267,5.6833,5.6953,5.7001,5.7001,5.7001,5.7001,5.7001,5.7001,5.7001,5.7001,5.7001,5.7001,5.7001,5.7001,5.7001,5.7001,5.7001,5.7001,5.7001,5.7001,5.7001,5.7001,5.7001,5.7001,5.7001,5.7001,5.7001,5.7001,5.7001,5.7001,5.7001,5.7001,5.7001,5.7001,5.7001,5.7001,5.7001,5.7001,5.7001,5.7001,5.7001,5.7001,5.7001,5.7001,5.7001,5.7001,5.7001,5.7001,5.7001,5.7001,5.7049,5.7025,5.7001,5.7001,5.7001,5.0678,5.0744,5.0936,5.1417,5.2181,5.2825,5.3191,5.336,5.3365,5.3272,5.2693,5.1735,5.0598,4.8934,4.7088,4.584,4.4985,4.4206,4.3691,4.3691,4.3794,4.3691,4.3691,4.3691,4.3691,4.3691,4.3691,4.3691,4.3691,4.3691,4.3691,4.3691,4.3691,4.3691,4.3691,4.3691,4.3691,4.3691,4.3691,4.3691,4.3691,4.3691,4.3691,4.3691,4.3691,4.3691,4.3691,4.3691,4.3691,4.3691,4.3691,4.3691,4.3998,4.4509,4.7049,5.0401,5.2344,5.4441,5.6005,5.6665,5.6953,5.7001,5.7001,5.7001,5.7001,5.7001,5.7001,5.7001,5.7001,5.7001,5.7001,5.7001,5.7001,5.7001,5.7001,5.7001,5.7001,5.7001,5.7001,5.7001,5.7001,5.7001,5.7001,5.7001,5.7001,5.7001,5.7001,5.7001,5.7001,5.7001,5.7001,5.7001,5.7001,5.7001,5.7001,5.7001,5.7001,5.7001,5.7001,5.7001,5.7001,5.7001,5.7001,5.7001,5.7001,5.7001,5.7001,5.7001,5.7001,5.7001,5.7001,5.7001,5.7001,5.7001,5.7001,5.0678,5.0768,5.1321,5.2133,5.3017,5.3143,5.3413,5.3779,5.3755,5.2887,5.1601,5.1332,4.9562,4.7488,4.6687,4.584,4.5332,4.476,4.4699,4.3959,4.4288,4.4206,4.3774,4.3691,4.3691,4.3691,4.3691,4.3691,4.3691,4.3691,4.3691,4.3691,4.3691,4.3691,4.3691,4.3691,4.3691,4.3691,4.3691,4.3691,4.3691,4.3691,4.3691,4.3691,4.3691,4.3691,4.3691,4.3691,4.3691,4.3691,4.3769,4.3789,4.4936,4.6393,4.9684,5.2113,5.3854,5.5181,5.6403,5.6953,5.6977,5.7001,5.7001,5.7001,5.7001,5.7001,5.7001,5.7001,5.7001,5.7001,5.7001,5.7001,5.7001,5.7001,5.7001,5.7001,5.7001,5.7001,5.7001,5.7001,5.7001,5.7001,5.7001,5.7001,5.7001,5.7001,5.7001,5.7001,5.7001,5.7001,5.7001,5.7001,5.7001,5.7001,5.7001,5.7001,5.7001,5.7001,5.7001,5.7001,5.7001,5.7001,5.7001,5.7001,5.7001,5.7001,5.7001,5.7001,5.7001,5.7001,5.7001,5.7001,5.7001,5.7001,5.7001,5.0678,5.0774,5.1724,5.2494,5.3095,5.3485,5.3702,5.3803,5.3803,5.2869,5.1505,5.1062,4.9523,4.6928,4.7608,4.7048,4.5981,4.6021,4.6526,4.5698,4.5271,4.4391,4.3898,4.3691,4.3691,4.3691,4.3691,4.3691,4.3691,4.3691,4.3691,4.3691,4.3691,4.3691,4.3691,4.3691,4.3691,4.3691,4.3691,4.3691,4.3691,4.3691,4.3691,4.3691,4.3691,4.3691,4.3711,4.373,4.3711,4.3711,4.4082,4.5067,4.672,4.8791,5.1064,5.3411,5.5108,5.6208,5.6666,5.7001,5.7001,5.7001,5.7001,5.7001,5.7001,5.7001,5.7001,5.7001,5.7001,5.7001,5.7001,5.7001,5.7001,5.7001,5.7001,5.7001,5.7001,5.7001,5.7001,5.7001,5.7001,5.7001,5.7001,5.7001,5.7001,5.7001,5.7001,5.7001,5.7001,5.7001,5.7001,5.7001,5.7001,5.7001,5.7001,5.7001,5.7001,5.7001,5.7001,5.7001,5.7001,5.7001,5.7001,5.7001,5.7001,5.7001,5.7001,5.7001,5.7001,5.7001,5.7001,5.7001,5.7001,5.7001,5.7001,5.0678,5.084,5.1868,5.2734,5.3389,5.3683,5.3803,5.3803,5.3803,5.2869,5.1447,5.112,4.9816,4.7587,4.8441,4.7985,4.6787,4.7148,4.6082,4.5393,4.5332,4.4474,4.398,4.3691,4.3691,4.3691,4.3691,4.3691,4.3691,4.3691,4.3691,4.3691,4.3691,4.3691,4.3691,4.3691,4.3691,4.3691,4.3691,4.3691,4.3691,4.3691,4.3691,4.3691,4.3711,4.3711,4.3789,4.3848,4.4004,4.4121,4.4453,4.5837,4.7629,4.9628,5.1765,5.385,5.5604,5.7001,5.7001,5.7001,5.7001,5.7001,5.7001,5.7001,5.7001,5.7001,5.7001,5.7001,5.7001,5.7001,5.7001,5.7001,5.7001,5.7001,5.7001,5.7001,5.7001,5.7001,5.7001,5.7001,5.7001,5.7001,5.7001,5.7001,5.7001,5.7001,5.7001,5.7001,5.7001,5.7001,5.7001,5.7001,5.7001,5.7001,5.7001,5.7001,5.7001,5.7001,5.7001,5.7001,5.7001,5.7001,5.7001,5.7001,5.7001,5.7001,5.7001,5.7001,5.7001,5.7001,5.7001,5.7001,5.7001,5.7001,5.7001,5.0792,5.1032,5.1898,5.286,5.3731,5.3803,5.3803,5.3803,5.3785,5.3044,5.1912,5.1777,5.0559,4.9288,4.9347,4.8044,4.7507,4.8104,4.6506,4.4883,4.4474,4.4227,4.4,4.3691,4.3691,4.3691,4.3691,4.3691,4.3691,4.3691,4.3691,4.3691,4.3691,4.3691,4.3691,4.3691,4.3691,4.3691,4.3691,4.3691,4.3691,4.3691,4.3691,4.3711,4.3769,4.3768,4.3926,4.416,4.4433,4.4629,4.5011,4.6805,4.8504,5.0534,5.2567,5.4552,5.6103,5.6901,5.7001,5.7001,5.7001,5.7001,5.7001,5.7001,5.7001,5.7001,5.7001,5.7001,5.7001,5.7001,5.7001,5.7001,5.7001,5.7001,5.7001,5.7001,5.7001,5.7001,5.7001,5.7001,5.7001,5.7001,5.7001,5.7001,5.7001,5.7001,5.7001,5.7001,5.7001,5.7001,5.7001,5.7001,5.7001,5.7001,5.7001,5.7001,5.7001,5.7001,5.7001,5.7001,5.7001,5.7001,5.7001,5.7001,5.7001,5.7001,5.7001,5.7001,5.7001,5.7001,5.7001,5.7001,5.7001,5.7001,5.7001,5.1225,5.2013,5.2229,5.2884,5.3731,5.3803,5.3803,5.3803,5.3803,5.3554,5.3271,5.302,5.1797,4.9013,5.1873,5.1178,4.8282,4.8796,4.7846,4.6264,4.5149,4.4576,4.4062,4.3691,4.3691,4.3691,4.3691,4.3691,4.3691,4.3691,4.3691,4.3691,4.3691,4.3691,4.3691,4.3691,4.3691,4.3691,4.3711,4.3711,4.375,4.375,4.3711,4.3828,4.4062,4.418,4.4375,4.4666,4.4822,4.5018,4.5485,4.7506,4.9407,5.1129,5.3,5.4945,5.6518,5.6881,5.7001,5.7001,5.7001,5.7001,5.7001,5.7001,5.7001,5.7001,5.7001,5.7001,5.7001,5.7001,5.7001,5.7001,5.7001,5.7001,5.7001,5.7001,5.7001,5.7001,5.7001,5.7001,5.7001,5.7001,5.7001,5.7001,5.7001,5.7001,5.7001,5.7001,5.7001,5.7001,5.7001,5.7001,5.7001,5.7001,5.7001,5.7001,5.7001,5.7001,5.7001,5.7001,5.7001,5.7001,5.7001,5.7001,5.7001,5.7001,5.7001,5.7001,5.7001,5.7001,5.7001,5.7001,5.7001,5.7001,5.7001]},{"header":{"parameterUnit":"m.s-1","parameterCategory":1,"la1":31.0,"la2":29.5877,"lo1":-88.7671,"lo2":-86.6584,"dy":0.0162,"dx":0.0185,"nx":115,"ny":88,"refTime":"2023-04-06T00:00:00:Z","depth":0,"parameterNumber":3,"parameterNumberName":"V-component_of_WINDS"},"data":[0.0,0.0,0.0,0.0,0.0,0.0,0.0,0.0,0.0,0.0,0.0,0.0,0.0,0.0,0.0,0.0,0.0,0.0,0.0,0.0,0.0,0.0,0.0,0.0,0.0,0.0,0.0,0.0,0.0,0.0,0.0,0.0,0.0,0.0,0.0,0.0,0.0,0.0,0.0,0.0,0.0,0.0,0.0,0.0,0.0,0.0,0.0,0.0,0.0,0.0,0.0,0.0,0.0,0.0,0.0,0.0,0.0,0.0,0.0,0.0,0.0,0.0,0.0,0.0,0.0,0.0,0.0,0.0,0.0,0.0,0.0,0.0,0.0,0.0,0.0,0.0,0.0,0.0,0.0,0.0,0.0,0.0,0.0,0.0,0.0,0.0,0.0,0.0,0.0,0.0,0.0,0.0,0.0,0.0,0.0,0.0,0.0,0.0,0.0,0.0,0.0,0.0,0.0,0.0,0.0,0.0,0.0,0.0,0.0,0.0,0.0,0.0,0.0,0.0,0.0,0.0,0.0,0.0,0.0,0.0,0.0,0.0,0.0,0.0,0.0,0.0,0.0,0.0,0.0,0.0,0.0,0.0,0.0,0.0,0.0,0.0,0.0,0.0,0.0,0.0,0.0,0.0,0.0,0.0,0.0,0.0,0.0,0.0,0.0,0.0,0.0,0.0,0.0,0.0,0.0,0.0,0.0,0.0,0.0,0.0,0.0,0.0,0.0,0.0,0.0,0.0,0.0,0.0,0.0,0.0,0.0,0.0,0.0,0.0,0.0,0.0,0.0,0.0,0.0,0.0,0.0,0.0,0.0,0.0,0.0,0.0,0.0,0.0,0.0,0.0,0.0,0.0,0.0,0.0,0.0,0.0,0.0,0.0,0.0,0.0,0.0,0.0,0.0,0.0,0.0,0.0,0.0,0.0,0.0,0.0,0.0,0.0,0.0,0.0,0.0,0.0,0.0,0.0,0.0,0.0,0.0,0.0,0.0,0.0,0.0,0.0,0.0,0.0,0.0,0.0,0.0,0.0,0.0,0.0,0.0,0.0,0.0,0.0,0.0,0.0,0.0,0.0,0.0,0.0,0.0,0.0,0.0,0.0,0.0,0.0,0.0,0.0,0.0,0.0,0.0,0.0,0.0,0.0,0.0,0.0,0.0,0.0,0.0,0.0,0.0,0.0,0.0,0.0,0.0,0.0,0.0,0.0,0.0,0.0,0.0,0.0,0.0,0.0,0.0,0.0,0.0,0.0,0.0,0.0,0.0,0.0,0.0,0.0,0.0,0.0,0.0,0.0,0.0,0.0,0.0,0.0,0.0,0.0,0.0,0.0,0.0,0.0,0.0,0.0,0.0,0.0,0.0,0.0,0.0,0.0,0.0,0.0,0.0,0.0,0.0,0.0,0.0,0.0,0.0,0.0,0.0,0.0,0.0,0.0,0.0,0.0,0.0,0.0,0.0,0.0,0.0,0.0,0.0,0.0,0.0,0.0,0.0,0.0,0.0,0.0,0.0,0.0,0.0,0.0,0.0,0.0,0.0,0.0,0.0,0.0,0.0,0.0,0.0,0.0,0.0,0.0,0.0,0.0,0.0,0.0,0.0,0.0,0.0,0.0,0.0,0.0,0.0,0.0,0.0,0.0,0.0,0.0,0.0,0.0,0.0,0.0,0.0,0.0,0.0,0.0,0.0,0.0,0.0,0.0,0.0,0.0,0.0,0.0,0.0,0.0,0.0,0.0,0.0,0.0,0.0,0.0,0.0,0.0,0.0,0.0,0.0,0.0,0.0,0.0,0.0,0.0,0.0,0.0,0.0,0.0,0.0,0.0,0.0,0.0,0.0,0.0,0.0,0.0,0.0,0.0,0.0,0.0,0.0,0.0,0.0,0.0,0.0,0.0,0.0,0.0,0.0,0.0,0.0,0.0,0.0,0.0,0.0,0.0,0.0,0.0,0.0,0.0,0.0,0.0,0.0,0.0,0.0,0.0,0.0,0.0,0.0,0.0,0.0,0.0,0.0,0.0,0.0,0.0,0.0,0.0,0.0,0.0,0.0,0.0,0.0,0.0,0.0,0.0,0.0,0.0,0.0,0.0,0.0,0.0,0.0,0.0,0.0,0.0,0.0,0.0,0.0,0.0,0.0,0.0,0.0,0.0,0.0,0.0,0.0,0.0,0.0,0.0,0.0,0.0,0.0,0.0,0.0,0.0,0.0,0.0,0.0,0.0,0.0,0.0,0.0,0.0,0.0,0.0,0.0,0.0,0.0,0.0,0.0,0.0,0.0,0.0,0.0,0.0,0.0,0.0,0.0,0.0,0.0,0.0,0.0,0.0,0.0,0.0,0.0,0.0,0.0,0.0,0.0,0.0,0.0,0.0,0.0,0.0,0.0,0.0,0.0,0.0,0.0,0.0,0.0,0.0,0.0,0.0,0.0,0.0,0.0,0.0,0.0,0.0,0.0,0.0,0.0,0.0,0.0,0.0,0.0,0.0,0.0,0.0,0.0,0.0,0.0,0.0,0.0,0.0,0.0,0.0,0.0,0.0,0.0,0.0,0.0,0.0,0.0,0.0,0.0,0.0,0.0,0.0,0.0,0.0,0.0,0.0,0.0,0.0,0.0,0.0,0.0,0.0,0.0,0.0,0.0,0.0,0.0,0.0,0.0,0.0,0.0,0.0,0.0,0.0,0.0,0.0,0.0,0.0,0.0,0.0,0.0,0.0,0.0,0.0,0.0,0.0,0.0,0.0,0.0,0.0,0.0,0.0,0.0,0.0,0.0,0.0,0.0,0.0,0.0,0.0,0.0,0.0,0.0,0.0,0.0,0.0,0.0,0.0,0.0,0.0,0.0,0.0,0.0,0.0,0.0,0.0,0.0,0.0,0.0,0.0,0.0,0.0,0.0,0.0,0.0,0.0,0.0,0.0,0.0,0.0,0.0,0.0,0.0,0.0,0.0,0.0,0.0,0.0,0.0,0.0,0.0,0.0,0.0,0.0,0.0,0.0,0.0,0.0,0.0,0.0,0.0,0.0,0.0,0.0,0.0,0.0,0.0,0.0,0.0,0.0,0.0,0.0,0.0,0.0,0.0,0.0,0.0,0.0,0.0,0.0,0.0,0.0,0.0,0.0,0.0,0.0,0.0,0.0,0.0,0.0,0.0,0.0,0.0,0.0,0.0,0.0,0.0,0.0,0.0,0.0,0.0,0.0,0.0,0.0,0.0,0.0,0.0,0.0,0.0,0.0,0.0,0.0,0.0,0.0,0.0,0.0,0.0,0.0,0.0,0.0,0.0,0.0,0.0,0.0,0.0,0.0,0.0,0.0,0.0,0.0,0.0,0.0,0.0,0.0,0.0,0.0,0.0,0.0,0.0,0.0,0.0,0.0,0.0,0.0,0.0,0.0,0.0,0.0,0.0,0.0,0.0,0.0,0.0,0.0,0.0,0.0,0.0,0.0,0.0,0.0,0.0,0.0,0.0,0.0,0.0,0.0,0.0,0.0,0.0,0.0,0.0,0.0,0.0,0.0,0.0,0.0,0.0,0.0,0.0,0.0,0.0,0.0,0.0,0.0,0.0,0.0,0.0,0.0,0.0,0.0,0.0,0.0,0.0,0.0,0.0,0.0,0.0,0.0,0.0,0.0,0.0,0.0,0.0,0.0,0.0,0.0,0.0,0.0,0.0,0.0,0.0,0.0,0.0,0.0,0.0,0.0,0.0,0.0,0.0,0.0,0.0,0.0,0.0,0.0,0.0,0.0,0.0,0.0,0.0,0.0,0.0,0.0,0.0,0.0,0.0,0.0,0.0,0.0,0.0,0.0,0.0,0.0,0.0,0.0,0.0,0.0,0.0,0.0,0.0,0.0,0.0,0.0,0.0,0.0,0.0,0.0,0.0,0.0,0.0,0.0,0.0,0.0,0.0,0.0,0.0,0.0,0.0,0.0,0.0,0.0,0.0,0.0,0.0,0.0,0.0,0.0,0.0,0.0,0.0,0.0,0.0,0.0,0.0,0.0,0.0,0.0,0.0,0.0,0.0,0.0,0.0,0.0,0.0,0.0,0.0,0.0,0.0,0.0,0.0,0.0,0.0,0.0,0.0,0.0,0.0,0.0,0.0,0.0,0.0,0.0,0.0,0.0,0.0,0.0,0.0,0.0,0.0,0.0,0.0,0.0,0.0,0.0,0.0,0.0,0.0,0.0,0.0,0.0,0.0,0.0,0.0,0.0,0.0,0.0,0.0,0.0,0.0,0.0,0.0,0.0,0.0,0.0,0.0,0.0,4.8037,0.0,0.0,0.0,0.0,0.0,0.0,0.0,0.0,0.0,0.0,0.0,0.0,0.0,0.0,0.0,0.0,0.0,0.0,0.0,0.0,0.0,0.0,0.0,0.0,0.0,0.0,0.0,0.0,0.0,0.0,0.0,0.0,0.0,0.0,0.0,0.0,0.0,0.0,0.0,0.0,0.0,0.0,0.0,0.0,0.0,0.0,0.0,0.0,0.0,0.0,0.0,0.0,0.0,0.0,0.0,0.0,0.0,0.0,0.0,0.0,0.0,0.0,0.0,0.0,0.0,0.0,0.0,0.0,0.0,0.0,0.0,0.0,0.0,0.0,0.0,0.0,0.0,0.0,0.0,0.0,0.0,0.0,0.0,0.0,0.0,0.0,0.0,0.0,0.0,0.0,0.0,0.0,0.0,0.0,0.0,0.0,0.0,0.0,0.0,0.0,0.0,0.0,0.0,0.0,0.0,0.0,0.0,0.0,0.0,0.0,4.6985,4.753,4.7539,4.7776,4.8281,0.0,0.0,0.0,0.0,0.0,0.0,0.0,0.0,0.0,0.0,0.0,0.0,0.0,0.0,0.0,0.0,0.0,0.0,0.0,0.0,0.0,0.0,0.0,0.0,0.0,0.0,0.0,0.0,0.0,0.0,0.0,0.0,0.0,0.0,0.0,0.0,0.0,0.0,0.0,0.0,0.0,0.0,0.0,0.0,0.0,0.0,0.0,0.0,0.0,0.0,0.0,0.0,0.0,0.0,0.0,0.0,0.0,0.0,0.0,0.0,0.0,0.0,0.0,0.0,0.0,0.0,0.0,0.0,0.0,0.0,0.0,0.0,0.0,0.0,0.0,0.0,0.0,0.0,0.0,0.0,0.0,0.0,0.0,0.0,0.0,0.0,0.0,0.0,0.0,0.0,0.0,0.0,0.0,0.0,0.0,0.0,0.0,0.0,0.0,0.0,0.0,0.0,0.0,0.0,0.0,0.0,0.0,0.0,0.0,0.0,0.0,0.0,4.7837,4.7964,4.8228,0.0,0.0,0.0,0.0,0.0,0.0,0.0,0.0,0.0,0.0,0.0,0.0,0.0,0.0,0.0,0.0,0.0,0.0,0.0,0.0,0.0,0.0,0.0,0.0,0.0,0.0,0.0,0.0,0.0,0.0,0.0,0.0,0.0,0.0,0.0,0.0,0.0,0.0,0.0,0.0,0.0,0.0,0.0,0.0,0.0,0.0,0.0,0.0,0.0,0.0,0.0,0.0,0.0,0.0,0.0,0.0,0.0,0.0,0.0,0.0,0.0,0.0,0.0,0.0,0.0,0.0,0.0,0.0,0.0,0.0,0.0,0.0,0.0,0.0,0.0,0.0,0.0,0.0,0.0,0.0,0.0,0.0,0.0,0.0,0.0,0.0,0.0,0.0,0.0,0.0,0.0,0.0,0.0,0.0,0.0,0.0,0.0,0.0,0.0,0.0,0.0,0.0,0.0,0.0,0.0,0.0,0.0,0.0,0.0,0.0,4.7508,4.7374,4.7374,0.0,4.8007,0.0,0.0,0.0,0.0,0.0,0.0,0.0,0.0,0.0,0.0,0.0,0.0,0.0,0.0,0.0,0.0,0.0,0.0,0.0,0.0,0.0,0.0,0.0,0.0,0.0,0.0,0.0,0.0,0.0,0.0,0.0,0.0,0.0,0.0,0.0,0.0,0.0,0.0,0.0,0.0,0.0,0.0,0.0,0.0,0.0,0.0,0.0,0.0,0.0,0.0,0.0,0.0,0.0,0.0,0.0,0.0,0.0,0.0,0.0,0.0,0.0,0.0,0.0,0.0,0.0,0.0,0.0,0.0,0.0,0.0,0.0,0.0,0.0,0.0,0.0,0.0,0.0,0.0,0.0,0.0,0.0,0.0,0.0,0.0,0.0,0.0,0.0,0.0,0.0,0.0,0.0,0.0,0.0,0.0,0.0,0.0,0.0,0.0,0.0,0.0,0.0,0.0,0.0,0.0,0.0,0.0,0.0,0.0,0.0,0.0,4.7385,4.7309,4.7387,4.7664,0.0,0.0,0.0,0.0,0.0,0.0,0.0,0.0,0.0,0.0,0.0,0.0,0.0,0.0,0.0,0.0,0.0,0.0,0.0,0.0,0.0,0.0,0.0,0.0,0.0,0.0,0.0,0.0,0.0,0.0,0.0,0.0,0.0,0.0,0.0,0.0,0.0,0.0,0.0,0.0,0.0,0.0,0.0,0.0,0.0,0.0,0.0,0.0,0.0,0.0,0.0,0.0,0.0,0.0,0.0,0.0,0.0,0.0,0.0,0.0,0.0,0.0,0.0,0.0,0.0,0.0,0.0,0.0,0.0,0.0,0.0,0.0,0.0,0.0,0.0,0.0,0.0,0.0,0.0,0.0,0.0,0.0,0.0,0.0,0.0,0.0,0.0,0.0,0.0,0.0,0.0,0.0,0.0,0.0,0.0,0.0,0.0,0.0,0.0,0.0,0.0,0.0,0.0,0.0,0.0,0.0,0.0,0.0,0.0,0.0,4.7298,4.7298,4.732,4.7579,4.7794,4.7996,0.0,0.0,0.0,0.0,0.0,0.0,0.0,0.0,0.0,0.0,0.0,0.0,0.0,0.0,0.0,0.0,0.0,0.0,0.0,0.0,0.0,0.0,0.0,0.0,0.0,0.0,0.0,0.0,0.0,0.0,0.0,0.0,0.0,0.0,0.0,0.0,0.0,0.0,0.0,0.0,0.0,0.0,0.0,0.0,0.0,0.0,0.0,0.0,0.0,0.0,0.0,0.0,0.0,0.0,0.0,0.0,0.0,0.0,0.0,0.0,0.0,0.0,0.0,0.0,0.0,0.0,0.0,0.0,0.0,0.0,0.0,0.0,0.0,0.0,0.0,0.0,0.0,0.0,0.0,0.0,0.0,0.0,0.0,0.0,0.0,0.0,0.0,0.0,0.0,0.0,0.0,0.0,0.0,0.0,0.0,0.0,0.0,0.0,0.0,0.0,0.0,0.0,0.0,0.0,0.0,0.0,0.0,0.0,4.7298,4.7298,4.7298,4.7309,4.7771,4.7986,0.0,0.0,0.0,0.0,0.0,0.0,0.0,0.0,0.0,0.0,0.0,0.0,0.0,0.0,0.0,0.0,0.0,0.0,0.0,0.0,0.0,0.0,0.0,0.0,0.0,0.0,0.0,0.0,0.0,0.0,0.0,0.0,0.0,0.0,0.0,0.0,0.0,0.0,0.0,0.0,0.0,0.0,0.0,0.0,0.0,0.0,0.0,0.0,0.0,0.0,0.0,0.0,0.0,0.0,0.0,0.0,0.0,0.0,0.0,0.0,0.0,0.0,0.0,0.0,0.0,0.0,0.0,0.0,0.0,0.0,0.0,0.0,0.0,0.0,0.0,0.0,0.0,0.0,0.0,0.0,0.0,0.0,0.0,0.0,0.0,0.0,0.0,0.0,0.0,0.0,0.0,0.0,0.0,0.0,0.0,0.0,0.0,0.0,0.0,0.0,0.0,0.0,0.0,0.0,0.0,0.0,0.0,0.0,0.0,4.7298,4.7298,4.7298,4.7309,4.7611,4.7816,0.0,0.0,0.0,0.0,0.0,0.0,0.0,0.0,0.0,0.0,0.0,0.0,0.0,0.0,0.0,0.0,0.0,0.0,0.0,0.0,0.0,0.0,0.0,0.0,0.0,0.0,0.0,0.0,0.0,0.0,0.0,0.0,0.0,0.0,0.0,0.0,0.0,0.0,0.0,0.0,0.0,0.0,0.0,0.0,0.0,0.0,0.0,0.0,0.0,0.0,0.0,0.0,0.0,0.0,0.0,0.0,0.0,0.0,0.0,0.0,0.0,0.0,0.0,0.0,0.0,0.0,0.0,0.0,0.0,0.0,0.0,0.0,0.0,0.0,0.0,0.0,0.0,0.0,0.0,0.0,0.0,0.0,0.0,0.0,0.0,0.0,0.0,0.0,0.0,0.0,0.0,0.0,0.0,0.0,0.0,0.0,0.0,0.0,0.0,0.0,0.0,0.0,0.0,0.0,0.0,0.0,0.0,0.0,0.0,4.7298,0.0,4.7298,4.7309,4.757,4.7816,0.0,0.0,0.0,0.0,0.0,0.0,0.0,0.0,0.0,0.0,0.0,0.0,0.0,0.0,0.0,0.0,0.0,0.0,0.0,0.0,0.0,0.0,0.0,0.0,0.0,0.0,0.0,0.0,0.0,0.0,0.0,0.0,0.0,0.0,0.0,0.0,0.0,0.0,0.0,0.0,0.0,0.0,0.0,0.0,0.0,0.0,0.0,0.0,0.0,0.0,0.0,0.0,0.0,0.0,0.0,0.0,0.0,0.0,0.0,0.0,0.0,0.0,0.0,0.0,0.0,0.0,0.0,0.0,0.0,0.0,0.0,0.0,0.0,0.0,0.0,0.0,0.0,0.0,0.0,0.0,0.0,0.0,0.0,0.0,0.0,0.0,0.0,0.0,0.0,0.0,0.0,0.0,0.0,0.0,0.0,0.0,0.0,0.0,0.0,0.0,0.0,0.0,0.0,0.0,0.0,0.0,0.0,0.0,4.7339,4.7339,4.7358,4.7399,4.7339,4.7821,4.8046,0.0,0.0,0.0,0.0,0.0,0.0,0.0,0.0,0.0,0.0,0.0,0.0,0.0,0.0,0.0,0.0,0.0,0.0,0.0,0.0,0.0,0.0,0.0,0.0,0.0,0.0,0.0,0.0,0.0,0.0,0.0,0.0,0.0,0.0,0.0,0.0,0.0,0.0,0.0,0.0,0.0,0.0,0.0,0.0,0.0,0.0,0.0,0.0,0.0,0.0,0.0,0.0,0.0,0.0,0.0,0.0,0.0,0.0,0.0,0.0,0.0,0.0,0.0,0.0,0.0,0.0,0.0,0.0,0.0,0.0,0.0,0.0,0.0,0.0,0.0,0.0,0.0,0.0,0.0,0.0,0.0,0.0,0.0,0.0,0.0,0.0,0.0,0.0,0.0,0.0,0.0,0.0,0.0,0.0,0.0,0.0,0.0,0.0,0.0,0.0,0.0,0.0,0.0,0.0,0.0,0.0,0.0,0.0,0.0,4.8008,4.8427,4.8678,4.8689,4.9131,4.9148,0.0,0.0,0.0,0.0,0.0,0.0,0.0,0.0,0.0,0.0,0.0,0.0,0.0,0.0,0.0,0.0,0.0,0.0,0.0,0.0,0.0,0.0,0.0,0.0,0.0,0.0,0.0,0.0,0.0,0.0,0.0,0.0,0.0,0.0,0.0,0.0,0.0,0.0,0.0,0.0,0.0,0.0,0.0,0.0,0.0,0.0,0.0,0.0,0.0,0.0,0.0,0.0,0.0,0.0,0.0,0.0,0.0,0.0,0.0,0.0,0.0,0.0,0.0,0.0,0.0,0.0,0.0,0.0,0.0,0.0,0.0,0.0,0.0,0.0,0.0,0.0,0.0,0.0,0.0,0.0,0.0,0.0,0.0,0.0,0.0,0.0,0.0,0.0,0.0,0.0,0.0,0.0,0.0,0.0,0.0,0.0,0.0,0.0,0.0,0.0,0.0,0.0,0.0,0.0,0.0,0.0,0.0,0.0,0.0,4.8689,4.8906,4.904,4.904,4.9483,4.9674,4.9491,0.0,0.0,0.0,0.0,0.0,0.0,0.0,0.0,0.0,0.0,0.0,0.0,0.0,0.0,0.0,0.0,0.0,0.0,0.0,0.0,0.0,0.0,0.0,0.0,0.0,0.0,0.0,0.0,0.0,0.0,0.0,0.0,0.0,0.0,0.0,0.0,0.0,0.0,0.0,0.0,0.0,0.0,0.0,0.0,0.0,0.0,0.0,0.0,0.0,0.0,0.0,0.0,0.0,0.0,0.0,0.0,0.0,0.0,0.0,0.0,0.0,0.0,0.0,0.0,0.0,0.0,0.0,0.0,0.0,0.0,0.0,0.0,0.0,0.0,0.0,0.0,0.0,0.0,0.0,0.0,0.0,0.0,0.0,0.0,0.0,0.0,0.0,0.0,0.0,0.0,0.0,0.0,0.0,0.0,0.0,0.0,0.0,0.0,0.0,0.0,0.0,0.0,0.0,0.0,0.0,0.0,0.0,0.0,4.9352,4.8892,4.8648,4.8676,4.9144,4.9677,0.0,0.0,0.0,0.0,0.0,0.0,0.0,0.0,0.0,0.0,0.0,0.0,0.0,0.0,0.0,0.0,0.0,0.0,0.0,0.0,0.0,0.0,0.0,0.0,0.0,0.0,0.0,0.0,0.0,0.0,0.0,0.0,0.0,0.0,0.0,0.0,0.0,0.0,0.0,0.0,0.0,0.0,0.0,0.0,0.0,0.0,0.0,0.0,0.0,0.0,0.0,0.0,0.0,0.0,0.0,0.0,0.0,0.0,0.0,0.0,0.0,0.0,0.0,0.0,0.0,0.0,0.0,0.0,0.0,0.0,0.0,0.0,0.0,0.0,0.0,0.0,0.0,0.0,0.0,0.0,0.0,0.0,0.0,0.0,0.0,0.0,0.0,0.0,0.0,0.0,0.0,0.0,0.0,0.0,0.0,0.0,0.0,0.0,0.0,0.0,0.0,0.0,0.0,0.0,0.0,0.0,0.0,0.0,0.0,4.9791,4.9352,4.9111,4.9141,5.0214,5.0537,0.0,0.0,0.0,0.0,0.0,0.0,0.0,0.0,0.0,0.0,0.0,0.0,0.0,0.0,0.0,0.0,0.0,0.0,0.0,0.0,0.0,0.0,0.0,0.0,0.0,0.0,0.0,0.0,0.0,0.0,0.0,0.0,0.0,0.0,0.0,0.0,0.0,0.0,0.0,0.0,0.0,0.0,0.0,0.0,0.0,0.0,0.0,0.0,0.0,0.0,0.0,0.0,0.0,0.0,0.0,0.0,0.0,0.0,0.0,0.0,0.0,0.0,0.0,0.0,0.0,0.0,0.0,0.0,0.0,0.0,0.0,0.0,0.0,0.0,0.0,0.0,0.0,0.0,0.0,0.0,0.0,0.0,0.0,0.0,0.0,0.0,0.0,0.0,0.0,0.0,0.0,0.0,0.0,0.0,0.0,0.0,0.0,0.0,0.0,0.0,0.0,0.0,0.0,0.0,0.0,0.0,0.0,0.0,4.9935,4.9987,4.9348,4.8916,4.8747,5.0227,5.0958,0.0,0.0,0.0,0.0,0.0,0.0,0.0,0.0,0.0,0.0,0.0,0.0,0.0,0.0,0.0,0.0,0.0,0.0,0.0,0.0,0.0,0.0,0.0,0.0,0.0,0.0,0.0,0.0,0.0,0.0,0.0,0.0,0.0,0.0,0.0,0.0,0.0,0.0,0.0,0.0,0.0,0.0,0.0,0.0,0.0,0.0,0.0,0.0,0.0,0.0,0.0,0.0,0.0,0.0,0.0,0.0,0.0,0.0,0.0,0.0,0.0,0.0,0.0,0.0,0.0,0.0,0.0,0.0,0.0,0.0,0.0,0.0,0.0,0.0,0.0,0.0,0.0,0.0,0.0,0.0,0.0,0.0,0.0,0.0,0.0,0.0,0.0,0.0,0.0,0.0,0.0,0.0,0.0,0.0,0.0,0.0,0.0,0.0,0.0,0.0,0.0,0.0,0.0,0.0,0.0,0.0,0.0,0.0,5.0179,4.9954,4.907,4.8427,4.8122,4.9766,5.0963,0.0,0.0,0.0,0.0,0.0,0.0,0.0,0.0,0.0,0.0,0.0,0.0,0.0,0.0,0.0,0.0,0.0,0.0,0.0,0.0,0.0,0.0,0.0,0.0,0.0,0.0,0.0,0.0,0.0,0.0,0.0,0.0,0.0,0.0,0.0,0.0,0.0,0.0,0.0,0.0,0.0,0.0,0.0,0.0,0.0,0.0,0.0,0.0,0.0,0.0,0.0,0.0,0.0,0.0,0.0,0.0,0.0,0.0,0.0,0.0,0.0,0.0,0.0,0.0,0.0,0.0,0.0,0.0,0.0,0.0,0.0,0.0,0.0,0.0,0.0,0.0,0.0,0.0,0.0,0.0,0.0,0.0,0.0,0.0,0.0,0.0,0.0,0.0,0.0,0.0,0.0,0.0,0.0,0.0,0.0,0.0,0.0,0.0,0.0,0.0,0.0,0.0,0.0,0.0,0.0,0.0,0.0,0.0,4.9955,4.9737,4.8856,4.8386,4.8489,4.9916,5.0641,0.0,0.0,0.0,0.0,0.0,0.0,0.0,0.0,0.0,0.0,0.0,0.0,0.0,0.0,0.0,0.0,0.0,0.0,0.0,0.0,0.0,0.0,0.0,0.0,0.0,0.0,0.0,0.0,0.0,0.0,0.0,0.0,0.0,0.0,0.0,0.0,0.0,0.0,0.0,0.0,0.0,0.0,0.0,0.0,0.0,0.0,0.0,0.0,5.3476,0.0,0.0,0.0,0.0,0.0,0.0,0.0,0.0,0.0,0.0,0.0,0.0,0.0,0.0,0.0,0.0,0.0,0.0,0.0,0.0,0.0,0.0,0.0,0.0,0.0,0.0,0.0,0.0,0.0,0.0,0.0,0.0,0.0,0.0,0.0,0.0,0.0,0.0,0.0,0.0,0.0,0.0,0.0,0.0,0.0,0.0,0.0,0.0,0.0,0.0,0.0,0.0,0.0,0.0,0.0,0.0,0.0,0.0,0.0,5.0111,4.9712,4.8869,4.848,4.8614,4.9651,5.0305,0.0,0.0,0.0,0.0,0.0,0.0,0.0,0.0,0.0,0.0,0.0,0.0,0.0,0.0,0.0,0.0,0.0,0.0,0.0,0.0,0.0,0.0,0.0,0.0,0.0,0.0,0.0,0.0,0.0,0.0,0.0,0.0,0.0,0.0,0.0,0.0,0.0,0.0,0.0,0.0,0.0,0.0,0.0,0.0,0.0,0.0,0.0,0.0,0.0,0.0,0.0,0.0,0.0,0.0,0.0,0.0,0.0,0.0,0.0,0.0,0.0,0.0,0.0,0.0,0.0,0.0,0.0,0.0,0.0,0.0,0.0,0.0,0.0,0.0,0.0,0.0,0.0,0.0,0.0,0.0,0.0,0.0,0.0,0.0,0.0,0.0,0.0,0.0,0.0,0.0,0.0,0.0,0.0,0.0,0.0,0.0,0.0,0.0,0.0,0.0,0.0,0.0,0.0,0.0,0.0,0.0,0.0,5.0936,5.0388,4.9538,4.8901,4.8563,4.8625,4.9404,5.0112,5.0677,0.0,0.0,0.0,0.0,0.0,0.0,0.0,0.0,0.0,0.0,0.0,0.0,0.0,0.0,0.0,0.0,0.0,0.0,0.0,0.0,0.0,0.0,0.0,0.0,0.0,0.0,0.0,0.0,0.0,0.0,0.0,0.0,0.0,0.0,0.0,0.0,0.0,0.0,5.1656,5.2388,0.0,0.0,0.0,0.0,0.0,0.0,0.0,0.0,5.5045,0.0,0.0,0.0,0.0,0.0,0.0,0.0,0.0,0.0,0.0,0.0,0.0,0.0,0.0,0.0,0.0,0.0,0.0,0.0,0.0,0.0,0.0,0.0,0.0,0.0,0.0,0.0,0.0,0.0,0.0,0.0,0.0,0.0,0.0,0.0,0.0,0.0,0.0,0.0,0.0,0.0,0.0,0.0,0.0,0.0,0.0,0.0,0.0,0.0,0.0,0.0,0.0,0.0,0.0,0.0,0.0,5.0828,5.1074,5.0399,4.884,4.852,4.8417,4.8614,4.9866,5.0574,5.0708,0.0,0.0,0.0,0.0,0.0,0.0,0.0,0.0,0.0,0.0,0.0,0.0,0.0,0.0,0.0,0.0,0.0,0.0,0.0,0.0,0.0,0.0,0.0,0.0,0.0,0.0,0.0,0.0,0.0,0.0,0.0,0.0,0.0,0.0,0.0,0.0,0.0,0.0,0.0,5.2962,5.3568,0.0,0.0,0.0,0.0,0.0,0.0,0.0,0.0,5.6835,0.0,0.0,0.0,0.0,0.0,0.0,0.0,0.0,0.0,0.0,0.0,0.0,0.0,0.0,0.0,0.0,0.0,0.0,0.0,0.0,0.0,0.0,0.0,0.0,0.0,0.0,0.0,0.0,0.0,0.0,0.0,0.0,0.0,0.0,0.0,0.0,0.0,0.0,0.0,0.0,0.0,0.0,0.0,0.0,0.0,0.0,0.0,0.0,0.0,0.0,0.0,0.0,0.0,0.0,0.0,5.0717,5.0538,4.9883,4.8645,4.8521,4.849,4.8625,4.9948,5.0697,0.0,0.0,0.0,0.0,0.0,0.0,0.0,0.0,0.0,0.0,0.0,0.0,0.0,0.0,0.0,0.0,0.0,0.0,0.0,0.0,0.0,0.0,0.0,0.0,0.0,0.0,0.0,0.0,0.0,0.0,0.0,0.0,0.0,0.0,0.0,0.0,0.0,0.0,0.0,0.0,5.3212,5.3695,5.416,0.0,0.0,0.0,0.0,0.0,0.0,5.7574,5.7709,0.0,0.0,0.0,0.0,0.0,0.0,0.0,0.0,0.0,0.0,0.0,0.0,0.0,0.0,0.0,0.0,0.0,0.0,0.0,0.0,0.0,0.0,0.0,0.0,0.0,0.0,0.0,0.0,0.0,0.0,0.0,0.0,0.0,0.0,0.0,0.0,0.0,0.0,0.0,0.0,0.0,0.0,0.0,0.0,0.0,0.0,0.0,0.0,0.0,0.0,0.0,0.0,0.0,0.0,0.0,5.0882,5.0246,4.9466,4.8655,4.8583,4.8583,4.8614,5.0236,5.0974,0.0,0.0,0.0,0.0,0.0,0.0,0.0,0.0,0.0,0.0,0.0,0.0,0.0,0.0,0.0,0.0,0.0,0.0,0.0,0.0,0.0,0.0,0.0,0.0,0.0,0.0,0.0,0.0,0.0,0.0,0.0,0.0,0.0,0.0,0.0,0.0,0.0,0.0,0.0,0.0,0.0,5.3985,5.4794,5.5592,0.0,0.0,0.0,0.0,5.8541,5.8153,0.0,0.0,0.0,0.0,0.0,0.0,0.0,0.0,0.0,0.0,0.0,0.0,0.0,0.0,0.0,0.0,0.0,0.0,0.0,0.0,0.0,0.0,0.0,0.0,0.0,0.0,0.0,0.0,0.0,0.0,0.0,0.0,0.0,0.0,0.0,0.0,0.0,0.0,0.0,0.0,0.0,0.0,0.0,0.0,0.0,0.0,0.0,0.0,0.0,0.0,0.0,0.0,0.0,0.0,0.0,0.0,5.159,5.0913,4.9959,4.8655,4.8583,4.8583,4.8614,5.1117,5.1929,0.0,0.0,0.0,0.0,0.0,0.0,0.0,0.0,0.0,0.0,0.0,0.0,0.0,0.0,0.0,0.0,0.0,0.0,0.0,0.0,0.0,0.0,0.0,0.0,0.0,0.0,0.0,0.0,0.0,0.0,0.0,0.0,0.0,0.0,0.0,0.0,0.0,0.0,0.0,0.0,0.0,5.5202,5.5525,5.6724,5.7598,0.0,0.0,5.7832,5.7894,5.7832,0.0,0.0,0.0,0.0,0.0,0.0,0.0,0.0,0.0,0.0,0.0,0.0,0.0,0.0,0.0,0.0,0.0,0.0,0.0,0.0,0.0,0.0,0.0,0.0,0.0,0.0,0.0,0.0,0.0,0.0,0.0,0.0,0.0,0.0,0.0,0.0,0.0,0.0,0.0,0.0,0.0,0.0,0.0,0.0,0.0,0.0,0.0,0.0,0.0,0.0,0.0,0.0,0.0,0.0,0.0,5.1621,5.1652,5.0256,4.9404,4.922,4.923,4.9404,4.9805,5.2052,5.281,0.0,0.0,0.0,0.0,0.0,0.0,0.0,0.0,0.0,0.0,0.0,0.0,0.0,0.0,0.0,0.0,0.0,0.0,0.0,0.0,0.0,0.0,0.0,0.0,0.0,0.0,0.0,0.0,0.0,0.0,0.0,0.0,0.0,0.0,0.0,0.0,0.0,0.0,0.0,0.0,0.0,0.0,5.6202,5.7494,0.0,0.0,0.0,5.9095,5.9452,0.0,0.0,0.0,0.0,0.0,0.0,0.0,0.0,0.0,0.0,0.0,0.0,0.0,0.0,0.0,0.0,0.0,0.0,0.0,0.0,0.0,0.0,0.0,0.0,0.0,0.0,0.0,0.0,0.0,0.0,0.0,0.0,0.0,0.0,0.0,0.0,0.0,0.0,0.0,0.0,0.0,0.0,0.0,0.0,0.0,0.0,0.0,0.0,0.0,0.0,0.0,0.0,0.0,0.0,0.0,0.0,0.0,5.2133,5.0194,4.9404,4.9938,4.9938,5.0174,5.0697,5.2471,0.0,0.0,0.0,0.0,0.0,0.0,0.0,0.0,0.0,0.0,0.0,0.0,0.0,0.0,0.0,0.0,0.0,0.0,0.0,0.0,0.0,0.0,0.0,0.0,0.0,0.0,0.0,5.0327,0.0,0.0,0.0,0.0,0.0,0.0,0.0,0.0,0.0,0.0,0.0,0.0,0.0,0.0,5.5884,5.691,5.8202,5.8929,0.0,0.0,5.9839,6.0024,5.8651,5.8048,0.0,0.0,0.0,0.0,0.0,0.0,0.0,0.0,0.0,0.0,0.0,0.0,0.0,0.0,0.0,0.0,0.0,0.0,0.0,0.0,0.0,0.0,0.0,0.0,0.0,0.0,0.0,0.0,0.0,0.0,0.0,0.0,0.0,0.0,0.0,0.0,0.0,0.0,0.0,0.0,0.0,0.0,0.0,0.0,0.0,0.0,0.0,0.0,0.0,0.0,0.0,0.0,0.0,0.0,0.0,5.3445,5.159,5.0585,5.0647,5.0616,5.0636,5.0739,5.2052,5.2779,0.0,0.0,0.0,0.0,0.0,0.0,0.0,0.0,0.0,0.0,0.0,0.0,0.0,0.0,0.0,0.0,0.0,0.0,0.0,0.0,0.0,0.0,0.0,0.0,0.0,0.0,0.0,0.0,0.0,0.0,0.0,0.0,0.0,0.0,0.0,0.0,0.0,0.0,0.0,0.0,0.0,5.7358,5.7685,5.8879,5.9298,0.0,0.0,5.939,5.8202,5.7371,5.7555,5.9483,0.0,0.0,0.0,0.0,0.0,0.0,0.0,0.0,0.0,0.0,0.0,0.0,0.0,0.0,0.0,0.0,0.0,0.0,0.0,0.0,0.0,0.0,0.0,0.0,0.0,0.0,0.0,0.0,0.0,0.0,0.0,0.0,0.0,0.0,0.0,0.0,0.0,0.0,0.0,0.0,0.0,0.0,0.0,0.0,0.0,0.0,0.0,0.0,0.0,0.0,0.0,0.0,0.0,5.2779,5.366,5.1744,5.0913,5.1282,5.1313,5.1498,5.1929,5.2841,5.3702,0.0,0.0,0.0,0.0,0.0,0.0,0.0,0.0,0.0,0.0,0.0,0.0,0.0,0.0,0.0,0.0,0.0,0.0,0.0,0.0,0.0,0.0,0.0,0.0,0.0,0.0,0.0,0.0,5.206,5.2156,5.2984,0.0,0.0,0.0,0.0,0.0,0.0,0.0,0.0,0.0,0.0,5.7505,5.7765,5.8602,0.0,0.0,5.9206,5.976,5.9667,5.9082,5.9175,6.0794,6.0824,0.0,0.0,0.0,0.0,0.0,0.0,0.0,0.0,0.0,0.0,0.0,0.0,0.0,0.0,0.0,0.0,0.0,0.0,0.0,0.0,0.0,0.0,0.0,0.0,0.0,0.0,0.0,0.0,0.0,0.0,0.0,0.0,0.0,0.0,0.0,0.0,0.0,0.0,0.0,0.0,0.0,0.0,0.0,0.0,0.0,0.0,0.0,0.0,0.0,0.0,0.0,0.0,5.3425,5.4287,5.2329,5.1517,5.1979,5.1979,5.2225,5.2687,5.3137,5.3949,0.0,0.0,0.0,0.0,0.0,0.0,0.0,0.0,0.0,0.0,0.0,0.0,0.0,0.0,0.0,0.0,0.0,0.0,0.0,0.0,0.0,0.0,0.0,0.0,0.0,0.0,0.0,0.0,5.3134,5.3309,5.3941,0.0,0.0,0.0,0.0,0.0,0.0,0.0,0.0,0.0,0.0,5.7715,5.83,5.8972,5.9403,5.939,6.0116,6.0732,6.0794,6.0393,6.0547,6.1902,0.0,0.0,0.0,0.0,0.0,0.0,0.0,0.0,0.0,0.0,0.0,0.0,0.0,0.0,0.0,0.0,0.0,0.0,0.0,0.0,0.0,0.0,0.0,0.0,0.0,0.0,0.0,0.0,0.0,0.0,0.0,0.0,0.0,0.0,0.0,0.0,0.0,0.0,0.0,0.0,0.0,0.0,0.0,0.0,0.0,0.0,0.0,0.0,0.0,0.0,0.0,0.0,0.0,5.4318,5.5603,5.361,5.2656,5.2687,5.2687,5.2687,5.2718,5.2718,5.3045,5.3753,0.0,0.0,0.0,0.0,0.0,0.0,0.0,0.0,0.0,0.0,0.0,0.0,0.0,0.0,0.0,0.0,0.0,0.0,0.0,0.0,0.0,0.0,0.0,0.0,0.0,0.0,5.4746,5.4959,5.4928,0.0,0.0,0.0,0.0,0.0,0.0,0.0,0.0,0.0,0.0,5.8071,5.8282,5.9575,6.0332,6.0732,6.0732,6.1827,6.2289,6.1071,6.0842,6.1255,0.0,0.0,0.0,0.0,0.0,0.0,0.0,0.0,0.0,0.0,0.0,0.0,0.0,0.0,0.0,0.0,0.0,0.0,0.0,0.0,0.0,0.0,0.0,0.0,0.0,0.0,0.0,5.014,5.0541,0.0,0.0,0.0,0.0,0.0,0.0,0.0,0.0,0.0,0.0,0.0,5.326,5.4147,0.0,0.0,0.0,0.0,0.0,0.0,0.0,0.0,0.0,0.0,0.0,0.0,5.481,5.5542,5.3714,5.2718,5.2718,5.2718,5.2718,5.2718,5.2718,5.3014,5.3702,0.0,0.0,0.0,0.0,0.0,0.0,0.0,0.0,0.0,0.0,0.0,0.0,0.0,0.0,0.0,0.0,0.0,0.0,0.0,0.0,0.0,0.0,0.0,0.0,0.0,5.4952,0.0,0.0,0.0,0.0,0.0,0.0,0.0,0.0,0.0,0.0,0.0,5.9325,5.9312,5.9973,6.0455,6.0468,6.1027,6.1317,0.0,0.0,0.0,0.0,0.0,0.0,0.0,0.0,0.0,0.0,0.0,0.0,0.0,0.0,6.4905,6.3968,6.3998,6.4166,6.4197,0.0,0.0,0.0,0.0,0.0,0.0,0.0,0.0,0.0,0.0,0.0,0.0,0.0,0.0,0.0,0.0,5.1325,0.0,0.0,0.0,0.0,0.0,0.0,0.0,0.0,5.368,5.3871,5.3473,5.4329,5.4583,0.0,5.4829,5.4941,0.0,0.0,0.0,0.0,0.0,0.0,0.0,0.0,5.5869,5.665,5.4533,5.3383,5.3395,5.3395,5.3383,5.3383,5.3395,5.361,5.4029,5.5345,5.6096,0.0,0.0,0.0,0.0,0.0,0.0,0.0,0.0,0.0,0.0,0.0,0.0,0.0,0.0,0.0,0.0,0.0,0.0,0.0,0.0,0.0,0.0,0.0,5.6488,0.0,0.0,0.0,0.0,0.0,0.0,0.0,0.0,0.0,5.8641,5.9461,6.0055,5.9821,6.0948,6.1809,6.1827,0.0,0.0,0.0,0.0,0.0,0.0,0.0,6.5719,6.6136,6.5797,6.5442,6.5274,6.4843,6.4781,6.5459,0.0,0.0,6.5058,6.5274,6.5582,6.5551,6.6334,6.695,6.6919,6.7289,6.7596,0.0,0.0,0.0,0.0,0.0,0.0,0.0,0.0,5.0051,5.0327,0.0,5.1696,0.0,0.0,0.0,0.0,0.0,0.0,0.0,0.0,5.2247,5.2471,5.366,5.4295,5.4306,5.3814,5.5002,5.5279,5.4706,5.406,0.0,0.0,0.0,0.0,0.0,0.0,5.7475,5.8528,5.6011,5.4706,5.4676,5.4676,5.4664,5.4676,5.4676,5.4676,5.4737,5.5973,5.6127,5.4891,5.7254,0.0,0.0,0.0,0.0,0.0,0.0,0.0,0.0,0.0,0.0,0.0,0.0,0.0,0.0,0.0,0.0,0.0,0.0,0.0,0.0,5.7684,0.0,0.0,0.0,0.0,0.0,0.0,0.0,0.0,0.0,0.0,5.9255,6.016,6.0714,6.0098,0.0,0.0,0.0,0.0,6.4552,6.6443,6.6813,6.6782,6.672,6.575,6.498,6.5011,0.0,0.0,6.5582,6.6936,6.7828,6.8627,6.7627,6.6905,6.6905,6.772,6.8534,6.8565,6.8551,6.8812,6.8842,6.8688,6.8812,4.9763,0.0,0.0,0.0,0.0,5.0996,5.1247,5.139,5.1558,5.1876,5.2366,5.2749,0.0,0.0,0.0,0.0,0.0,0.0,5.4114,5.326,5.3634,5.3537,5.2995,5.3168,5.3414,5.3722,5.4091,5.4429,5.4664,5.4522,5.5376,5.7174,0.0,0.0,0.0,0.0,5.7463,5.7278,5.561,5.4706,5.4706,5.4706,5.4706,5.4706,5.4706,5.4706,5.4695,5.5087,5.5592,5.6158,5.6447,0.0,0.0,0.0,0.0,0.0,0.0,0.0,0.0,0.0,0.0,0.0,0.0,0.0,0.0,0.0,0.0,0.0,0.0,0.0,5.9694,5.9045,5.8965,0.0,0.0,0.0,0.0,0.0,0.0,0.0,0.0,0.0,6.1735,6.2856,6.3656,0.0,0.0,6.5582,6.5951,6.5612,6.5335,6.5472,0.0,0.0,0.0,6.5212,6.5766,6.6228,6.5982,6.592,6.6505,6.615,6.5996,6.6673,6.6843,6.7028,6.749,6.709,6.6827,6.6827,6.749,6.8167,6.8197,6.852,6.8904,4.9505,4.9901,5.0368,5.0607,5.0626,5.1038,5.1169,5.1061,5.1307,5.1636,5.2037,5.2588,5.2588,5.2258,5.3296,0.0,0.0,0.0,5.4178,5.2925,5.3872,5.3876,5.3148,5.3353,5.3691,5.4091,5.4079,5.4295,5.4725,5.5549,5.6546,5.7771,0.0,0.0,5.976,5.8467,5.774,5.7525,5.6219,5.5561,5.553,5.553,5.553,5.5561,5.5518,5.553,5.5518,5.553,5.5788,5.6336,5.6477,5.6866,0.0,0.0,0.0,0.0,0.0,0.0,0.0,0.0,0.0,0.0,0.0,5.5869,5.6724,0.0,0.0,0.0,5.8898,6.0129,6.1458,6.1101,0.0,0.0,0.0,0.0,0.0,0.0,0.0,6.3137,6.366,6.4012,6.4029,6.4764,6.5011,6.418,6.5472,6.6413,6.615,0.0,6.5735,6.5349,6.5534,6.5612,6.5445,6.5705,6.5965,6.6074,6.632,6.6628,6.6843,6.6413,6.6334,6.695,6.7412,6.7812,6.8228,6.7428,6.6782,6.7042,6.772,6.8212,6.7982,6.8228,6.8427,4.9438,4.9546,5.072,5.1146,5.1116,5.1176,5.0541,4.9527,5.0081,5.0297,5.0387,5.16,5.2163,5.227,5.379,0.0,0.0,5.3825,5.3682,5.2524,5.3373,5.3783,5.3814,5.4399,5.4725,5.4768,5.4787,5.4829,5.4952,5.6773,5.7802,5.7968,5.7352,5.7986,5.9698,5.8726,5.8356,5.8775,5.766,5.6952,5.6798,5.6785,5.6785,5.6785,5.6785,5.6798,5.6785,5.6798,5.6477,5.5881,5.7032,5.7155,5.6004,0.0,0.0,0.0,0.0,0.0,0.0,0.0,0.0,0.0,0.0,0.0,0.0,0.0,0.0,0.0,5.9791,0.0,6.2443,6.3198,0.0,0.0,0.0,6.3383,6.2179,6.315,6.3906,6.3937,0.0,0.0,0.0,0.0,6.5089,6.3212,6.4658,6.5688,6.5134,6.5582,6.5889,6.5859,6.6351,6.6905,6.7059,6.6566,6.592,6.5534,6.5688,6.6488,6.7028,6.7459,6.8105,6.8534,6.875,6.8688,6.8719,6.8074,6.8013,6.8473,6.8658,6.8504,6.7921,6.7797,6.7674,5.075,5.078,5.1068,5.0907,5.0465,5.0996,5.1038,5.0769,5.0877,5.0966,5.102,5.153,5.1837,5.2113,5.2977,5.3289,5.3183,5.4166,5.4448,5.4164,5.4364,5.4449,5.4479,5.4633,5.4952,5.5426,5.5468,5.5745,5.6293,5.6785,5.7802,5.9236,5.9175,5.9575,6.0517,6.0763,6.0191,5.8818,5.899,5.8325,5.6847,5.6785,5.6785,5.6785,5.6785,5.6785,5.6785,5.6785,5.6705,5.6582,5.6859,5.7136,5.7309,5.774,0.0,0.0,0.0,0.0,0.0,0.0,0.0,0.0,0.0,5.9298,5.9809,0.0,6.195,0.0,6.1132,6.0732,6.0517,6.1581,0.0,0.0,6.4104,6.4518,6.421,6.4457,6.4857,6.5335,6.5257,6.5319,6.5828,6.5459,6.498,6.4474,6.5243,6.6027,6.632,6.6105,6.5889,6.5889,6.5657,6.5442,6.5719,6.6259,6.6751,6.712,6.7705,6.8257,6.8366,6.812,6.7968,6.8074,6.7705,6.7428,6.7397,6.7213,6.7182,6.7336,6.7367,6.7336,6.7182,6.7151,6.709,5.1217,5.1247,5.1646,5.1945,5.2113,5.1486,5.1217,5.1217,5.1217,5.1437,5.1867,5.2426,5.2735,5.2936,5.3418,5.3699,5.3828,5.4417,5.4706,5.4725,5.5014,5.5149,5.5149,5.5499,5.585,5.62,5.6188,5.6385,5.6798,5.7106,5.7832,5.8898,5.9206,5.9852,6.0794,6.1779,6.1673,6.0622,6.0363,5.9434,5.7771,5.7678,5.7986,5.8572,5.8602,5.8879,5.9452,5.9483,5.9483,5.9483,5.9452,5.9483,5.9575,5.987,5.9901,0.0,0.0,0.0,0.0,0.0,0.0,0.0,0.0,0.0,0.0,0.0,6.3058,0.0,6.2473,0.0,6.2887,6.3643,6.4135,6.4289,6.4905,6.5103,6.4474,6.4703,6.5042,6.5411,6.5134,6.5042,6.5397,6.5134,6.5011,6.5319,6.5643,6.5934,6.6012,6.6136,6.6242,6.5934,6.5842,6.5811,6.5797,6.6413,6.7014,6.7397,6.7767,6.7997,6.7997,6.7705,6.7445,6.7414,6.7151,6.6905,6.6905,6.6628,6.6474,6.6413,6.6197,6.6136,6.6396,6.6457,6.6382,5.1445,5.1528,5.2394,5.3417,5.4321,5.2365,5.1772,5.2072,5.2072,5.2448,5.3143,5.3733,5.4023,5.4125,5.4418,5.4524,5.459,5.484,5.4983,5.5014,5.5561,5.585,5.5869,5.657,5.6921,5.6921,5.7013,5.7087,5.7075,5.7648,5.8048,5.8325,5.8898,5.9883,6.1317,6.2473,6.3027,6.2922,6.1612,6.0363,5.9206,5.936,5.9993,6.1101,6.1101,6.1594,6.275,6.2812,6.2812,6.2812,6.2812,6.2443,6.1735,6.2319,6.2073,0.0,6.1304,0.0,0.0,0.0,0.0,0.0,0.0,0.0,0.0,6.1563,6.3533,6.4672,6.3735,6.3937,6.6074,6.6413,6.5982,6.4826,6.5319,6.5243,6.4012,6.4457,6.4918,6.5011,6.4949,6.4932,6.5195,6.5103,6.5257,6.5735,6.5982,6.5873,6.5319,6.6136,6.6659,6.6074,6.6505,6.6751,6.6782,6.6843,6.6905,6.6905,6.6997,6.6905,6.6966,6.6829,6.6782,6.6751,6.6659,6.6597,6.6751,6.6304,6.5982,6.6074,6.5719,6.5472,6.5719,6.5889,6.5688,5.2827,5.2851,5.3254,5.3561,5.3754,5.356,5.4716,5.6723,5.6723,5.6344,5.5609,5.4484,5.4201,5.4585,5.5019,5.5281,5.5513,5.6115,5.6385,5.6416,5.6539,5.6582,5.6631,5.729,5.7629,5.766,5.8171,5.8418,5.8418,5.8541,5.9452,6.1009,6.115,6.221,6.4039,0.0,0.0,0.0,6.2289,6.1489,6.1286,6.2289,6.2966,6.3212,6.272,0.0,6.2781,6.2812,6.2812,6.2812,6.2812,0.0,0.0,0.0,0.0,0.0,0.0,0.0,0.0,0.0,0.0,0.0,6.3133,6.3441,6.1502,6.3243,6.4364,6.4043,6.4303,6.4012,6.2904,6.3752,6.406,6.3366,6.4334,6.4751,6.3937,6.4474,6.5103,6.5657,6.5257,6.5319,6.6228,6.6043,6.575,6.5903,6.6382,6.6413,6.5797,6.6382,6.6813,6.6737,6.6782,6.6874,6.6905,6.6874,6.6782,6.6905,6.6905,6.6874,6.6843,6.6443,6.6105,6.6136,6.5657,6.5534,6.6012,6.5965,6.6074,6.6597,6.6566,6.6242,6.5319,6.5534,6.5873,5.3198,0.0,5.4002,5.4673,0.0,5.6042,5.7498,5.9241,5.6991,5.5981,5.5877,5.5552,5.5531,5.5807,5.7009,5.7635,5.782,5.9483,5.9729,5.8818,5.9126,5.8744,5.7814,5.814,5.8294,5.8294,5.8633,5.8818,5.8818,5.9113,5.9821,6.0794,6.1132,6.184,6.2825,6.2856,6.301,6.3291,6.2627,6.1994,6.1379,6.195,6.2627,6.326,0.0,0.0,0.0,0.0,0.0,0.0,0.0,0.0,0.0,0.0,0.0,6.1379,6.1581,6.1502,6.0886,6.144,6.1656,6.1379,6.2887,6.3718,6.3349,6.3379,6.3489,6.3797,6.3858,6.3718,6.341,6.3612,6.3827,6.3858,6.4487,6.4857,6.4874,6.5151,6.5657,6.6228,6.6074,6.6074,6.6351,6.6443,6.6228,6.5996,6.6474,6.6751,6.6505,6.669,6.6905,6.6874,6.6566,6.6427,6.6396,6.6074,6.5934,6.592,6.6166,6.6382,6.6413,6.6413,6.6382,6.6382,6.6105,6.6027,6.6289,6.6382,6.6505,6.6813,6.6905,6.672,6.6027,6.6136,6.6382,5.3582,5.3728,5.4855,5.601,5.7149,5.8298,5.9421,6.0183,0.0,0.0,0.0,5.6701,5.6982,5.7093,5.8849,5.9637,5.976,6.1889,6.2012,6.0486,6.1009,6.0393,5.8849,5.8941,5.8972,5.8972,5.9082,5.9144,5.9175,5.9698,5.9975,6.0037,6.0547,6.0794,6.0794,6.0794,6.1348,6.2412,6.2812,6.2443,6.1365,6.1563,6.2196,6.3335,6.3243,6.3704,6.4857,6.4901,6.4901,6.4901,6.4901,6.4518,6.3691,6.3629,6.3335,6.2689,6.2627,6.2166,6.1212,6.1642,6.1796,6.1348,6.2227,6.3349,6.4611,6.312,6.2658,6.3889,6.3489,6.3643,6.4778,6.4381,6.4228,6.4857,6.5011,6.5288,6.5797,6.5889,6.6136,6.6751,6.672,6.6597,6.6197,6.6566,6.6659,6.615,6.6351,6.672,6.672,6.6659,6.6597,6.6413,6.6119,6.592,6.5859,6.5719,6.5257,6.5503,6.5842,6.6043,6.6136,6.6536,6.6874,6.6829,6.6905,6.6936,6.7028,6.709,6.712,6.7213,6.7258,6.7258,6.7258,6.7243,6.7243,5.506,5.537,5.6304,5.6961,5.7412,5.8385,5.891,5.9021,5.8392,5.8207,5.8294,5.7851,5.766,5.7722,5.8572,5.8941,5.8972,5.9329,5.9329,0.0,5.9187,5.9052,5.8849,5.939,5.9667,5.9698,6.0252,6.053,6.0517,6.0622,6.0671,6.0671,6.0763,6.0794,6.0794,6.0794,6.0886,6.1132,6.2781,6.3568,6.3414,6.4535,6.5257,6.5442,6.4857,6.4672,6.4888,6.4871,6.4901,6.4901,6.4901,6.4303,6.3045,6.2966,6.2627,6.2012,6.195,6.2104,6.2504,6.2627,6.2873,6.3291,6.3027,6.315,6.3858,6.3691,6.3858,6.4628,6.458,6.4672,6.4888,6.4764,6.4703,6.4949,6.5425,6.5811,6.5903,6.5889,6.618,6.6813,6.6382,6.6289,6.6597,6.6782,6.6597,6.6088,6.6027,6.6074,6.6166,6.6057,6.5811,6.5411,6.5626,6.5859,6.5982,6.6365,6.6443,6.6628,6.6659,6.6751,6.6751,6.6936,6.7059,6.6936,6.7059,6.7213,6.7644,6.7767,6.7951,6.8335,6.8504,6.8565,6.852,6.8581,6.8473,5.6793,5.6976,5.7514,5.7843,5.7981,5.8539,5.8818,5.8818,5.8818,5.8818,5.8787,5.8479,5.8356,5.8479,5.9791,6.0424,6.0499,6.1977,6.2069,6.104,6.1335,6.0948,5.9963,6.0222,6.0345,6.0376,6.064,6.0794,6.0824,6.1163,6.1335,6.1365,6.1673,6.1889,6.1889,6.1889,6.1889,6.1889,6.2073,6.2166,6.2196,6.2781,6.3133,6.3133,6.2825,6.2671,6.2671,6.2671,6.2856,6.3225,6.3225,6.3089,6.2843,6.2812,6.2658,6.235,6.235,6.2473,6.2781,6.3137,6.3643,6.432,6.4104,6.4074,6.4381,6.4381,6.4549,6.4857,6.4549,6.4628,6.5319,6.4764,6.4597,6.538,6.5442,6.5503,6.5828,6.5889,6.618,6.6751,6.6659,6.6443,6.6351,6.6351,6.6105,6.5534,6.5626,6.6027,6.6382,6.6443,6.6351,6.6074,6.6273,6.6413,6.6474,6.669,6.6874,6.6905,6.7213,6.7397,6.749,6.7674,6.7935,6.7966,6.7966,6.8089,6.8427,6.8458,6.8612,6.8781,6.9243,6.9397,6.9458,6.969,6.972,5.8016,5.8092,5.8479,5.8759,5.8945,5.9148,5.9249,5.9267,5.928,5.9236,5.9236,5.9113,5.9021,5.9206,6.0824,6.1563,6.1871,6.3779,6.3872,6.2504,6.2873,6.2289,6.0917,6.0794,6.0886,6.1022,6.104,6.1088,6.1286,6.1766,6.2012,6.2086,6.2535,6.2812,6.2812,6.2812,6.2812,6.275,6.1766,6.1255,6.1242,6.1255,6.1286,6.1255,6.1286,6.1242,6.1255,6.1255,6.1502,6.1981,6.2012,6.2271,6.275,6.2812,6.2873,6.2997,6.3027,6.312,6.3273,6.3568,6.4135,6.4826,6.4901,6.4901,6.4918,6.5042,6.5042,6.4857,6.4426,6.4535,6.5288,6.4751,6.4566,6.5719,6.5442,6.5486,6.5996,6.6012,6.6074,6.6566,6.6536,6.6242,6.6012,6.5889,6.5797,6.5657,6.5811,6.6365,6.6966,6.712,6.7165,6.7289,6.7243,6.7151,6.7137,6.7305,6.7397,6.735,6.7767,6.8074,6.8197,6.8581,6.8842,6.8812,6.8842,6.8904,6.9058,6.9119,6.9212,6.9427,6.9843,7.012,7.0151,7.0459,7.0705,5.8161,5.8426,5.9088,5.9811,6.0496,6.0565,6.056,6.0578,6.0609,6.0622,6.0499,5.9975,5.9698,5.9821,6.0578,6.0917,6.0948,6.1163,6.1225,6.1101,6.104,6.0978,6.0855,6.0824,6.1132,6.1642,6.1717,6.1981,6.2504,6.2658,6.272,6.272,6.2781,6.2873,6.2843,6.2843,6.2843,6.2812,6.2689,6.2627,6.2627,6.2614,6.2596,6.2596,6.2596,6.2627,6.2535,6.2627,6.2658,6.2675,6.272,6.2737,6.2812,6.2843,6.3089,6.366,6.3691,6.3981,6.458,6.4122,6.4166,6.4795,6.4932,6.4932,6.4918,6.5442,6.5534,6.5042,6.4826,6.4857,6.498,6.4857,6.5028,6.5735,6.578,6.6074,6.6505,6.6259,6.592,6.5982,6.5719,6.5302,6.5889,6.5982,6.618,6.6566,6.669,6.7059,6.7674,6.7828,6.7997,6.8366,6.8243,6.7844,6.7844,6.8335,6.8473,6.8596,6.8719,6.8735,6.875,6.8781,6.8935,6.9089,6.8996,6.9181,6.9628,6.9813,6.9997,7.0305,7.0613,7.0828,7.0798,7.0982,7.0982,5.9706,5.9827,6.0103,6.0444,6.0763,6.0794,6.0794,6.0794,6.0794,6.0794,6.0776,6.0517,6.0406,6.0406,6.0701,6.0794,6.0794,6.0794,6.0794,6.0855,6.1181,6.1379,6.144,6.1796,6.2135,6.2368,6.2394,6.2535,6.2843,6.3198,6.3612,6.3995,6.4057,6.4057,6.4057,6.4057,6.4057,6.4057,6.4057,6.4057,6.392,6.3212,6.2812,6.2812,6.2812,6.2812,6.2812,6.2812,6.2997,6.3352,6.3397,6.3581,6.4026,6.4026,6.4166,6.4426,6.4443,6.4751,6.5442,6.5182,6.5182,6.5472,6.5503,6.5319,6.4949,6.5165,6.5195,6.4994,6.4932,6.5042,6.538,6.5134,6.5165,6.5719,6.5565,6.5596,6.6197,6.6074,6.6012,6.6382,6.6259,6.6136,6.6413,6.6505,6.6782,6.7321,6.752,6.7767,6.8366,6.8489,6.8612,6.8781,6.8643,6.852,6.8489,6.8688,6.8873,6.8904,6.8904,6.8904,6.8935,6.8904,6.8996,6.9397,6.9489,6.9766,7.0367,7.0459,7.0613,7.1013,7.1413,7.1644,7.2044,7.2137,7.2137,6.0794,6.0794,6.0794,6.0794,6.0794,6.0794,6.0794,6.0794,6.0794,6.0794,6.0794,6.0794,6.0917,6.104,6.0886,6.0794,6.0824,6.1009,6.1071,6.1163,6.1766,6.2073,6.2135,6.2566,6.2891,6.3045,6.3075,6.3181,6.3397,6.3858,6.4381,6.484,6.4901,6.4901,6.4901,6.4901,6.4901,6.4901,6.4901,6.4901,6.4764,6.3889,6.3366,6.3366,6.3366,6.3366,6.3366,6.3366,6.3581,6.406,6.4104,6.4351,6.4857,6.4901,6.4901,6.4918,6.5072,6.5288,6.5612,6.5612,6.5612,6.5626,6.578,6.5626,6.5103,6.5072,6.5165,6.5195,6.5165,6.538,6.5472,6.5349,6.5411,6.5811,6.5565,6.5688,6.615,6.6166,6.6396,6.6813,6.6813,6.6997,6.7151,6.7367,6.7674,6.8074,6.8167,6.829,6.8781,6.8873,6.8904,6.8904,6.8904,6.8904,6.8904,6.8904,6.8904,6.8965,6.8996,6.9243,6.9212,6.9304,6.952,7.012,7.0151,7.0443,7.1028,7.1213,7.1336,7.1521,7.189,7.2383,7.2722,7.2937,7.2968,6.0794,6.0794,6.0794,6.0794,6.0794,6.0794,6.0807,6.0855,6.0824,6.0824,6.0886,6.0886,6.1181,6.1704,6.1163,6.0855,6.0917,6.1502,6.1735,6.1827,6.2443,6.275,6.2781,6.2812,6.3181,6.3735,6.3752,6.4074,6.4672,6.4795,6.4857,6.4901,6.4901,6.4901,6.4901,6.4901,6.4901,6.4901,6.4901,6.4901,6.4901,6.4795,6.4703,6.4672,6.4778,6.4717,6.4734,6.4795,6.4795,6.4812,6.4826,6.4888,6.4901,6.4901,6.4901,6.4963,6.5472,6.5565,6.5103,6.5072,6.5055,6.5103,6.5657,6.5657,6.5134,6.5534,6.5828,6.5842,6.5842,6.5688,6.5288,6.5657,6.5859,6.5996,6.6443,6.669,6.6843,6.6843,6.6874,6.6997,6.709,6.7336,6.7783,6.8427,6.8627,6.8781,6.8812,6.8842,6.8842,6.8904,6.8904,6.8935,6.8935,6.8904,6.8935,6.9058,6.9027,6.915,6.952,6.9858,7.0074,7.0305,7.0582,7.0828,7.0859,7.1151,7.1706,7.2044,7.2244,7.2414,7.2568,7.2968,7.3214,7.306,7.3183,6.0794,6.0794,6.0794,6.0794,6.0794,6.0794,6.104,6.1409,6.144,6.1673,6.2042,6.2073,6.2227,6.2412,6.2196,6.2073,6.2104,6.235,6.2456,6.2504,6.3106,6.3458,6.3489,6.3889,6.4241,6.4487,6.4518,6.4628,6.4857,6.4901,6.4901,6.4901,6.4901,6.4901,6.4901,6.4901,6.4901,6.4901,6.4901,6.4901,6.4901,6.4901,6.4901,6.4901,6.4901,6.4901,6.4901,6.5288,6.5349,6.4932,6.5288,6.5349,6.4949,6.4901,6.4901,6.4918,6.5134,6.5349,6.5503,6.5534,6.5534,6.5596,6.6166,6.6242,6.5811,6.6136,6.6536,6.6536,6.6536,6.6382,6.6304,6.6413,6.6536,6.6566,6.6751,6.712,6.7428,6.7551,6.7705,6.8058,6.8181,6.8304,6.8427,6.875,6.8904,6.8904,6.8904,6.8904,6.8904,6.8904,6.8935,6.8996,6.9243,6.9536,6.955,6.9536,6.9566,6.9751,7.0028,7.0398,7.0675,7.0798,7.1013,7.1506,7.1613,7.1798,7.2321,7.2629,7.2845,7.2906,7.3091,7.3461,7.3584,7.3614,7.3861,6.144,6.1427,6.1471,6.144,6.1458,6.1458,6.1717,6.2104,6.2135,6.2381,6.275,6.2812,6.2904,6.3075,6.3137,6.326,6.3427,6.3243,6.3106,6.3181,6.3845,6.4166,6.4228,6.4672,6.4901,6.4901,6.4901,6.4901,6.4901,6.4901,6.4901,6.4901,6.4901,6.4901,6.4901,6.4901,6.4901,6.4901,6.4901,6.4901,6.4901,6.4901,6.4901,6.4901,6.4901,6.4901,6.4932,6.5349,6.538,6.5042,6.5349,6.538,6.4949,6.5103,6.5089,6.4949,6.5134,6.5411,6.5797,6.5889,6.5982,6.6211,6.6597,6.669,6.6289,6.6628,6.6966,6.7151,6.7213,6.7274,6.749,6.7551,6.7473,6.7336,6.7397,6.772,6.8136,6.8228,6.8427,6.8719,6.8812,6.8873,6.8904,6.8904,6.8904,6.8904,6.8904,6.8904,6.8904,6.9119,6.9212,6.9273,6.9813,7.012,7.0336,7.0459,7.0367,7.049,7.0813,7.1105,7.129,7.1383,7.1598,7.2106,7.2383,7.2568,7.2814,7.3137,7.3276,7.3307,7.3738,7.4153,7.4245,7.4307,7.4522,6.275,6.2689,6.2781,6.2658,6.2627,6.2627,6.275,6.2812,6.2812,6.2904,6.3089,6.2935,6.3335,6.3722,6.3814,6.4166,6.4518,6.4074,6.3827,6.3875,6.4518,6.4826,6.484,6.4857,6.4901,6.4901,6.4901,6.4901,6.4901,6.4901,6.4901,6.4901,6.4901,6.4901,6.4901,6.4901,6.4901,6.4901,6.4901,6.4932,6.4932,6.4994,6.5055,6.5042,6.5072,6.5072,6.5025,6.5011,6.5042,6.4949,6.498,6.4932,6.5011,6.5472,6.5596,6.5195,6.5534,6.5903,6.5965,6.5982,6.6289,6.669,6.6905,6.6997,6.6966,6.7028,6.7336,6.7797,6.7921,6.8105,6.8627,6.8719,6.8489,6.8074,6.8335,6.8688,6.8781,6.8873,6.8904,6.8904,6.8904,6.8904,6.8904,6.8904,6.8935,6.9027,6.9027,6.9119,6.9243,6.9643,6.9843,6.9997,7.0428,7.089,7.1167,7.1413,7.129,7.1259,7.1644,7.1983,7.2075,7.2167,7.2306,7.2691,7.2691,7.2876,7.3214,7.3522,7.383,7.4015,7.4461,7.4799,7.4922,7.5015,7.5091,6.2812,6.2812,6.2812,6.2812,6.2812,6.2812,6.3045,6.3489,6.3475,6.3766,6.418,6.4241,6.4351,6.4504,6.458,6.4703,6.4857,6.4641,6.4535,6.458,6.4795,6.4901,6.4901,6.4901,6.4901,6.4901,6.4901,6.4901,6.4901,6.4901,6.4901,6.4901,6.4901,6.4901,6.4901,6.4901,6.4901,6.4901,6.4901,6.5103,6.552,6.5596,6.5811,6.6228,6.6259,6.6259,6.6273,6.5842,6.538,6.4994,6.5349,6.538,6.5134,6.552,6.5766,6.5705,6.6197,6.6611,6.6566,6.6597,6.6673,6.6936,6.7321,6.7537,6.7644,6.7997,6.8304,6.8551,6.8581,6.8719,6.8842,6.8904,6.8812,6.8612,6.8766,6.8935,6.8965,6.8935,6.8904,6.8904,6.8904,6.8904,6.8935,6.8935,6.9181,6.952,6.9566,6.9704,7.0151,7.0367,7.0582,7.0644,7.1198,7.1629,7.1829,7.2044,7.2121,7.1998,7.2291,7.2475,7.2598,7.2737,7.2906,7.3122,7.3091,7.3276,7.3614,7.3984,7.4338,7.4615,7.4922,7.5261,7.5569,7.5707,7.5799,6.3581,6.3581,6.3581,6.3581,6.3581,6.3581,6.3797,6.4166,6.4197,6.4474,6.484,6.4901,6.4901,6.4901,6.4901,6.4901,6.4901,6.4901,6.4901,6.4901,6.4901,6.4901,6.4901,6.4901,6.4901,6.4901,6.4901,6.4901,6.4901,6.4901,6.4901,6.4901,6.4901,6.4901,6.4963,6.5165,6.5288,6.5319,6.5534,6.5842,6.6166,6.6259,6.6474,6.6843,6.6905,6.6905,6.6874,6.6474,6.6074,6.578,6.6057,6.6027,6.5705,6.6043,6.6259,6.6351,6.6628,6.6997,6.7198,6.7274,6.7397,6.7644,6.8027,6.8259,6.8351,6.875,6.8904,6.8904,6.8904,6.8904,6.8904,6.8904,6.8996,6.9259,6.9027,6.9058,6.9181,6.9273,6.9458,6.9612,6.9704,6.9643,6.9628,6.9659,6.9782,7.0182,7.0274,7.0336,7.0859,7.1105,7.1229,7.1459,7.1952,7.2229,7.2383,7.2629,7.2906,7.2876,7.2845,7.2845,7.2876,7.2906,7.303,7.3399,7.3522,7.3861,7.4199,7.4707,7.5091,7.5276,7.5507,7.5984,7.6353,7.6353,7.6445,6.4901,6.4901,6.4901,6.4795,6.4795,6.4795,6.4764,6.4857,6.4857,6.4857,6.4901,6.4901,6.4901,6.4901,6.4901,6.4901,6.4901,6.4901,6.4901,6.4901,6.4932,6.4963,6.5072,6.5195,6.5195,6.5055,6.5042,6.498,6.4932,6.4901,6.4901,6.4901,6.4994,6.4994,6.5165,6.5626,6.5965,6.6057,6.6505,6.6813,6.6936,6.6966,6.7042,6.712,6.7151,6.7182,6.7213,6.7151,6.6997,6.6874,6.6782,6.6751,6.6843,6.6905,6.6966,6.6966,6.6997,6.7414,6.7814,6.7951,6.8167,6.8627,6.875,6.8904,6.8842,6.8842,6.8904,6.8904,6.8904,6.8904,6.8904,6.9027,6.9289,6.9751,6.955,6.9489,6.9889,6.9981,7.0151,7.0613,7.0859,7.0859,7.0705,7.0705,7.0798,7.0952,7.0982,7.1044,7.1321,7.1721,7.1983,7.226,7.2568,7.2629,7.2722,7.2752,7.2999,7.2999,7.2999,7.2999,7.3091,7.3153,7.3276,7.3645,7.4107,7.4446,7.483,7.5323,7.5737,7.5984,7.6353,7.6845,7.6921,7.6798,7.6798,6.4901,6.4901,6.4901,6.4901,6.4901,6.4901,6.4901,6.4901,6.4901,6.4901,6.4901,6.4901,6.4901,6.4901,6.4901,6.4901,6.4901,6.4901,6.4901,6.4901,6.4901,6.5195,6.5688,6.6119,6.6057,6.5626,6.5489,6.538,6.4932,6.4963,6.4963,6.4932,6.5411,6.5657,6.575,6.6304,6.6628,6.6642,6.6768,6.7182,6.7568,6.7629,6.789,6.8335,6.8335,6.8319,6.8366,6.8366,6.7843,6.6952,6.6905,6.6905,6.7028,6.7397,6.7644,6.7705,6.8089,6.8411,6.8551,6.8612,6.8705,6.8873,6.8904,6.8904,6.8904,6.8904,6.8904,6.8904,6.8904,6.8935,6.8996,6.9397,6.9936,7.049,7.0459,7.0428,7.0582,7.0644,7.0736,7.0859,7.0952,7.1013,7.1044,7.1044,7.1213,7.1582,7.1736,7.1829,7.2137,7.2321,7.2568,7.2691,7.2876,7.2937,7.2968,7.2968,7.2999,7.2999,7.2999,7.303,7.3214,7.3461,7.366,7.3937,7.4553,7.4984,7.5415,7.583,7.623,7.6568,7.6753,7.6983,7.6983,7.6921,7.6921,6.4901,6.4901,6.4901,6.4901,6.4901,6.4901,6.4901,6.4901,6.4901,6.4901,6.4901,6.4901,6.4901,6.4901,6.4901,6.4901,6.4901,6.4901,6.4901,6.4949,6.5195,6.538,6.5565,6.5934,6.5873,6.5534,6.5517,6.5257,6.5011,6.5165,6.5319,6.5472,6.5996,6.632,6.6365,6.6966,6.7321,6.7397,6.7551,6.7935,6.829,6.8335,6.8489,6.8842,6.8904,6.8904,6.8904,6.8904,6.8504,6.7904,6.775,6.775,6.7781,6.8089,6.8335,6.8366,6.8719,6.8904,6.8904,6.8904,6.8904,6.8904,6.8904,6.8904,6.8904,6.8904,6.8904,6.8904,6.8904,6.9058,6.9458,7.0197,7.0874,7.1336,7.1598,7.1629,7.1429,7.1367,7.1521,7.166,7.1783,7.1783,7.1783,7.1752,7.1983,7.2291,7.2414,7.2598,7.2814,7.2968,7.2999,7.2999,7.2999,7.2999,7.2999,7.2999,7.2999,7.2999,7.3153,7.3122,7.3522,7.3845,7.4245,7.4615,7.5107,7.5569,7.5984,7.6353,7.6568,7.6845,7.6952,7.6983,7.6983,7.6983,7.6983,6.4901,6.4901,6.4901,6.4901,6.4901,6.4901,6.4901,6.4901,6.4901,6.4901,6.4901,6.4901,6.4901,6.4901,6.4901,6.4901,6.4901,6.4901,6.4901,6.5042,6.5319,6.5442,6.5086,6.5472,6.5442,6.5226,6.5042,6.5072,6.5226,6.5626,6.5934,6.6136,6.669,6.6966,6.712,6.766,6.7982,6.8105,6.8427,6.8658,6.8838,6.8969,6.9118,6.8873,6.8904,6.908,6.9151,6.918,6.9104,6.9076,6.9063,6.9056,6.9073,6.9134,6.9207,6.9147,6.9207,6.9165,6.8933,6.8904,6.8904,6.8904,6.8904,6.8904,6.8904,6.8904,6.8904,6.8904,6.8965,6.9458,7.0228,7.1275,7.1844,7.2121,7.2598,7.2629,7.2306,7.209,7.2321,7.2876,7.2952,7.2999,7.2999,7.2999,7.2968,7.266,7.2783,7.2845,7.2937,7.2968,7.2999,7.2999,7.2999,7.2999,7.2999,7.2999,7.2999,7.303,7.3276,7.3461,7.4015,7.4399,7.4922,7.5353,7.5784,7.6168,7.663,7.6907,7.6968,7.6968,7.6983,7.6983,7.6983,7.6983,7.6983,6.4901,6.4901,6.4901,6.4901,6.4901,6.4901,6.4901,6.4901,6.4901,6.4901,6.4901,6.4901,6.4901,6.4901,6.4901,6.4901,6.4901,6.4901,6.4901,6.4932,6.5011,6.5086,6.5148,6.5811,6.6074,6.5766,6.5688,6.5688,6.578,6.5934,6.6197,6.672,6.7305,6.7705,6.7783,6.8274,6.8688,6.8705,6.8842,6.8948,6.9165,6.9655,6.9655,6.9036,6.8963,6.9441,7.0067,7.0205,7.022,7.022,7.0293,7.0364,7.0279,7.0947,7.0933,7.0293,7.0124,6.9827,6.9107,6.8904,6.8904,6.8904,6.8904,6.8904,6.8904,6.8904,6.8904,6.8996,6.9397,7.0105,7.1213,7.1736,7.2244,7.2645,7.2845,7.2937,7.2814,7.2752,7.2814,7.2937,7.2999,7.2999,7.2999,7.2999,7.2999,7.2999,7.2999,7.2999,7.2999,7.2999,7.2999,7.2999,7.2999,7.2999,7.2999,7.2999,7.2999,7.3122,7.3368,7.3814,7.4368,7.4892,7.5353,7.5877,7.6384,7.6784,7.6983,7.6983,7.6983,7.6983,7.6983,7.6983,7.6983,7.6983,7.6983,6.4901,6.4901,6.4901,6.4901,6.4901,6.4901,6.4901,6.4901,6.4901,6.4901,6.4901,6.4901,6.4901,6.4901,6.4901,6.4901,6.4901,6.4901,6.4901,6.4901,6.4932,6.4932,6.5072,6.5842,6.6197,6.592,6.5889,6.6043,6.632,6.6673,6.7059,6.7397,6.8042,6.8321,6.8351,6.8719,6.8873,6.8873,6.8919,6.9107,6.9741,6.967,6.9626,6.9209,6.9398,7.0053,7.0501,7.1168,7.1361,7.1506,7.1859,7.1615,7.0961,7.1629,7.1669,7.085,7.0585,7.0038,6.9224,6.8904,6.8904,6.8904,6.8904,6.8904,6.8904,6.8904,6.9089,6.9335,6.9797,7.0474,7.1798,7.2352,7.266,7.2876,7.2999,7.2999,7.2999,7.2999,7.2999,7.2999,7.2999,7.2999,7.2999,7.2999,7.2999,7.2999,7.2999,7.2999,7.2999,7.2999,7.2999,7.2999,7.2999,7.2999,7.2999,7.2999,7.2999,7.3214,7.3522,7.4076,7.4707,7.523,7.5754,7.6261,7.6753,7.6845,7.6983,7.6983,7.6983,7.6983,7.6983,7.6983,7.6983,7.6983,7.6983,6.4901,6.4901,6.4901,6.4901,6.4901,6.4901,6.4901,6.4901,6.4901,6.4901,6.4901,6.4901,6.4901,6.4901,6.4901,6.4901,6.4901,6.4901,6.4901,6.4901,6.5117,6.5179,6.5349,6.5842,6.632,6.618,6.6166,6.6443,6.7102,6.7783,6.8267,6.8405,6.8854,6.923,6.9176,6.8932,6.9049,6.9296,6.9369,6.987,7.0725,7.0392,7.0209,7.0322,7.0109,7.0892,7.1424,7.2114,7.2552,7.2618,7.365,7.2998,7.2033,7.2074,7.2141,7.1068,7.0985,7.0276,6.9224,6.8904,6.8904,6.8904,6.8904,6.8904,6.8904,6.8965,6.9243,6.9735,7.0228,7.0905,7.2013,7.2568,7.2906,7.2999,7.2999,7.2999,7.2999,7.2999,7.2999,7.2999,7.2999,7.2999,7.2999,7.2999,7.2999,7.2999,7.2999,7.2999,7.2999,7.2999,7.2999,7.2999,7.2999,7.2999,7.2999,7.2999,7.2999,7.3214,7.3553,7.4199,7.4861,7.5446,7.5953,7.6568,7.6952,7.6983,7.6983,7.6983,7.6983,7.6983,7.6983,7.6983,7.6983,7.6983,7.6983,6.4901,6.4901,6.4901,6.4901,6.4901,6.4901,6.4901,6.4901,6.4901,6.4901,6.4901,6.4901,6.4901,6.4901,6.4901,6.4901,6.4901,6.4994,6.4994,6.5103,6.5442,6.575,6.5873,6.6413,6.6995,6.7305,6.722,6.7353,6.7983,6.8769,6.9475,7.001,7.0129,7.0209,7.0024,6.9526,6.9526,7.0237,7.0332,7.0906,7.1805,7.242,7.2526,7.2367,7.1506,7.1751,7.2985,7.3522,7.3714,7.3815,7.4831,7.4514,7.3841,7.4365,7.3803,7.2367,7.1832,7.0971,6.9296,6.8904,6.8904,6.8904,6.8904,6.8904,6.8904,6.8996,6.9427,7.0135,7.1059,7.1952,7.2722,7.2937,7.2968,7.2999,7.2999,7.2999,7.2999,7.2999,7.2999,7.2999,7.2999,7.2999,7.2999,7.2999,7.2999,7.2999,7.2999,7.2999,7.2999,7.2999,7.2999,7.2999,7.2999,7.2999,7.2999,7.2999,7.303,7.3153,7.3522,7.4138,7.4799,7.5538,7.6137,7.6384,7.6784,7.6983,7.6983,7.6983,7.6983,7.6983,7.6983,7.6983,7.6983,7.6983,7.6983,6.4901,6.4901,6.4901,6.4901,6.4901,6.4901,6.4901,6.4901,6.4901,6.4901,6.4901,6.4901,6.4901,6.4901,6.4901,6.4901,6.4994,6.5319,6.5411,6.5551,6.6088,6.6413,6.6562,6.7149,6.7962,6.8568,6.8783,6.891,6.9296,6.979,7.0639,7.1151,7.0975,7.0878,7.1081,7.0403,7.0547,7.1219,7.1533,7.2033,7.305,7.3823,7.3739,7.2998,7.2815,7.3057,7.3714,7.4708,7.4868,7.4978,7.54,7.5328,7.5231,7.5051,7.4675,7.2802,7.2274,7.1288,6.9367,6.8904,6.8904,6.8904,6.8904,6.8904,6.9027,6.9259,6.9889,7.0905,7.1767,7.2629,7.2937,7.2999,7.2999,7.2999,7.2999,7.2999,7.2999,7.2999,7.2999,7.2999,7.2999,7.2999,7.2999,7.2999,7.2999,7.2999,7.2999,7.2999,7.2999,7.2999,7.2999,7.2999,7.2999,7.2999,7.2999,7.2999,7.2999,7.3153,7.3399,7.4015,7.4491,7.5076,7.5446,7.5676,7.6137,7.6722,7.6983,7.6999,7.6983,7.6983,7.6983,7.6983,7.6983,7.6983,7.6983,6.4901,6.4901,6.4901,6.4901,6.4901,6.4901,6.4901,6.4901,6.4901,6.4901,6.4901,6.4901,6.4901,6.4901,6.4918,6.4949,6.5134,6.5719,6.5889,6.6242,6.681,6.7178,6.7614,6.819,6.912,7.0212,7.0548,7.0947,7.0949,7.1301,7.1867,7.2247,7.1669,7.1656,7.2234,7.1493,7.1832,7.2287,7.2658,7.3239,7.403,7.4089,7.3777,7.3011,7.3676,7.4026,7.4514,7.5112,7.5508,7.5556,7.564,7.5652,7.5664,7.5676,7.4625,7.2789,7.2327,7.1044,6.9569,6.8904,6.8904,6.8904,6.8904,6.8965,6.9366,6.9981,7.0813,7.1875,7.2568,7.2937,7.2999,7.2999,7.2999,7.2999,7.2999,7.2999,7.2999,7.2999,7.2999,7.2999,7.2999,7.2999,7.2999,7.2999,7.2999,7.2999,7.2999,7.2999,7.2999,7.2999,7.2999,7.2999,7.2999,7.2999,7.2999,7.2999,7.2999,7.306,7.3276,7.3707,7.4061,7.4491,7.4769,7.5107,7.5645,7.6168,7.6568,7.6938,7.6983,7.6983,7.6983,7.6983,7.6983,7.6983,7.6983,6.4901,6.4901,6.4901,6.4901,6.4901,6.4901,6.4901,6.4901,6.4901,6.4901,6.4901,6.4901,6.4901,6.4932,6.4949,6.5257,6.5657,6.6027,6.645,6.7026,6.7672,6.8477,6.9252,6.9965,7.0799,7.1682,7.2004,7.2068,7.2354,7.305,7.3522,7.365,7.3522,7.3676,7.3612,7.2671,7.2724,7.3586,7.3823,7.4327,7.5064,7.4539,7.4539,7.4724,7.4576,7.4489,7.5161,7.558,7.5664,7.5676,7.5676,7.5676,7.5676,7.5676,7.4452,7.305,7.2074,7.1315,6.9412,6.8904,6.8904,6.8935,6.8965,6.9243,6.9951,7.0874,7.1659,7.1906,7.2598,7.2968,7.2999,7.2999,7.2999,7.2999,7.2999,7.2999,7.2999,7.2999,7.2999,7.2999,7.2999,7.2999,7.2999,7.2999,7.2999,7.2999,7.2999,7.2999,7.2999,7.2999,7.2999,7.2999,7.2999,7.2999,7.2999,7.2999,7.2999,7.2999,7.3183,7.3399,7.3676,7.3999,7.4307,7.4707,7.5169,7.5491,7.5768,7.6199,7.6753,7.6952,7.686,7.6921,7.6983,7.6983,7.6983,6.4901,6.4901,6.4901,6.4901,6.4901,6.4901,6.4901,6.4901,6.4901,6.4901,6.4901,6.4901,6.4901,6.498,6.5257,6.5612,6.6012,6.6685,6.7559,6.8394,6.9125,7.0,7.0945,7.1468,7.2167,7.2998,7.3335,7.3777,7.3993,7.4005,7.424,7.4807,7.439,7.434,7.4662,7.3803,7.4056,7.4625,7.499,7.5185,7.5448,7.5291,7.5161,7.5628,7.5161,7.5291,7.552,7.5676,7.5676,7.5676,7.5676,7.5676,7.5496,7.5051,7.393,7.2605,7.2301,7.1191,6.9325,6.9006,6.8977,6.9073,6.9319,6.9951,7.0874,7.1582,7.2244,7.2583,7.2814,7.2999,7.2999,7.2999,7.2999,7.2999,7.2999,7.2999,7.2999,7.2999,7.2999,7.2999,7.2999,7.2999,7.2999,7.2999,7.2999,7.2999,7.2999,7.2999,7.2999,7.2999,7.2999,7.2999,7.2999,7.2999,7.2999,7.2999,7.2999,7.2999,7.2999,7.3183,7.3276,7.3553,7.3814,7.3999,7.4245,7.4584,7.4906,7.5583,7.6261,7.6538,7.6737,7.6767,7.6845,7.6999,7.6999,6.4901,6.4901,6.4901,6.4901,6.4901,6.4901,6.4901,6.4901,6.4901,6.4901,6.4949,6.5072,6.5165,6.5288,6.5884,6.647,6.7009,6.7886,6.9067,7.0064,7.0832,7.1632,7.2342,7.2789,7.3329,7.4402,7.4427,7.4794,7.5027,7.5027,7.4966,7.5674,7.4942,7.4942,7.5243,7.4954,7.4868,7.5424,7.5556,7.5604,7.5652,7.5652,7.5616,7.5676,7.5664,7.5676,7.5676,7.5676,7.5676,7.5676,7.5676,7.5676,7.5556,7.4699,7.3637,7.2579,7.2301,7.1479,7.0095,6.9468,6.934,6.9486,6.9825,7.0628,7.1644,7.2121,7.2368,7.2906,7.2968,7.2999,7.2999,7.2999,7.2999,7.2999,7.2999,7.2999,7.2999,7.2999,7.2999,7.2999,7.2999,7.2999,7.2999,7.2999,7.2999,7.2999,7.2999,7.2999,7.2999,7.2999,7.2999,7.2999,7.2999,7.2999,7.2999,7.2999,7.2999,7.2999,7.2999,7.303,7.3122,7.3122,7.3276,7.3383,7.3506,7.366,7.3999,7.4922,7.5784,7.5891,7.6107,7.6507,7.6691,7.6876,7.6999,6.4901,6.4901,6.4901,6.4901,6.4901,6.4901,6.4901,6.4901,6.4901,6.4932,6.5072,6.5503,6.5778,6.6108,6.6813,6.7852,6.927,6.9442,7.0549,7.1569,7.2255,7.2868,7.3548,7.4018,7.439,7.5246,7.534,7.5436,7.5628,7.5508,7.5496,7.5616,7.5388,7.5532,7.5604,7.546,7.5364,7.5676,7.5676,7.5676,7.5676,7.5676,7.5676,7.5676,7.5676,7.5676,7.5676,7.5676,7.5676,7.5676,7.5676,7.5484,7.5255,7.4514,7.3471,7.2592,7.2539,7.1886,7.1054,7.0403,7.0395,7.0514,7.0751,7.1213,7.209,7.2629,7.2906,7.2968,7.2999,7.2999,7.2999,7.2999,7.2999,7.2999,7.2999,7.2999,7.2999,7.2999,7.2999,7.2999,7.2999,7.2999,7.2999,7.2999,7.2999,7.2999,7.2999,7.2999,7.2999,7.2999,7.2999,7.2999,7.2999,7.2999,7.2999,7.2999,7.2999,7.2999,7.2999,7.2999,7.303,7.2999,7.2999,7.306,7.3245,7.3153,7.3214,7.4107,7.4799,7.5138,7.5476,7.5953,7.6445,7.6722,7.6876,6.4901,6.4901,6.4901,6.4901,6.4901,6.4901,6.4901,6.4901,6.4932,6.5165,6.5503,6.5808,6.6522,6.7457,6.8284,6.9304,7.0581,7.1124,7.2134,7.29,7.3484,7.403,7.4662,7.5027,7.5303,7.5616,7.5676,7.5676,7.5664,7.5676,7.5676,7.5676,7.5676,7.5664,7.5676,7.5676,7.5676,7.5676,7.5676,7.5676,7.5676,7.5676,7.5676,7.5676,7.5676,7.5676,7.5676,7.5676,7.5676,7.5676,7.5676,7.5388,7.4942,7.4302,7.3509,7.2671,7.2894,7.2868,7.2261,7.1438,7.0682,7.0892,7.127,7.1829,7.2445,7.2876,7.2968,7.2999,7.2999,7.2999,7.2999,7.2999,7.2999,7.2999,7.2999,7.2999,7.2999,7.2999,7.2999,7.2999,7.2999,7.2999,7.2999,7.2999,7.2999,7.2999,7.2999,7.2999,7.2999,7.2999,7.2999,7.2999,7.2999,7.2999,7.2999,7.2999,7.2999,7.2999,7.2999,7.2999,7.2999,7.2999,7.2999,7.2999,7.2999,7.303,7.3183,7.3461,7.3892,7.4338,7.4892,7.5476,7.5984,7.6476,7.6599,6.4901,6.4901,6.4901,6.4901,6.4901,6.4901,6.4901,6.4901,6.4901,6.5288,6.5962,6.6607,6.7638,6.8915,7.0017,7.1025,7.1994,7.2646,7.3475,7.4139,7.4601,7.5003,7.5448,7.564,7.5568,7.5676,7.5676,7.5676,7.5676,7.5676,7.5676,7.5676,7.5676,7.5676,7.5676,7.5676,7.5676,7.5676,7.5676,7.5676,7.5676,7.5676,7.5676,7.5676,7.5676,7.5676,7.5676,7.5676,7.5676,7.5676,7.5604,7.5303,7.4712,7.4106,7.3553,7.3348,7.3419,7.3887,7.3122,7.249,7.132,7.1433,7.1612,7.226,7.2783,7.2999,7.2999,7.2999,7.2999,7.2999,7.2999,7.2999,7.2999,7.2999,7.2999,7.2999,7.2999,7.2999,7.2999,7.2999,7.2999,7.2999,7.2999,7.2999,7.2999,7.2999,7.2999,7.2999,7.2999,7.2999,7.2999,7.2999,7.2999,7.2999,7.2999,7.2999,7.2999,7.2999,7.2999,7.2999,7.2999,7.2999,7.2999,7.2999,7.2999,7.2999,7.3091,7.3276,7.343,7.3614,7.4245,7.4922,7.5384,7.5815,7.6,6.4901,6.4901,6.4901,6.4901,6.4901,6.4901,6.4901,6.4918,6.498,6.5411,6.6324,6.812,6.9223,6.9885,7.113,7.2391,7.3376,7.3825,7.4477,7.5219,7.5328,7.558,7.5628,7.5676,7.5676,7.5676,7.5676,7.5676,7.5676,7.5676,7.5676,7.5676,7.5676,7.5676,7.5676,7.5676,7.5676,7.5676,7.5676,7.5676,7.5676,7.5676,7.5676,7.5676,7.5676,7.5676,7.5676,7.5676,7.5676,7.5676,7.5676,7.546,7.5124,7.4526,7.4081,7.3866,7.3879,7.3517,7.2517,7.2905,7.2623,7.1992,7.2029,7.2445,7.2845,7.2999,7.2999,7.2999,7.2999,7.2999,7.2999,7.2999,7.2999,7.2999,7.2999,7.2999,7.2999,7.2999,7.2999,7.2999,7.2999,7.2999,7.2999,7.2999,7.2999,7.2999,7.2999,7.2999,7.2999,7.2999,7.2999,7.2999,7.2999,7.2999,7.2999,7.2999,7.2999,7.2999,7.2999,7.2999,7.2999,7.2999,7.2999,7.2999,7.2999,7.2999,7.2999,7.303,7.3183,7.3368,7.3753,7.4338,7.4769,7.5169,7.5446,6.4901,6.4901,6.4901,6.4901,6.4901,6.4901,6.4932,6.4994,6.5411,6.6166,6.7178,6.8267,6.9279,7.0359,7.1698,7.2985,7.3967,7.4978,7.5556,7.5604,7.5676,7.5664,7.5676,7.5676,7.5676,7.5676,7.5676,7.5676,7.5676,7.5676,7.5676,7.5676,7.5676,7.5676,7.5676,7.5676,7.5676,7.5676,7.5676,7.5676,7.5676,7.5676,7.5676,7.5676,7.5676,7.5676,7.5676,7.5676,7.5676,7.5676,7.5676,7.5436,7.5112,7.4551,7.477,7.4265,7.4008,7.3534,7.2972,7.3008,7.2987,7.2515,7.2398,7.2691,7.2999,7.2999,7.2999,7.2999,7.2999,7.2999,7.2999,7.2999,7.2999,7.2999,7.2999,7.2999,7.2999,7.2999,7.2999,7.2999,7.2999,7.2999,7.2999,7.2999,7.2999,7.2999,7.2999,7.2999,7.2999,7.2999,7.2999,7.2999,7.2999,7.2999,7.2999,7.2999,7.2999,7.2999,7.2999,7.2999,7.2999,7.2999,7.2999,7.2999,7.2999,7.2999,7.2999,7.2999,7.2999,7.3183,7.3537,7.3814,7.4184,7.4645,7.5107,6.4901,6.4901,6.4901,6.4901,6.4901,6.4901,6.5011,6.538,6.6166,6.712,6.7884,6.8507,6.9713,7.1178,7.238,7.3522,7.4622,7.5291,7.5697,7.5676,7.5676,7.5676,7.5676,7.5676,7.5676,7.5676,7.5676,7.5676,7.5676,7.5676,7.5676,7.5676,7.5676,7.5676,7.5676,7.5676,7.5676,7.5676,7.5676,7.5676,7.5676,7.5676,7.5676,7.5676,7.5676,7.5676,7.5676,7.5676,7.5676,7.5676,7.5556,7.533,7.5039,7.5051,7.5316,7.477,7.3923,7.3571,7.3278,7.2763,7.271,7.2521,7.2799,7.2968,7.2999,7.2999,7.2999,7.2999,7.2999,7.2999,7.2999,7.2999,7.2999,7.2999,7.2999,7.2999,7.2999,7.2999,7.2999,7.2999,7.2999,7.2999,7.2999,7.2999,7.2999,7.2999,7.2999,7.2999,7.2999,7.2999,7.2999,7.2999,7.2999,7.2999,7.2999,7.2999,7.2999,7.2999,7.2999,7.2999,7.2999,7.2999,7.2999,7.2999,7.2999,7.2999,7.2999,7.2999,7.2999,7.306,7.3276,7.3491,7.3645,7.3999,7.4461,6.4901,6.4901,6.4901,6.4932,6.4949,6.5165,6.5503,6.6074,6.7291,6.789,6.8056,6.9759,7.0842,7.2095,7.3355,7.4377,7.5231,7.552,7.5664,7.5676,7.5676,7.5676,7.5676,7.5676,7.5676,7.5676,7.5676,7.5676,7.5676,7.5676,7.5676,7.5676,7.5676,7.5676,7.5676,7.5676,7.5676,7.5676,7.5676,7.5676,7.5676,7.5676,7.5676,7.5676,7.5676,7.5676,7.5676,7.5676,7.5676,7.5676,7.5652,7.5652,7.564,7.5664,7.5697,7.5152,7.3947,7.3637,7.3174,7.2575,7.2659,7.2737,7.2906,7.2999,7.2999,7.2999,7.2999,7.2999,7.2999,7.2999,7.2999,7.2999,7.2999,7.2999,7.2999,7.2999,7.2999,7.2999,7.2999,7.2999,7.2999,7.2999,7.2999,7.2999,7.2999,7.2999,7.2999,7.2999,7.2999,7.2999,7.2999,7.2999,7.2999,7.2999,7.2999,7.2999,7.2999,7.2999,7.2999,7.2999,7.2999,7.2999,7.2999,7.2999,7.2999,7.2999,7.2999,7.2999,7.2999,7.3091,7.3153,7.3183,7.3337,7.3276,7.3506,6.4901,6.4901,6.4901,6.5165,6.5705,6.6628,6.7137,6.7397,6.7783,6.8136,6.8685,7.0001,7.0947,7.1233,7.3109,7.4056,7.4699,7.5209,7.558,7.5676,7.5676,7.5676,7.5676,7.5676,7.5676,7.5676,7.5676,7.5676,7.5676,7.5676,7.5676,7.5676,7.5676,7.5676,7.5676,7.5676,7.5676,7.5676,7.5676,7.5676,7.5676,7.5676,7.5676,7.5676,7.5676,7.5676,7.5676,7.5676,7.5676,7.5676,7.5676,7.5676,7.5676,7.5638,7.5441,7.4117,7.3545,7.3339,7.2711,7.2629,7.2783,7.2937,7.2999,7.2999,7.2999,7.2999,7.2999,7.2999,7.2999,7.2999,7.2999,7.2999,7.2999,7.2999,7.2999,7.2999,7.2999,7.2999,7.2999,7.2999,7.2999,7.2999,7.2999,7.2999,7.2999,7.2999,7.2999,7.2999,7.2999,7.2999,7.2999,7.2999,7.2999,7.2999,7.2999,7.2999,7.2999,7.2999,7.2999,7.2999,7.2999,7.2999,7.2999,7.2999,7.2999,7.2999,7.2999,7.2999,7.2999,7.2999,7.306,7.303,7.2999,7.2999,7.2999,6.4901,6.4949,6.5195,6.5811,6.6751,6.7537,6.8044,6.8259,6.8304,6.8724,6.961,7.0276,7.1099,7.2207,7.3471,7.4302,7.4868,7.5376,7.5676,7.5676,7.5616,7.5676,7.5676,7.5676,7.5676,7.5676,7.5676,7.5676,7.5676,7.5676,7.5676,7.5676,7.5676,7.5676,7.5676,7.5676,7.5676,7.5676,7.5676,7.5676,7.5676,7.5676,7.5676,7.5676,7.5676,7.5676,7.5676,7.5676,7.5676,7.5676,7.5676,7.5676,7.5633,7.5515,7.493,7.3808,7.3596,7.3279,7.2782,7.2814,7.2937,7.2999,7.2999,7.2999,7.2999,7.2999,7.2999,7.2999,7.2999,7.2999,7.2999,7.2999,7.2999,7.2999,7.2999,7.2999,7.2999,7.2999,7.2999,7.2999,7.2999,7.2999,7.2999,7.2999,7.2999,7.2999,7.2999,7.2999,7.2999,7.2999,7.2999,7.2999,7.2999,7.2999,7.2999,7.2999,7.2999,7.2999,7.2999,7.2999,7.2999,7.2999,7.2999,7.2999,7.2999,7.2999,7.2999,7.2999,7.2999,7.2999,7.2999,7.2999,7.2999,7.2999,7.2999,6.4901,6.498,6.5688,6.669,6.7783,6.7982,6.8366,6.8873,6.8842,6.9511,7.0375,7.0571,7.1778,7.3213,7.3727,7.4302,7.4613,7.5003,7.5039,7.552,7.5328,7.5376,7.5628,7.5676,7.5676,7.5676,7.5676,7.5676,7.5676,7.5676,7.5676,7.5676,7.5676,7.5676,7.5676,7.5676,7.5676,7.5676,7.5676,7.5676,7.5676,7.5676,7.5676,7.5676,7.5676,7.5676,7.5676,7.5676,7.5676,7.5676,7.5811,7.5845,7.5671,7.5383,7.4621,7.3951,7.3615,7.3311,7.2969,7.2937,7.2968,7.2999,7.2999,7.2999,7.2999,7.2999,7.2999,7.2999,7.2999,7.2999,7.2999,7.2999,7.2999,7.2999,7.2999,7.2999,7.2999,7.2999,7.2999,7.2999,7.2999,7.2999,7.2999,7.2999,7.2999,7.2999,7.2999,7.2999,7.2999,7.2999,7.2999,7.2999,7.2999,7.2999,7.2999,7.2999,7.2999,7.2999,7.2999,7.2999,7.2999,7.2999,7.2999,7.2999,7.2999,7.2999,7.2999,7.2999,7.2999,7.2999,7.2999,7.2999,7.2999,7.2999,7.2999,6.4901,6.5025,6.6166,6.7151,6.7921,6.8458,6.8735,6.8904,6.8904,6.9526,7.0445,7.0767,7.1805,7.3573,7.3135,7.3496,7.4169,7.4144,7.3828,7.439,7.465,7.5267,7.5556,7.5676,7.5676,7.5676,7.5676,7.5676,7.5676,7.5676,7.5676,7.5676,7.5676,7.5676,7.5676,7.5676,7.5676,7.5676,7.5676,7.5676,7.5676,7.5676,7.5676,7.5676,7.5676,7.5676,7.5709,7.5743,7.5709,7.5709,7.6352,7.6365,7.61,7.5627,7.4822,7.3937,7.3464,7.3168,7.3061,7.2999,7.2999,7.2999,7.2999,7.2999,7.2999,7.2999,7.2999,7.2999,7.2999,7.2999,7.2999,7.2999,7.2999,7.2999,7.2999,7.2999,7.2999,7.2999,7.2999,7.2999,7.2999,7.2999,7.2999,7.2999,7.2999,7.2999,7.2999,7.2999,7.2999,7.2999,7.2999,7.2999,7.2999,7.2999,7.2999,7.2999,7.2999,7.2999,7.2999,7.2999,7.2999,7.2999,7.2999,7.2999,7.2999,7.2999,7.2999,7.2999,7.2999,7.2999,7.2999,7.2999,7.2999,7.2999,7.2999,6.4901,6.5072,6.6351,6.7459,6.8335,6.875,6.8904,6.8904,6.8904,6.9526,7.0487,7.0725,7.1601,7.3102,7.2539,7.2842,7.3663,7.3432,7.4106,7.4576,7.4613,7.5173,7.5508,7.5676,7.5676,7.5676,7.5676,7.5676,7.5676,7.5676,7.5676,7.5676,7.5676,7.5676,7.5676,7.5676,7.5676,7.5676,7.5676,7.5676,7.5676,7.5676,7.5676,7.5676,7.5709,7.5709,7.5845,7.5946,7.6217,7.642,7.6995,7.7044,7.664,7.5921,7.5099,7.4246,7.3579,7.2999,7.2999,7.2999,7.2999,7.2999,7.2999,7.2999,7.2999,7.2999,7.2999,7.2999,7.2999,7.2999,7.2999,7.2999,7.2999,7.2999,7.2999,7.2999,7.2999,7.2999,7.2999,7.2999,7.2999,7.2999,7.2999,7.2999,7.2999,7.2999,7.2999,7.2999,7.2999,7.2999,7.2999,7.2999,7.2999,7.2999,7.2999,7.2999,7.2999,7.2999,7.2999,7.2999,7.2999,7.2999,7.2999,7.2999,7.2999,7.2999,7.2999,7.2999,7.2999,7.2999,7.2999,7.2999,7.2999,7.2999,7.2999,6.5011,6.5319,6.6427,6.7658,6.8812,6.8904,6.8904,6.8904,6.8919,6.9441,7.0194,7.0293,7.1127,7.1966,7.1926,7.2802,7.3154,7.2763,7.3841,7.4929,7.5173,7.5364,7.5496,7.5676,7.5676,7.5676,7.5676,7.5676,7.5676,7.5676,7.5676,7.5676,7.5676,7.5676,7.5676,7.5676,7.5676,7.5676,7.5676,7.5676,7.5676,7.5676,7.5676,7.5709,7.5811,7.5857,7.6082,7.6487,7.6961,7.7299,7.762,7.7466,7.7014,7.6213,7.516,7.4314,7.3446,7.3076,7.2999,7.2999,7.2999,7.2999,7.2999,7.2999,7.2999,7.2999,7.2999,7.2999,7.2999,7.2999,7.2999,7.2999,7.2999,7.2999,7.2999,7.2999,7.2999,7.2999,7.2999,7.2999,7.2999,7.2999,7.2999,7.2999,7.2999,7.2999,7.2999,7.2999,7.2999,7.2999,7.2999,7.2999,7.2999,7.2999,7.2999,7.2999,7.2999,7.2999,7.2999,7.2999,7.2999,7.2999,7.2999,7.2999,7.2999,7.2999,7.2999,7.2999,7.2999,7.2999,7.2999,7.2999,7.2999,7.2999,7.2999,6.5565,6.6536,6.6813,6.7689,6.8812,6.8904,6.8904,6.8904,6.8904,6.9049,6.9267,6.941,7.0279,7.2154,7.0223,7.0683,7.2645,7.2301,7.2933,7.4038,7.4724,7.5158,7.546,7.5676,7.5676,7.5676,7.5676,7.5676,7.5676,7.5676,7.5676,7.5676,7.5676,7.5676,7.5676,7.5676,7.5676,7.5676,7.5709,7.5709,7.5777,7.5777,7.5709,7.5912,7.6318,7.6521,7.686,7.7413,7.7684,7.8022,7.8338,7.8,7.7274,7.6475,7.5429,7.417,7.3324,7.3092,7.2999,7.2999,7.2999,7.2999,7.2999,7.2999,7.2999,7.2999,7.2999,7.2999,7.2999,7.2999,7.2999,7.2999,7.2999,7.2999,7.2999,7.2999,7.2999,7.2999,7.2999,7.2999,7.2999,7.2999,7.2999,7.2999,7.2999,7.2999,7.2999,7.2999,7.2999,7.2999,7.2999,7.2999,7.2999,7.2999,7.2999,7.2999,7.2999,7.2999,7.2999,7.2999,7.2999,7.2999,7.2999,7.2999,7.2999,7.2999,7.2999,7.2999,7.2999,7.2999,7.2999,7.2999,7.2999,7.2999,7.2999]}]]